<?xml version="1.0" encoding="UTF-8" standalone="no" ?>
<gpx xmlns="http://www.topografix.com/GPX/1/1" xmlns:xsi="http://www.w3.org/2001/XMLSchema-instance" xsi:schemaLocation="http://www.topografix.com/GPX/1/1 http://www.topografix.com/GPX/1/1/gpx.xsd" version="1.1" creator="VisuGPX - https://www.visugpx.com">
  <metadata>
    <name>Boucle à partir de Prelles</name>
    <desc><![CDATA[Suivre la D4 jusqu'à Bouchier, retour  par le GR50]]></desc>
  </metadata>
  <trk>
    <name><![CDATA[Boucle à partir de Prelles]]></name>
    <desc><![CDATA[Suivre la D4 jusqu'à Bouchier, retour  par le GR50]]></desc>
    <trkseg>
      <trkpt lat="44.85408" lon="6.57966">
        <ele>1192.2</ele>
        <time>2024-08-18T14:47:53Z</time>
      </trkpt>
      <trkpt lat="44.85406" lon="6.57961">
        <ele>1192.2</ele>
        <time>2024-08-18T14:47:53Z</time>
      </trkpt>
      <trkpt lat="44.85403" lon="6.57965">
        <ele>1191.5</ele>
        <time>2024-08-18T14:47:53Z</time>
      </trkpt>
      <trkpt lat="44.85397" lon="6.57952">
        <ele>1191</ele>
        <time>2024-08-18T14:47:53Z</time>
      </trkpt>
      <trkpt lat="44.85389" lon="6.57937">
        <ele>1190.1</ele>
        <time>2024-08-18T14:47:53Z</time>
      </trkpt>
      <trkpt lat="44.85382" lon="6.57923">
        <ele>1189.3</ele>
        <time>2024-08-18T14:47:53Z</time>
      </trkpt>
      <trkpt lat="44.8538" lon="6.57919">
        <ele>1189.4</ele>
        <time>2024-08-18T14:47:53Z</time>
      </trkpt>
      <trkpt lat="44.85379" lon="6.57917">
        <ele>1189.5</ele>
        <time>2024-08-18T14:47:53Z</time>
      </trkpt>
      <trkpt lat="44.85376" lon="6.57914">
        <ele>1189</ele>
        <time>2024-08-18T14:47:53Z</time>
      </trkpt>
      <trkpt lat="44.85374" lon="6.57911">
        <ele>1188.7</ele>
        <time>2024-08-18T14:47:53Z</time>
      </trkpt>
      <trkpt lat="44.85368" lon="6.57904">
        <ele>1188.6</ele>
        <time>2024-08-18T14:47:53Z</time>
      </trkpt>
      <trkpt lat="44.85362" lon="6.57895">
        <ele>1188.8</ele>
        <time>2024-08-18T14:47:53Z</time>
      </trkpt>
      <trkpt lat="44.85357" lon="6.57889">
        <ele>1188.6</ele>
        <time>2024-08-18T14:47:53Z</time>
      </trkpt>
      <trkpt lat="44.85354" lon="6.57883">
        <ele>1189.4</ele>
        <time>2024-08-18T14:47:53Z</time>
      </trkpt>
      <trkpt lat="44.85351" lon="6.57877">
        <ele>1189.7</ele>
        <time>2024-08-18T14:47:53Z</time>
      </trkpt>
      <trkpt lat="44.85346" lon="6.57867">
        <ele>1190.5</ele>
        <time>2024-08-18T14:47:53Z</time>
      </trkpt>
      <trkpt lat="44.85342" lon="6.57858">
        <ele>1191.4</ele>
        <time>2024-08-18T14:47:53Z</time>
      </trkpt>
      <trkpt lat="44.85338" lon="6.57849">
        <ele>1193</ele>
        <time>2024-08-18T14:47:53Z</time>
      </trkpt>
      <trkpt lat="44.85335" lon="6.57842">
        <ele>1193.4</ele>
        <time>2024-08-18T14:47:53Z</time>
      </trkpt>
      <trkpt lat="44.85335" lon="6.57838">
        <ele>1194.1</ele>
        <time>2024-08-18T14:47:53Z</time>
      </trkpt>
      <trkpt lat="44.85334" lon="6.57834">
        <ele>1194.9</ele>
        <time>2024-08-18T14:47:53Z</time>
      </trkpt>
      <trkpt lat="44.85332" lon="6.57829">
        <ele>1195.8</ele>
        <time>2024-08-18T14:47:53Z</time>
      </trkpt>
      <trkpt lat="44.85329" lon="6.57826">
        <ele>1196.4</ele>
        <time>2024-08-18T14:47:53Z</time>
      </trkpt>
      <trkpt lat="44.85327" lon="6.57824">
        <ele>1196.2</ele>
        <time>2024-08-18T14:47:53Z</time>
      </trkpt>
      <trkpt lat="44.85321" lon="6.57821">
        <ele>1197</ele>
        <time>2024-08-18T14:47:53Z</time>
      </trkpt>
      <trkpt lat="44.85315" lon="6.57819">
        <ele>1197.8</ele>
        <time>2024-08-18T14:47:53Z</time>
      </trkpt>
      <trkpt lat="44.8531" lon="6.57817">
        <ele>1197.6</ele>
        <time>2024-08-18T14:47:53Z</time>
      </trkpt>
      <trkpt lat="44.85304" lon="6.57817">
        <ele>1197.5</ele>
        <time>2024-08-18T14:47:53Z</time>
      </trkpt>
      <trkpt lat="44.85295" lon="6.57816">
        <ele>1197.3</ele>
        <time>2024-08-18T14:47:53Z</time>
      </trkpt>
      <trkpt lat="44.8529" lon="6.57816">
        <ele>1197.2</ele>
        <time>2024-08-18T14:47:53Z</time>
      </trkpt>
      <trkpt lat="44.85283" lon="6.57818">
        <ele>1197</ele>
        <time>2024-08-18T14:47:53Z</time>
      </trkpt>
      <trkpt lat="44.85272" lon="6.5782">
        <ele>1196</ele>
        <time>2024-08-18T14:47:53Z</time>
      </trkpt>
      <trkpt lat="44.85261" lon="6.57821">
        <ele>1195.8</ele>
        <time>2024-08-18T14:47:53Z</time>
      </trkpt>
      <trkpt lat="44.85251" lon="6.57822">
        <ele>1195.8</ele>
        <time>2024-08-18T14:47:53Z</time>
      </trkpt>
      <trkpt lat="44.85246" lon="6.57823">
        <ele>1195.7</ele>
        <time>2024-08-18T14:47:53Z</time>
      </trkpt>
      <trkpt lat="44.85239" lon="6.57826">
        <ele>1195</ele>
        <time>2024-08-18T14:47:53Z</time>
      </trkpt>
      <trkpt lat="44.85231" lon="6.5783">
        <ele>1194.4</ele>
        <time>2024-08-18T14:47:53Z</time>
      </trkpt>
      <trkpt lat="44.85224" lon="6.57833">
        <ele>1193.7</ele>
        <time>2024-08-18T14:47:53Z</time>
      </trkpt>
      <trkpt lat="44.85216" lon="6.57835">
        <ele>1193.7</ele>
        <time>2024-08-18T14:47:53Z</time>
      </trkpt>
      <trkpt lat="44.85211" lon="6.57835">
        <ele>1193.7</ele>
        <time>2024-08-18T14:47:53Z</time>
      </trkpt>
      <trkpt lat="44.85205" lon="6.57835">
        <ele>1193.7</ele>
        <time>2024-08-18T14:47:53Z</time>
      </trkpt>
      <trkpt lat="44.85196" lon="6.57834">
        <ele>1193.6</ele>
        <time>2024-08-18T14:47:53Z</time>
      </trkpt>
      <trkpt lat="44.8518" lon="6.57831">
        <ele>1194.5</ele>
        <time>2024-08-18T14:47:53Z</time>
      </trkpt>
      <trkpt lat="44.85166" lon="6.57828">
        <ele>1194.6</ele>
        <time>2024-08-18T14:47:53Z</time>
      </trkpt>
      <trkpt lat="44.85153" lon="6.57826">
        <ele>1195.3</ele>
        <time>2024-08-18T14:47:53Z</time>
      </trkpt>
      <trkpt lat="44.85144" lon="6.57823">
        <ele>1195.9</ele>
        <time>2024-08-18T14:47:53Z</time>
      </trkpt>
      <trkpt lat="44.85133" lon="6.57818">
        <ele>1196.2</ele>
        <time>2024-08-18T14:47:53Z</time>
      </trkpt>
      <trkpt lat="44.85126" lon="6.57815">
        <ele>1196</ele>
        <time>2024-08-18T14:47:53Z</time>
      </trkpt>
      <trkpt lat="44.8512" lon="6.57813">
        <ele>1196.4</ele>
        <time>2024-08-18T14:47:53Z</time>
      </trkpt>
      <trkpt lat="44.85115" lon="6.57811">
        <ele>1196.2</ele>
        <time>2024-08-18T14:47:53Z</time>
      </trkpt>
      <trkpt lat="44.85111" lon="6.57808">
        <ele>1196.7</ele>
        <time>2024-08-18T14:47:53Z</time>
      </trkpt>
      <trkpt lat="44.85108" lon="6.57803">
        <ele>1197.2</ele>
        <time>2024-08-18T14:47:53Z</time>
      </trkpt>
      <trkpt lat="44.85105" lon="6.57798">
        <ele>1197.8</ele>
        <time>2024-08-18T14:47:53Z</time>
      </trkpt>
      <trkpt lat="44.85104" lon="6.57795">
        <ele>1198.3</ele>
        <time>2024-08-18T14:47:53Z</time>
      </trkpt>
      <trkpt lat="44.851" lon="6.57793">
        <ele>1198.9</ele>
        <time>2024-08-18T14:47:53Z</time>
      </trkpt>
      <trkpt lat="44.85096" lon="6.57793">
        <ele>1198.7</ele>
        <time>2024-08-18T14:47:53Z</time>
      </trkpt>
      <trkpt lat="44.85091" lon="6.57795">
        <ele>1197.6</ele>
        <time>2024-08-18T14:47:53Z</time>
      </trkpt>
      <trkpt lat="44.85085" lon="6.57797">
        <ele>1197.3</ele>
        <time>2024-08-18T14:47:53Z</time>
      </trkpt>
      <trkpt lat="44.85078" lon="6.57799">
        <ele>1196</ele>
        <time>2024-08-18T14:47:53Z</time>
      </trkpt>
      <trkpt lat="44.85074" lon="6.578">
        <ele>1195.6</ele>
        <time>2024-08-18T14:47:53Z</time>
      </trkpt>
      <trkpt lat="44.85067" lon="6.57799">
        <ele>1195.3</ele>
        <time>2024-08-18T14:47:53Z</time>
      </trkpt>
      <trkpt lat="44.8506" lon="6.57798">
        <ele>1194.6</ele>
        <time>2024-08-18T14:47:53Z</time>
      </trkpt>
      <trkpt lat="44.85053" lon="6.57798">
        <ele>1194.2</ele>
        <time>2024-08-18T14:47:53Z</time>
      </trkpt>
      <trkpt lat="44.85043" lon="6.57798">
        <ele>1193.1</ele>
        <time>2024-08-18T14:47:53Z</time>
      </trkpt>
      <trkpt lat="44.85035" lon="6.57798">
        <ele>1192.4</ele>
        <time>2024-08-18T14:47:53Z</time>
      </trkpt>
      <trkpt lat="44.85023" lon="6.57797">
        <ele>1192.3</ele>
        <time>2024-08-18T14:47:53Z</time>
      </trkpt>
      <trkpt lat="44.85009" lon="6.57795">
        <ele>1190.8</ele>
        <time>2024-08-18T14:47:53Z</time>
      </trkpt>
      <trkpt lat="44.84996" lon="6.57794">
        <ele>1189.7</ele>
        <time>2024-08-18T14:47:53Z</time>
      </trkpt>
      <trkpt lat="44.84984" lon="6.57793">
        <ele>1189.5</ele>
        <time>2024-08-18T14:47:53Z</time>
      </trkpt>
      <trkpt lat="44.84978" lon="6.57793">
        <ele>1188.8</ele>
        <time>2024-08-18T14:47:53Z</time>
      </trkpt>
      <trkpt lat="44.84971" lon="6.57792">
        <ele>1188</ele>
        <time>2024-08-18T14:47:53Z</time>
      </trkpt>
      <trkpt lat="44.84964" lon="6.57791">
        <ele>1187.6</ele>
        <time>2024-08-18T14:47:53Z</time>
      </trkpt>
      <trkpt lat="44.84958" lon="6.5779">
        <ele>1186.8</ele>
        <time>2024-08-18T14:47:53Z</time>
      </trkpt>
      <trkpt lat="44.84953" lon="6.57788">
        <ele>1186.8</ele>
        <time>2024-08-18T14:47:53Z</time>
      </trkpt>
      <trkpt lat="44.84948" lon="6.57785">
        <ele>1186.4</ele>
        <time>2024-08-18T14:47:53Z</time>
      </trkpt>
      <trkpt lat="44.84945" lon="6.57784">
        <ele>1186.4</ele>
        <time>2024-08-18T14:47:53Z</time>
      </trkpt>
      <trkpt lat="44.8494" lon="6.57782">
        <ele>1186</ele>
        <time>2024-08-18T14:47:53Z</time>
      </trkpt>
      <trkpt lat="44.84936" lon="6.5778">
        <ele>1186.1</ele>
        <time>2024-08-18T14:47:53Z</time>
      </trkpt>
      <trkpt lat="44.84932" lon="6.57777">
        <ele>1185.6</ele>
        <time>2024-08-18T14:47:53Z</time>
      </trkpt>
      <trkpt lat="44.84923" lon="6.5777">
        <ele>1185.6</ele>
        <time>2024-08-18T14:47:53Z</time>
      </trkpt>
      <trkpt lat="44.84916" lon="6.57763">
        <ele>1186</ele>
        <time>2024-08-18T14:47:53Z</time>
      </trkpt>
      <trkpt lat="44.84908" lon="6.57755">
        <ele>1185.3</ele>
        <time>2024-08-18T14:47:53Z</time>
      </trkpt>
      <trkpt lat="44.84903" lon="6.57748">
        <ele>1185.3</ele>
        <time>2024-08-18T14:47:53Z</time>
      </trkpt>
      <trkpt lat="44.84897" lon="6.57742">
        <ele>1184.5</ele>
        <time>2024-08-18T14:47:53Z</time>
      </trkpt>
      <trkpt lat="44.84893" lon="6.57736">
        <ele>1184.1</ele>
        <time>2024-08-18T14:47:53Z</time>
      </trkpt>
      <trkpt lat="44.84889" lon="6.57727">
        <ele>1183.9</ele>
        <time>2024-08-18T14:47:53Z</time>
      </trkpt>
      <trkpt lat="44.84885" lon="6.57719">
        <ele>1183.6</ele>
        <time>2024-08-18T14:47:53Z</time>
      </trkpt>
      <trkpt lat="44.8488" lon="6.57712">
        <ele>1183.2</ele>
        <time>2024-08-18T14:47:53Z</time>
      </trkpt>
      <trkpt lat="44.84875" lon="6.57707">
        <ele>1183</ele>
        <time>2024-08-18T14:47:53Z</time>
      </trkpt>
      <trkpt lat="44.84869" lon="6.57703">
        <ele>1182.6</ele>
        <time>2024-08-18T14:47:53Z</time>
      </trkpt>
      <trkpt lat="44.84863" lon="6.57698">
        <ele>1181.8</ele>
        <time>2024-08-18T14:47:53Z</time>
      </trkpt>
      <trkpt lat="44.84861" lon="6.57697">
        <ele>1181.8</ele>
        <time>2024-08-18T14:47:53Z</time>
      </trkpt>
      <trkpt lat="44.84855" lon="6.57694">
        <ele>1181.5</ele>
        <time>2024-08-18T14:47:53Z</time>
      </trkpt>
      <trkpt lat="44.84848" lon="6.57691">
        <ele>1181.1</ele>
        <time>2024-08-18T14:47:53Z</time>
      </trkpt>
      <trkpt lat="44.84841" lon="6.57689">
        <ele>1181.1</ele>
        <time>2024-08-18T14:47:53Z</time>
      </trkpt>
      <trkpt lat="44.84831" lon="6.57687">
        <ele>1180.4</ele>
        <time>2024-08-18T14:47:53Z</time>
      </trkpt>
      <trkpt lat="44.84822" lon="6.57685">
        <ele>1180.8</ele>
        <time>2024-08-18T14:47:53Z</time>
      </trkpt>
      <trkpt lat="44.84811" lon="6.57684">
        <ele>1180.2</ele>
        <time>2024-08-18T14:47:53Z</time>
      </trkpt>
      <trkpt lat="44.84806" lon="6.57683">
        <ele>1180.1</ele>
        <time>2024-08-18T14:47:53Z</time>
      </trkpt>
      <trkpt lat="44.84804" lon="6.57683">
        <ele>1180.1</ele>
        <time>2024-08-18T14:47:53Z</time>
      </trkpt>
      <trkpt lat="44.848" lon="6.57684">
        <ele>1180.1</ele>
        <time>2024-08-18T14:47:53Z</time>
      </trkpt>
      <trkpt lat="44.84795" lon="6.57686">
        <ele>1180.2</ele>
        <time>2024-08-18T14:47:53Z</time>
      </trkpt>
      <trkpt lat="44.84789" lon="6.57688">
        <ele>1179.2</ele>
        <time>2024-08-18T14:47:53Z</time>
      </trkpt>
      <trkpt lat="44.84783" lon="6.57693">
        <ele>1178.2</ele>
        <time>2024-08-18T14:47:53Z</time>
      </trkpt>
      <trkpt lat="44.84779" lon="6.57696">
        <ele>1177.3</ele>
        <time>2024-08-18T14:47:53Z</time>
      </trkpt>
      <trkpt lat="44.84776" lon="6.57699">
        <ele>1177.5</ele>
        <time>2024-08-18T14:47:53Z</time>
      </trkpt>
      <trkpt lat="44.8477" lon="6.57702">
        <ele>1176.6</ele>
        <time>2024-08-18T14:47:53Z</time>
      </trkpt>
      <trkpt lat="44.84762" lon="6.57705">
        <ele>1175.9</ele>
        <time>2024-08-18T14:47:53Z</time>
      </trkpt>
      <trkpt lat="44.84753" lon="6.57708">
        <ele>1175.1</ele>
        <time>2024-08-18T14:47:53Z</time>
      </trkpt>
      <trkpt lat="44.84747" lon="6.57713">
        <ele>1174.4</ele>
        <time>2024-08-18T14:47:53Z</time>
      </trkpt>
      <trkpt lat="44.84742" lon="6.57717">
        <ele>1173.5</ele>
        <time>2024-08-18T14:47:53Z</time>
      </trkpt>
      <trkpt lat="44.84738" lon="6.57719">
        <ele>1173.5</ele>
        <time>2024-08-18T14:47:53Z</time>
      </trkpt>
      <trkpt lat="44.84733" lon="6.5772">
        <ele>1173.5</ele>
        <time>2024-08-18T14:47:53Z</time>
      </trkpt>
      <trkpt lat="44.84727" lon="6.57721">
        <ele>1172.5</ele>
        <time>2024-08-18T14:47:53Z</time>
      </trkpt>
      <trkpt lat="44.84718" lon="6.57722">
        <ele>1172.5</ele>
        <time>2024-08-18T14:47:53Z</time>
      </trkpt>
      <trkpt lat="44.8471" lon="6.57725">
        <ele>1171.4</ele>
        <time>2024-08-18T14:47:53Z</time>
      </trkpt>
      <trkpt lat="44.84704" lon="6.57727">
        <ele>1171.5</ele>
        <time>2024-08-18T14:47:53Z</time>
      </trkpt>
      <trkpt lat="44.84697" lon="6.57728">
        <ele>1171.6</ele>
        <time>2024-08-18T14:47:53Z</time>
      </trkpt>
      <trkpt lat="44.84687" lon="6.57728">
        <ele>1172</ele>
        <time>2024-08-18T14:47:53Z</time>
      </trkpt>
      <trkpt lat="44.8467" lon="6.57728">
        <ele>1172.8</ele>
        <time>2024-08-18T14:47:53Z</time>
      </trkpt>
      <trkpt lat="44.84638" lon="6.57728">
        <ele>1174.6</ele>
        <time>2024-08-18T14:47:53Z</time>
      </trkpt>
      <trkpt lat="44.84608" lon="6.57731">
        <ele>1175.2</ele>
        <time>2024-08-18T14:47:53Z</time>
      </trkpt>
      <trkpt lat="44.8458" lon="6.57733">
        <ele>1177.7</ele>
        <time>2024-08-18T14:47:53Z</time>
      </trkpt>
      <trkpt lat="44.84569" lon="6.57733">
        <ele>1178.5</ele>
        <time>2024-08-18T14:47:53Z</time>
      </trkpt>
      <trkpt lat="44.8456" lon="6.57734">
        <ele>1177.9</ele>
        <time>2024-08-18T14:47:53Z</time>
      </trkpt>
      <trkpt lat="44.8454" lon="6.57735">
        <ele>1179.9</ele>
        <time>2024-08-18T14:47:53Z</time>
      </trkpt>
      <trkpt lat="44.84504" lon="6.57737">
        <ele>1182.9</ele>
        <time>2024-08-18T14:47:53Z</time>
      </trkpt>
      <trkpt lat="44.84472" lon="6.57742">
        <ele>1184.1</ele>
        <time>2024-08-18T14:47:53Z</time>
      </trkpt>
      <trkpt lat="44.84462" lon="6.57743">
        <ele>1183.1</ele>
        <time>2024-08-18T14:47:53Z</time>
      </trkpt>
      <trkpt lat="44.84453" lon="6.57743">
        <ele>1183.6</ele>
        <time>2024-08-18T14:47:53Z</time>
      </trkpt>
      <trkpt lat="44.84445" lon="6.5774">
        <ele>1185.8</ele>
        <time>2024-08-18T14:47:53Z</time>
      </trkpt>
      <trkpt lat="44.84431" lon="6.57737">
        <ele>1188.4</ele>
        <time>2024-08-18T14:47:53Z</time>
      </trkpt>
      <trkpt lat="44.84414" lon="6.57731">
        <ele>1191.4</ele>
        <time>2024-08-18T14:47:53Z</time>
      </trkpt>
      <trkpt lat="44.84395" lon="6.57727">
        <ele>1195</ele>
        <time>2024-08-18T14:47:53Z</time>
      </trkpt>
      <trkpt lat="44.84377" lon="6.57722">
        <ele>1198.1</ele>
        <time>2024-08-18T14:47:53Z</time>
      </trkpt>
      <trkpt lat="44.84367" lon="6.57722">
        <ele>1198.6</ele>
        <time>2024-08-18T14:47:53Z</time>
      </trkpt>
      <trkpt lat="44.84356" lon="6.57723">
        <ele>1199.3</ele>
        <time>2024-08-18T14:47:53Z</time>
      </trkpt>
      <trkpt lat="44.84348" lon="6.57725">
        <ele>1198.1</ele>
        <time>2024-08-18T14:47:53Z</time>
      </trkpt>
      <trkpt lat="44.8434" lon="6.5773">
        <ele>1196.8</ele>
        <time>2024-08-18T14:47:53Z</time>
      </trkpt>
      <trkpt lat="44.84335" lon="6.57731">
        <ele>1196.9</ele>
        <time>2024-08-18T14:47:53Z</time>
      </trkpt>
      <trkpt lat="44.8433" lon="6.57732">
        <ele>1196.9</ele>
        <time>2024-08-18T14:47:53Z</time>
      </trkpt>
      <trkpt lat="44.84324" lon="6.57731">
        <ele>1197</ele>
        <time>2024-08-18T14:47:53Z</time>
      </trkpt>
      <trkpt lat="44.84317" lon="6.57728">
        <ele>1198.4</ele>
        <time>2024-08-18T14:47:53Z</time>
      </trkpt>
      <trkpt lat="44.84309" lon="6.57722">
        <ele>1199.7</ele>
        <time>2024-08-18T14:47:53Z</time>
      </trkpt>
      <trkpt lat="44.843" lon="6.57713">
        <ele>1202.4</ele>
        <time>2024-08-18T14:47:53Z</time>
      </trkpt>
      <trkpt lat="44.84294" lon="6.57709">
        <ele>1203.8</ele>
        <time>2024-08-18T14:47:53Z</time>
      </trkpt>
      <trkpt lat="44.84289" lon="6.57707">
        <ele>1205.4</ele>
        <time>2024-08-18T14:47:53Z</time>
      </trkpt>
      <trkpt lat="44.8428" lon="6.57706">
        <ele>1206.1</ele>
        <time>2024-08-18T14:47:53Z</time>
      </trkpt>
      <trkpt lat="44.84272" lon="6.57708">
        <ele>1205.1</ele>
        <time>2024-08-18T14:47:53Z</time>
      </trkpt>
      <trkpt lat="44.84258" lon="6.57713">
        <ele>1206</ele>
        <time>2024-08-18T14:47:53Z</time>
      </trkpt>
      <trkpt lat="44.84239" lon="6.57718">
        <ele>1207.7</ele>
        <time>2024-08-18T14:47:53Z</time>
      </trkpt>
      <trkpt lat="44.84225" lon="6.5772">
        <ele>1209.6</ele>
        <time>2024-08-18T14:47:53Z</time>
      </trkpt>
      <trkpt lat="44.84208" lon="6.57719">
        <ele>1211.1</ele>
        <time>2024-08-18T14:47:53Z</time>
      </trkpt>
      <trkpt lat="44.84196" lon="6.57716">
        <ele>1212</ele>
        <time>2024-08-18T14:47:53Z</time>
      </trkpt>
      <trkpt lat="44.84185" lon="6.57717">
        <ele>1211.3</ele>
        <time>2024-08-18T14:47:53Z</time>
      </trkpt>
      <trkpt lat="44.84178" lon="6.57718">
        <ele>1211.9</ele>
        <time>2024-08-18T14:47:53Z</time>
      </trkpt>
      <trkpt lat="44.84173" lon="6.57721">
        <ele>1212.2</ele>
        <time>2024-08-18T14:47:53Z</time>
      </trkpt>
      <trkpt lat="44.84168" lon="6.57727">
        <ele>1213.8</ele>
        <time>2024-08-18T14:47:53Z</time>
      </trkpt>
      <trkpt lat="44.84163" lon="6.57735">
        <ele>1214.1</ele>
        <time>2024-08-18T14:47:53Z</time>
      </trkpt>
      <trkpt lat="44.84159" lon="6.57745">
        <ele>1214.2</ele>
        <time>2024-08-18T14:47:53Z</time>
      </trkpt>
      <trkpt lat="44.84154" lon="6.57752">
        <ele>1213.6</ele>
        <time>2024-08-18T14:47:53Z</time>
      </trkpt>
      <trkpt lat="44.84149" lon="6.57759">
        <ele>1213.6</ele>
        <time>2024-08-18T14:47:53Z</time>
      </trkpt>
      <trkpt lat="44.84141" lon="6.57765">
        <ele>1213.2</ele>
        <time>2024-08-18T14:47:53Z</time>
      </trkpt>
      <trkpt lat="44.84133" lon="6.57767">
        <ele>1214.6</ele>
        <time>2024-08-18T14:47:53Z</time>
      </trkpt>
      <trkpt lat="44.84124" lon="6.57767">
        <ele>1215.4</ele>
        <time>2024-08-18T14:47:53Z</time>
      </trkpt>
      <trkpt lat="44.84112" lon="6.57766">
        <ele>1215.9</ele>
        <time>2024-08-18T14:47:53Z</time>
      </trkpt>
      <trkpt lat="44.84096" lon="6.57763">
        <ele>1217</ele>
        <time>2024-08-18T14:47:53Z</time>
      </trkpt>
      <trkpt lat="44.84082" lon="6.5776">
        <ele>1216.5</ele>
        <time>2024-08-18T14:47:53Z</time>
      </trkpt>
      <trkpt lat="44.8407" lon="6.57755">
        <ele>1217.2</ele>
        <time>2024-08-18T14:47:53Z</time>
      </trkpt>
      <trkpt lat="44.84062" lon="6.57749">
        <ele>1218.7</ele>
        <time>2024-08-18T14:47:53Z</time>
      </trkpt>
      <trkpt lat="44.84054" lon="6.57743">
        <ele>1218.6</ele>
        <time>2024-08-18T14:47:53Z</time>
      </trkpt>
      <trkpt lat="44.84048" lon="6.57737">
        <ele>1218.8</ele>
        <time>2024-08-18T14:47:53Z</time>
      </trkpt>
      <trkpt lat="44.84041" lon="6.57726">
        <ele>1219</ele>
        <time>2024-08-18T14:47:53Z</time>
      </trkpt>
      <trkpt lat="44.84034" lon="6.5771">
        <ele>1219.9</ele>
        <time>2024-08-18T14:47:53Z</time>
      </trkpt>
      <trkpt lat="44.84027" lon="6.57697">
        <ele>1220.9</ele>
        <time>2024-08-18T14:47:53Z</time>
      </trkpt>
      <trkpt lat="44.8402" lon="6.57687">
        <ele>1221.4</ele>
        <time>2024-08-18T14:47:53Z</time>
      </trkpt>
      <trkpt lat="44.84019" lon="6.57685">
        <ele>1221.7</ele>
        <time>2024-08-18T14:47:53Z</time>
      </trkpt>
      <trkpt lat="44.84015" lon="6.5768">
        <ele>1222.7</ele>
        <time>2024-08-18T14:47:53Z</time>
      </trkpt>
      <trkpt lat="44.84008" lon="6.57674">
        <ele>1223.7</ele>
        <time>2024-08-18T14:47:53Z</time>
      </trkpt>
      <trkpt lat="44.84004" lon="6.57673">
        <ele>1224.4</ele>
        <time>2024-08-18T14:47:53Z</time>
      </trkpt>
      <trkpt lat="44.83998" lon="6.57672">
        <ele>1224.3</ele>
        <time>2024-08-18T14:47:53Z</time>
      </trkpt>
      <trkpt lat="44.83989" lon="6.57671">
        <ele>1224.5</ele>
        <time>2024-08-18T14:47:53Z</time>
      </trkpt>
      <trkpt lat="44.83977" lon="6.57673">
        <ele>1225.7</ele>
        <time>2024-08-18T14:47:53Z</time>
      </trkpt>
      <trkpt lat="44.83955" lon="6.5768">
        <ele>1225.6</ele>
        <time>2024-08-18T14:47:53Z</time>
      </trkpt>
      <trkpt lat="44.83926" lon="6.57689">
        <ele>1225.7</ele>
        <time>2024-08-18T14:47:53Z</time>
      </trkpt>
      <trkpt lat="44.83919" lon="6.57691">
        <ele>1225</ele>
        <time>2024-08-18T14:47:53Z</time>
      </trkpt>
      <trkpt lat="44.83915" lon="6.57692">
        <ele>1225.1</ele>
        <time>2024-08-18T14:47:53Z</time>
      </trkpt>
      <trkpt lat="44.83907" lon="6.57692">
        <ele>1225.2</ele>
        <time>2024-08-18T14:47:53Z</time>
      </trkpt>
      <trkpt lat="44.83897" lon="6.57691">
        <ele>1225.6</ele>
        <time>2024-08-18T14:47:53Z</time>
      </trkpt>
      <trkpt lat="44.83886" lon="6.57688">
        <ele>1226.7</ele>
        <time>2024-08-18T14:47:53Z</time>
      </trkpt>
      <trkpt lat="44.83871" lon="6.57685">
        <ele>1227.8</ele>
        <time>2024-08-18T14:47:53Z</time>
      </trkpt>
      <trkpt lat="44.83864" lon="6.57683">
        <ele>1227.7</ele>
        <time>2024-08-18T14:47:53Z</time>
      </trkpt>
      <trkpt lat="44.83855" lon="6.57682">
        <ele>1227</ele>
        <time>2024-08-18T14:47:53Z</time>
      </trkpt>
      <trkpt lat="44.83847" lon="6.5768">
        <ele>1227.7</ele>
        <time>2024-08-18T14:47:53Z</time>
      </trkpt>
      <trkpt lat="44.83839" lon="6.57677">
        <ele>1228</ele>
        <time>2024-08-18T14:47:53Z</time>
      </trkpt>
      <trkpt lat="44.83831" lon="6.57671">
        <ele>1228</ele>
        <time>2024-08-18T14:47:53Z</time>
      </trkpt>
      <trkpt lat="44.83829" lon="6.57669">
        <ele>1228.5</ele>
        <time>2024-08-18T14:47:53Z</time>
      </trkpt>
      <trkpt lat="44.83816" lon="6.57655">
        <ele>1229.2</ele>
        <time>2024-08-18T14:47:53Z</time>
      </trkpt>
      <trkpt lat="44.83806" lon="6.57643">
        <ele>1230.3</ele>
        <time>2024-08-18T14:47:53Z</time>
      </trkpt>
      <trkpt lat="44.838" lon="6.57633">
        <ele>1231.1</ele>
        <time>2024-08-18T14:47:53Z</time>
      </trkpt>
      <trkpt lat="44.83795" lon="6.57622">
        <ele>1229.8</ele>
        <time>2024-08-18T14:47:53Z</time>
      </trkpt>
      <trkpt lat="44.83791" lon="6.57612">
        <ele>1233</ele>
        <time>2024-08-18T14:47:53Z</time>
      </trkpt>
      <trkpt lat="44.83788" lon="6.57605">
        <ele>1233</ele>
        <time>2024-08-18T14:47:53Z</time>
      </trkpt>
      <trkpt lat="44.83784" lon="6.57601">
        <ele>1233.9</ele>
        <time>2024-08-18T14:47:53Z</time>
      </trkpt>
      <trkpt lat="44.8378" lon="6.576">
        <ele>1235.6</ele>
        <time>2024-08-18T14:47:53Z</time>
      </trkpt>
      <trkpt lat="44.83775" lon="6.576">
        <ele>1235.8</ele>
        <time>2024-08-18T14:47:53Z</time>
      </trkpt>
      <trkpt lat="44.83757" lon="6.57604">
        <ele>1235.2</ele>
        <time>2024-08-18T14:47:53Z</time>
      </trkpt>
      <trkpt lat="44.83739" lon="6.5761">
        <ele>1233.7</ele>
        <time>2024-08-18T14:47:53Z</time>
      </trkpt>
      <trkpt lat="44.83717" lon="6.57614">
        <ele>1235.7</ele>
        <time>2024-08-18T14:47:53Z</time>
      </trkpt>
      <trkpt lat="44.83703" lon="6.57615">
        <ele>1236.3</ele>
        <time>2024-08-18T14:47:53Z</time>
      </trkpt>
      <trkpt lat="44.83692" lon="6.57614">
        <ele>1235.9</ele>
        <time>2024-08-18T14:47:53Z</time>
      </trkpt>
      <trkpt lat="44.83682" lon="6.57613">
        <ele>1237.2</ele>
        <time>2024-08-18T14:47:53Z</time>
      </trkpt>
      <trkpt lat="44.83672" lon="6.57609">
        <ele>1235.7</ele>
        <time>2024-08-18T14:47:53Z</time>
      </trkpt>
      <trkpt lat="44.83665" lon="6.57604">
        <ele>1238</ele>
        <time>2024-08-18T14:47:53Z</time>
      </trkpt>
      <trkpt lat="44.83657" lon="6.57597">
        <ele>1238.5</ele>
        <time>2024-08-18T14:47:53Z</time>
      </trkpt>
      <trkpt lat="44.83649" lon="6.57594">
        <ele>1239.7</ele>
        <time>2024-08-18T14:47:53Z</time>
      </trkpt>
      <trkpt lat="44.83637" lon="6.57591">
        <ele>1241.6</ele>
        <time>2024-08-18T14:47:53Z</time>
      </trkpt>
      <trkpt lat="44.83624" lon="6.5759">
        <ele>1241.5</ele>
        <time>2024-08-18T14:47:53Z</time>
      </trkpt>
      <trkpt lat="44.83605" lon="6.5759">
        <ele>1242.4</ele>
        <time>2024-08-18T14:47:53Z</time>
      </trkpt>
      <trkpt lat="44.83588" lon="6.57594">
        <ele>1243.8</ele>
        <time>2024-08-18T14:47:53Z</time>
      </trkpt>
      <trkpt lat="44.8357" lon="6.57596">
        <ele>1247.3</ele>
        <time>2024-08-18T14:47:53Z</time>
      </trkpt>
      <trkpt lat="44.83551" lon="6.57599">
        <ele>1246.3</ele>
        <time>2024-08-18T14:47:53Z</time>
      </trkpt>
      <trkpt lat="44.83538" lon="6.57601">
        <ele>1244.8</ele>
        <time>2024-08-18T14:47:53Z</time>
      </trkpt>
      <trkpt lat="44.8353" lon="6.576">
        <ele>1248.2</ele>
        <time>2024-08-18T14:47:53Z</time>
      </trkpt>
      <trkpt lat="44.83519" lon="6.57599">
        <ele>1248.4</ele>
        <time>2024-08-18T14:47:53Z</time>
      </trkpt>
      <trkpt lat="44.83512" lon="6.57596">
        <ele>1250.4</ele>
        <time>2024-08-18T14:47:53Z</time>
      </trkpt>
      <trkpt lat="44.83505" lon="6.57591">
        <ele>1250.5</ele>
        <time>2024-08-18T14:47:53Z</time>
      </trkpt>
      <trkpt lat="44.83498" lon="6.57586">
        <ele>1248.9</ele>
        <time>2024-08-18T14:47:53Z</time>
      </trkpt>
      <trkpt lat="44.83493" lon="6.57579">
        <ele>1248.2</ele>
        <time>2024-08-18T14:47:53Z</time>
      </trkpt>
      <trkpt lat="44.83488" lon="6.57569">
        <ele>1249.7</ele>
        <time>2024-08-18T14:47:53Z</time>
      </trkpt>
      <trkpt lat="44.83483" lon="6.57557">
        <ele>1250.8</ele>
        <time>2024-08-18T14:47:53Z</time>
      </trkpt>
      <trkpt lat="44.83478" lon="6.57544">
        <ele>1251.6</ele>
        <time>2024-08-18T14:47:53Z</time>
      </trkpt>
      <trkpt lat="44.83474" lon="6.57533">
        <ele>1250.9</ele>
        <time>2024-08-18T14:47:53Z</time>
      </trkpt>
      <trkpt lat="44.83469" lon="6.57522">
        <ele>1249.6</ele>
        <time>2024-08-18T14:47:53Z</time>
      </trkpt>
      <trkpt lat="44.83464" lon="6.57514">
        <ele>1250.7</ele>
        <time>2024-08-18T14:47:53Z</time>
      </trkpt>
      <trkpt lat="44.83457" lon="6.57506">
        <ele>1250.3</ele>
        <time>2024-08-18T14:47:53Z</time>
      </trkpt>
      <trkpt lat="44.83451" lon="6.57501">
        <ele>1250.6</ele>
        <time>2024-08-18T14:47:53Z</time>
      </trkpt>
      <trkpt lat="44.83443" lon="6.57496">
        <ele>1249.8</ele>
        <time>2024-08-18T14:47:53Z</time>
      </trkpt>
      <trkpt lat="44.83433" lon="6.57491">
        <ele>1249.6</ele>
        <time>2024-08-18T14:47:53Z</time>
      </trkpt>
      <trkpt lat="44.83424" lon="6.57486">
        <ele>1249.7</ele>
        <time>2024-08-18T14:47:53Z</time>
      </trkpt>
      <trkpt lat="44.83412" lon="6.57483">
        <ele>1250.2</ele>
        <time>2024-08-18T14:47:53Z</time>
      </trkpt>
      <trkpt lat="44.83397" lon="6.5748">
        <ele>1250.6</ele>
        <time>2024-08-18T14:47:53Z</time>
      </trkpt>
      <trkpt lat="44.83379" lon="6.57473">
        <ele>1249.5</ele>
        <time>2024-08-18T14:47:53Z</time>
      </trkpt>
      <trkpt lat="44.83367" lon="6.57465">
        <ele>1251.7</ele>
        <time>2024-08-18T14:47:53Z</time>
      </trkpt>
      <trkpt lat="44.83358" lon="6.5746">
        <ele>1252.9</ele>
        <time>2024-08-18T14:47:53Z</time>
      </trkpt>
      <trkpt lat="44.8335" lon="6.57457">
        <ele>1253.8</ele>
        <time>2024-08-18T14:47:53Z</time>
      </trkpt>
      <trkpt lat="44.83339" lon="6.57454">
        <ele>1253</ele>
        <time>2024-08-18T14:47:53Z</time>
      </trkpt>
      <trkpt lat="44.83325" lon="6.57452">
        <ele>1250.9</ele>
        <time>2024-08-18T14:47:53Z</time>
      </trkpt>
      <trkpt lat="44.83305" lon="6.57447">
        <ele>1252</ele>
        <time>2024-08-18T14:47:53Z</time>
      </trkpt>
      <trkpt lat="44.83282" lon="6.57443">
        <ele>1251.8</ele>
        <time>2024-08-18T14:47:53Z</time>
      </trkpt>
      <trkpt lat="44.83253" lon="6.57436">
        <ele>1252.6</ele>
        <time>2024-08-18T14:47:53Z</time>
      </trkpt>
      <trkpt lat="44.83231" lon="6.57428">
        <ele>1253.8</ele>
        <time>2024-08-18T14:47:53Z</time>
      </trkpt>
      <trkpt lat="44.83211" lon="6.5742">
        <ele>1253.9</ele>
        <time>2024-08-18T14:47:53Z</time>
      </trkpt>
      <trkpt lat="44.832" lon="6.57418">
        <ele>1252.2</ele>
        <time>2024-08-18T14:47:53Z</time>
      </trkpt>
      <trkpt lat="44.83186" lon="6.57415">
        <ele>1252.7</ele>
        <time>2024-08-18T14:47:53Z</time>
      </trkpt>
      <trkpt lat="44.83161" lon="6.57408">
        <ele>1250.4</ele>
        <time>2024-08-18T14:47:53Z</time>
      </trkpt>
      <trkpt lat="44.83149" lon="6.57403">
        <ele>1249.7</ele>
        <time>2024-08-18T14:47:53Z</time>
      </trkpt>
      <trkpt lat="44.83138" lon="6.57396">
        <ele>1250</ele>
        <time>2024-08-18T14:47:53Z</time>
      </trkpt>
      <trkpt lat="44.83131" lon="6.5739">
        <ele>1252</ele>
        <time>2024-08-18T14:47:53Z</time>
      </trkpt>
      <trkpt lat="44.83123" lon="6.57381">
        <ele>1251.7</ele>
        <time>2024-08-18T14:47:53Z</time>
      </trkpt>
      <trkpt lat="44.83112" lon="6.57369">
        <ele>1248.4</ele>
        <time>2024-08-18T14:47:53Z</time>
      </trkpt>
      <trkpt lat="44.83107" lon="6.5736">
        <ele>1250.5</ele>
        <time>2024-08-18T14:47:53Z</time>
      </trkpt>
      <trkpt lat="44.83101" lon="6.57348">
        <ele>1250.7</ele>
        <time>2024-08-18T14:47:53Z</time>
      </trkpt>
      <trkpt lat="44.83097" lon="6.57338">
        <ele>1252.5</ele>
        <time>2024-08-18T14:47:53Z</time>
      </trkpt>
      <trkpt lat="44.83093" lon="6.57331">
        <ele>1250.8</ele>
        <time>2024-08-18T14:47:53Z</time>
      </trkpt>
      <trkpt lat="44.83089" lon="6.57322">
        <ele>1250.8</ele>
        <time>2024-08-18T14:47:53Z</time>
      </trkpt>
      <trkpt lat="44.83083" lon="6.57312">
        <ele>1253.2</ele>
        <time>2024-08-18T14:47:53Z</time>
      </trkpt>
      <trkpt lat="44.83078" lon="6.57306">
        <ele>1250.5</ele>
        <time>2024-08-18T14:47:53Z</time>
      </trkpt>
      <trkpt lat="44.83072" lon="6.573">
        <ele>1250.6</ele>
        <time>2024-08-18T14:47:53Z</time>
      </trkpt>
      <trkpt lat="44.83065" lon="6.57294">
        <ele>1251.8</ele>
        <time>2024-08-18T14:47:53Z</time>
      </trkpt>
      <trkpt lat="44.83056" lon="6.5729">
        <ele>1250.9</ele>
        <time>2024-08-18T14:47:53Z</time>
      </trkpt>
      <trkpt lat="44.83049" lon="6.57288">
        <ele>1249.3</ele>
        <time>2024-08-18T14:47:53Z</time>
      </trkpt>
      <trkpt lat="44.83043" lon="6.57285">
        <ele>1248.5</ele>
        <time>2024-08-18T14:47:53Z</time>
      </trkpt>
      <trkpt lat="44.83039" lon="6.57282">
        <ele>1248.7</ele>
        <time>2024-08-18T14:47:53Z</time>
      </trkpt>
      <trkpt lat="44.83036" lon="6.57278">
        <ele>1250.8</ele>
        <time>2024-08-18T14:47:53Z</time>
      </trkpt>
      <trkpt lat="44.83036" lon="6.57276">
        <ele>1250.8</ele>
        <time>2024-08-18T14:47:53Z</time>
      </trkpt>
      <trkpt lat="44.83025" lon="6.57258">
        <ele>1249.6</ele>
        <time>2024-08-18T14:47:53Z</time>
      </trkpt>
      <trkpt lat="44.83014" lon="6.57241">
        <ele>1247.7</ele>
        <time>2024-08-18T14:47:53Z</time>
      </trkpt>
      <trkpt lat="44.83006" lon="6.57232">
        <ele>1248.4</ele>
        <time>2024-08-18T14:47:53Z</time>
      </trkpt>
      <trkpt lat="44.82997" lon="6.57228">
        <ele>1247.6</ele>
        <time>2024-08-18T14:47:53Z</time>
      </trkpt>
      <trkpt lat="44.82983" lon="6.57219">
        <ele>1246.6</ele>
        <time>2024-08-18T14:47:53Z</time>
      </trkpt>
      <trkpt lat="44.82967" lon="6.57203">
        <ele>1250</ele>
        <time>2024-08-18T14:47:53Z</time>
      </trkpt>
      <trkpt lat="44.82955" lon="6.57186">
        <ele>1250.3</ele>
        <time>2024-08-18T14:47:53Z</time>
      </trkpt>
      <trkpt lat="44.82943" lon="6.57164">
        <ele>1251.3</ele>
        <time>2024-08-18T14:47:53Z</time>
      </trkpt>
      <trkpt lat="44.82936" lon="6.57155">
        <ele>1249.7</ele>
        <time>2024-08-18T14:47:53Z</time>
      </trkpt>
      <trkpt lat="44.82928" lon="6.57149">
        <ele>1251.9</ele>
        <time>2024-08-18T14:47:53Z</time>
      </trkpt>
      <trkpt lat="44.82904" lon="6.57141">
        <ele>1252.7</ele>
        <time>2024-08-18T14:47:53Z</time>
      </trkpt>
      <trkpt lat="44.82888" lon="6.57137">
        <ele>1251.2</ele>
        <time>2024-08-18T14:47:53Z</time>
      </trkpt>
      <trkpt lat="44.82878" lon="6.57139">
        <ele>1251.4</ele>
        <time>2024-08-18T14:47:53Z</time>
      </trkpt>
      <trkpt lat="44.82867" lon="6.57143">
        <ele>1249.8</ele>
        <time>2024-08-18T14:47:53Z</time>
      </trkpt>
      <trkpt lat="44.8286" lon="6.57144">
        <ele>1249.7</ele>
        <time>2024-08-18T14:47:53Z</time>
      </trkpt>
      <trkpt lat="44.8285" lon="6.57143">
        <ele>1248.2</ele>
        <time>2024-08-18T14:47:53Z</time>
      </trkpt>
      <trkpt lat="44.82834" lon="6.57136">
        <ele>1248.7</ele>
        <time>2024-08-18T14:47:53Z</time>
      </trkpt>
      <trkpt lat="44.82813" lon="6.57126">
        <ele>1247.6</ele>
        <time>2024-08-18T14:47:53Z</time>
      </trkpt>
      <trkpt lat="44.82807" lon="6.57125">
        <ele>1246.1</ele>
        <time>2024-08-18T14:47:53Z</time>
      </trkpt>
      <trkpt lat="44.82813" lon="6.57126">
        <ele>1247.6</ele>
        <time>2024-08-18T14:47:53Z</time>
      </trkpt>
      <trkpt lat="44.82805" lon="6.57117">
        <ele>1248.3</ele>
        <time>2024-08-18T14:47:53Z</time>
      </trkpt>
      <trkpt lat="44.82793" lon="6.57111">
        <ele>1248.9</ele>
        <time>2024-08-18T14:47:53Z</time>
      </trkpt>
      <trkpt lat="44.82775" lon="6.57107">
        <ele>1247.8</ele>
        <time>2024-08-18T14:47:53Z</time>
      </trkpt>
      <trkpt lat="44.82763" lon="6.57103">
        <ele>1248.2</ele>
        <time>2024-08-18T14:47:53Z</time>
      </trkpt>
      <trkpt lat="44.82755" lon="6.57097">
        <ele>1249.5</ele>
        <time>2024-08-18T14:47:53Z</time>
      </trkpt>
      <trkpt lat="44.8275" lon="6.5709">
        <ele>1249.7</ele>
        <time>2024-08-18T14:47:53Z</time>
      </trkpt>
      <trkpt lat="44.82748" lon="6.5708">
        <ele>1251</ele>
        <time>2024-08-18T14:47:53Z</time>
      </trkpt>
      <trkpt lat="44.82748" lon="6.57069">
        <ele>1252</ele>
        <time>2024-08-18T14:47:53Z</time>
      </trkpt>
      <trkpt lat="44.8275" lon="6.57044">
        <ele>1255.5</ele>
        <time>2024-08-18T14:47:53Z</time>
      </trkpt>
      <trkpt lat="44.82752" lon="6.5703">
        <ele>1256.3</ele>
        <time>2024-08-18T14:47:53Z</time>
      </trkpt>
      <trkpt lat="44.82763" lon="6.56997">
        <ele>1259.4</ele>
        <time>2024-08-18T14:47:53Z</time>
      </trkpt>
      <trkpt lat="44.82769" lon="6.56982">
        <ele>1261</ele>
        <time>2024-08-18T14:47:53Z</time>
      </trkpt>
      <trkpt lat="44.82771" lon="6.56976">
        <ele>1262.8</ele>
        <time>2024-08-18T14:47:53Z</time>
      </trkpt>
      <trkpt lat="44.82772" lon="6.56969">
        <ele>1264.1</ele>
        <time>2024-08-18T14:47:53Z</time>
      </trkpt>
      <trkpt lat="44.8277" lon="6.5696">
        <ele>1265.5</ele>
        <time>2024-08-18T14:47:53Z</time>
      </trkpt>
      <trkpt lat="44.82764" lon="6.56943">
        <ele>1264.7</ele>
        <time>2024-08-18T14:47:53Z</time>
      </trkpt>
      <trkpt lat="44.82758" lon="6.56918">
        <ele>1267.9</ele>
        <time>2024-08-18T14:47:53Z</time>
      </trkpt>
      <trkpt lat="44.82751" lon="6.56886">
        <ele>1270</ele>
        <time>2024-08-18T14:47:53Z</time>
      </trkpt>
      <trkpt lat="44.82737" lon="6.56842">
        <ele>1275.6</ele>
        <time>2024-08-18T14:47:53Z</time>
      </trkpt>
      <trkpt lat="44.82736" lon="6.56838">
        <ele>1276.7</ele>
        <time>2024-08-18T14:47:53Z</time>
      </trkpt>
      <trkpt lat="44.82728" lon="6.56811">
        <ele>1279.8</ele>
        <time>2024-08-18T14:47:53Z</time>
      </trkpt>
      <trkpt lat="44.82716" lon="6.56787">
        <ele>1281.7</ele>
        <time>2024-08-18T14:47:53Z</time>
      </trkpt>
      <trkpt lat="44.82706" lon="6.5677">
        <ele>1283.7</ele>
        <time>2024-08-18T14:47:53Z</time>
      </trkpt>
      <trkpt lat="44.82693" lon="6.56752">
        <ele>1285.4</ele>
        <time>2024-08-18T14:47:53Z</time>
      </trkpt>
      <trkpt lat="44.82679" lon="6.56736">
        <ele>1286.9</ele>
        <time>2024-08-18T14:47:53Z</time>
      </trkpt>
      <trkpt lat="44.82665" lon="6.56724">
        <ele>1288.7</ele>
        <time>2024-08-18T14:47:53Z</time>
      </trkpt>
      <trkpt lat="44.82653" lon="6.56714">
        <ele>1289.3</ele>
        <time>2024-08-18T14:47:53Z</time>
      </trkpt>
      <trkpt lat="44.82644" lon="6.56711">
        <ele>1289.5</ele>
        <time>2024-08-18T14:47:53Z</time>
      </trkpt>
      <trkpt lat="44.82629" lon="6.56707">
        <ele>1289.2</ele>
        <time>2024-08-18T14:47:53Z</time>
      </trkpt>
      <trkpt lat="44.82621" lon="6.56704">
        <ele>1287.8</ele>
        <time>2024-08-18T14:47:53Z</time>
      </trkpt>
      <trkpt lat="44.8261" lon="6.56695">
        <ele>1289.7</ele>
        <time>2024-08-18T14:47:53Z</time>
      </trkpt>
      <trkpt lat="44.82596" lon="6.56682">
        <ele>1296.1</ele>
        <time>2024-08-18T14:47:53Z</time>
      </trkpt>
      <trkpt lat="44.82588" lon="6.56675">
        <ele>1297</ele>
        <time>2024-08-18T14:47:53Z</time>
      </trkpt>
      <trkpt lat="44.82572" lon="6.5667">
        <ele>1296.3</ele>
        <time>2024-08-18T14:47:53Z</time>
      </trkpt>
      <trkpt lat="44.8256" lon="6.56664">
        <ele>1299</ele>
        <time>2024-08-18T14:47:53Z</time>
      </trkpt>
      <trkpt lat="44.82548" lon="6.56655">
        <ele>1300.5</ele>
        <time>2024-08-18T14:47:53Z</time>
      </trkpt>
      <trkpt lat="44.8253" lon="6.5664">
        <ele>1302.6</ele>
        <time>2024-08-18T14:47:53Z</time>
      </trkpt>
      <trkpt lat="44.82518" lon="6.56631">
        <ele>1303.3</ele>
        <time>2024-08-18T14:47:53Z</time>
      </trkpt>
      <trkpt lat="44.82499" lon="6.5662">
        <ele>1304.8</ele>
        <time>2024-08-18T14:47:53Z</time>
      </trkpt>
      <trkpt lat="44.82476" lon="6.56608">
        <ele>1307.3</ele>
        <time>2024-08-18T14:47:53Z</time>
      </trkpt>
      <trkpt lat="44.8245" lon="6.56596">
        <ele>1308.7</ele>
        <time>2024-08-18T14:47:53Z</time>
      </trkpt>
      <trkpt lat="44.82426" lon="6.56584">
        <ele>1307.5</ele>
        <time>2024-08-18T14:47:53Z</time>
      </trkpt>
      <trkpt lat="44.82404" lon="6.56569">
        <ele>1311.3</ele>
        <time>2024-08-18T14:47:53Z</time>
      </trkpt>
      <trkpt lat="44.8239" lon="6.56561">
        <ele>1312.8</ele>
        <time>2024-08-18T14:47:53Z</time>
      </trkpt>
      <trkpt lat="44.82385" lon="6.56557">
        <ele>1314</ele>
        <time>2024-08-18T14:47:53Z</time>
      </trkpt>
      <trkpt lat="44.82384" lon="6.56555">
        <ele>1314</ele>
        <time>2024-08-18T14:47:53Z</time>
      </trkpt>
      <trkpt lat="44.82385" lon="6.56552">
        <ele>1316</ele>
        <time>2024-08-18T14:47:53Z</time>
      </trkpt>
      <trkpt lat="44.82387" lon="6.56551">
        <ele>1316</ele>
        <time>2024-08-18T14:47:53Z</time>
      </trkpt>
      <trkpt lat="44.8239" lon="6.56551">
        <ele>1316.8</ele>
        <time>2024-08-18T14:47:53Z</time>
      </trkpt>
      <trkpt lat="44.82396" lon="6.56554">
        <ele>1315.6</ele>
        <time>2024-08-18T14:47:53Z</time>
      </trkpt>
      <trkpt lat="44.82409" lon="6.56561">
        <ele>1316.2</ele>
        <time>2024-08-18T14:47:53Z</time>
      </trkpt>
      <trkpt lat="44.82421" lon="6.56569">
        <ele>1314.8</ele>
        <time>2024-08-18T14:47:53Z</time>
      </trkpt>
      <trkpt lat="44.82432" lon="6.56572">
        <ele>1315.5</ele>
        <time>2024-08-18T14:47:53Z</time>
      </trkpt>
      <trkpt lat="44.82449" lon="6.56574">
        <ele>1319.2</ele>
        <time>2024-08-18T14:47:53Z</time>
      </trkpt>
      <trkpt lat="44.82466" lon="6.56575">
        <ele>1320.8</ele>
        <time>2024-08-18T14:47:53Z</time>
      </trkpt>
      <trkpt lat="44.82485" lon="6.56577">
        <ele>1324.5</ele>
        <time>2024-08-18T14:47:53Z</time>
      </trkpt>
      <trkpt lat="44.8251" lon="6.56582">
        <ele>1327.8</ele>
        <time>2024-08-18T14:47:53Z</time>
      </trkpt>
      <trkpt lat="44.8253" lon="6.56586">
        <ele>1331.4</ele>
        <time>2024-08-18T14:47:53Z</time>
      </trkpt>
      <trkpt lat="44.82547" lon="6.56589">
        <ele>1333.6</ele>
        <time>2024-08-18T14:47:53Z</time>
      </trkpt>
      <trkpt lat="44.82561" lon="6.56591">
        <ele>1336.3</ele>
        <time>2024-08-18T14:47:53Z</time>
      </trkpt>
      <trkpt lat="44.82582" lon="6.56591">
        <ele>1339.5</ele>
        <time>2024-08-18T14:47:53Z</time>
      </trkpt>
      <trkpt lat="44.826" lon="6.5659">
        <ele>1341.2</ele>
        <time>2024-08-18T14:47:53Z</time>
      </trkpt>
      <trkpt lat="44.82623" lon="6.56588">
        <ele>1343</ele>
        <time>2024-08-18T14:47:53Z</time>
      </trkpt>
      <trkpt lat="44.8264" lon="6.56589">
        <ele>1345.1</ele>
        <time>2024-08-18T14:47:53Z</time>
      </trkpt>
      <trkpt lat="44.82652" lon="6.56591">
        <ele>1347.2</ele>
        <time>2024-08-18T14:47:53Z</time>
      </trkpt>
      <trkpt lat="44.82661" lon="6.56594">
        <ele>1346.1</ele>
        <time>2024-08-18T14:47:53Z</time>
      </trkpt>
      <trkpt lat="44.82669" lon="6.56593">
        <ele>1347.8</ele>
        <time>2024-08-18T14:47:53Z</time>
      </trkpt>
      <trkpt lat="44.82679" lon="6.56593">
        <ele>1349.8</ele>
        <time>2024-08-18T14:47:53Z</time>
      </trkpt>
      <trkpt lat="44.82686" lon="6.56596">
        <ele>1352.1</ele>
        <time>2024-08-18T14:47:53Z</time>
      </trkpt>
      <trkpt lat="44.82693" lon="6.56602">
        <ele>1350.5</ele>
        <time>2024-08-18T14:47:53Z</time>
      </trkpt>
      <trkpt lat="44.82701" lon="6.5661">
        <ele>1349.6</ele>
        <time>2024-08-18T14:47:53Z</time>
      </trkpt>
      <trkpt lat="44.82718" lon="6.56619">
        <ele>1352.3</ele>
        <time>2024-08-18T14:47:53Z</time>
      </trkpt>
      <trkpt lat="44.82741" lon="6.56629">
        <ele>1356.7</ele>
        <time>2024-08-18T14:47:53Z</time>
      </trkpt>
      <trkpt lat="44.82756" lon="6.56634">
        <ele>1359.5</ele>
        <time>2024-08-18T14:47:53Z</time>
      </trkpt>
      <trkpt lat="44.82762" lon="6.56637">
        <ele>1360.5</ele>
        <time>2024-08-18T14:47:53Z</time>
      </trkpt>
      <trkpt lat="44.82781" lon="6.56645">
        <ele>1362.5</ele>
        <time>2024-08-18T14:47:53Z</time>
      </trkpt>
      <trkpt lat="44.82799" lon="6.56656">
        <ele>1364.7</ele>
        <time>2024-08-18T14:47:53Z</time>
      </trkpt>
      <trkpt lat="44.82811" lon="6.56664">
        <ele>1365.8</ele>
        <time>2024-08-18T14:47:53Z</time>
      </trkpt>
      <trkpt lat="44.82823" lon="6.56675">
        <ele>1365.1</ele>
        <time>2024-08-18T14:47:53Z</time>
      </trkpt>
      <trkpt lat="44.8284" lon="6.56684">
        <ele>1369.2</ele>
        <time>2024-08-18T14:47:53Z</time>
      </trkpt>
      <trkpt lat="44.82848" lon="6.56687">
        <ele>1371.5</ele>
        <time>2024-08-18T14:47:53Z</time>
      </trkpt>
      <trkpt lat="44.82854" lon="6.5669">
        <ele>1373.7</ele>
        <time>2024-08-18T14:47:53Z</time>
      </trkpt>
      <trkpt lat="44.82859" lon="6.56695">
        <ele>1372.1</ele>
        <time>2024-08-18T14:47:53Z</time>
      </trkpt>
      <trkpt lat="44.82867" lon="6.56709">
        <ele>1372.1</ele>
        <time>2024-08-18T14:47:53Z</time>
      </trkpt>
      <trkpt lat="44.8288" lon="6.56729">
        <ele>1373.8</ele>
        <time>2024-08-18T14:47:53Z</time>
      </trkpt>
      <trkpt lat="44.8289" lon="6.56743">
        <ele>1374.3</ele>
        <time>2024-08-18T14:47:53Z</time>
      </trkpt>
      <trkpt lat="44.82899" lon="6.56752">
        <ele>1374.7</ele>
        <time>2024-08-18T14:47:53Z</time>
      </trkpt>
      <trkpt lat="44.8291" lon="6.56758">
        <ele>1376.6</ele>
        <time>2024-08-18T14:47:53Z</time>
      </trkpt>
      <trkpt lat="44.82922" lon="6.56763">
        <ele>1379.5</ele>
        <time>2024-08-18T14:47:53Z</time>
      </trkpt>
      <trkpt lat="44.8294" lon="6.56767">
        <ele>1383.2</ele>
        <time>2024-08-18T14:47:53Z</time>
      </trkpt>
      <trkpt lat="44.82958" lon="6.56772">
        <ele>1386.2</ele>
        <time>2024-08-18T14:47:53Z</time>
      </trkpt>
      <trkpt lat="44.82976" lon="6.56777">
        <ele>1388.5</ele>
        <time>2024-08-18T14:47:53Z</time>
      </trkpt>
      <trkpt lat="44.82995" lon="6.56787">
        <ele>1391.2</ele>
        <time>2024-08-18T14:47:53Z</time>
      </trkpt>
      <trkpt lat="44.83008" lon="6.56796">
        <ele>1393.8</ele>
        <time>2024-08-18T14:47:53Z</time>
      </trkpt>
      <trkpt lat="44.83019" lon="6.56807">
        <ele>1395.7</ele>
        <time>2024-08-18T14:47:53Z</time>
      </trkpt>
      <trkpt lat="44.83024" lon="6.56815">
        <ele>1396.6</ele>
        <time>2024-08-18T14:47:53Z</time>
      </trkpt>
      <trkpt lat="44.83025" lon="6.56822">
        <ele>1395.4</ele>
        <time>2024-08-18T14:47:53Z</time>
      </trkpt>
      <trkpt lat="44.83024" lon="6.56831">
        <ele>1395.6</ele>
        <time>2024-08-18T14:47:53Z</time>
      </trkpt>
      <trkpt lat="44.8302" lon="6.56845">
        <ele>1396.3</ele>
        <time>2024-08-18T14:47:53Z</time>
      </trkpt>
      <trkpt lat="44.83014" lon="6.56863">
        <ele>1398.6</ele>
        <time>2024-08-18T14:47:53Z</time>
      </trkpt>
      <trkpt lat="44.83012" lon="6.56883">
        <ele>1402.7</ele>
        <time>2024-08-18T14:47:53Z</time>
      </trkpt>
      <trkpt lat="44.8301" lon="6.56912">
        <ele>1402.2</ele>
        <time>2024-08-18T14:47:53Z</time>
      </trkpt>
      <trkpt lat="44.83009" lon="6.56933">
        <ele>1400.6</ele>
        <time>2024-08-18T14:47:53Z</time>
      </trkpt>
      <trkpt lat="44.83011" lon="6.5694">
        <ele>1402.2</ele>
        <time>2024-08-18T14:47:53Z</time>
      </trkpt>
      <trkpt lat="44.83012" lon="6.56943">
        <ele>1402.2</ele>
        <time>2024-08-18T14:47:53Z</time>
      </trkpt>
      <trkpt lat="44.83017" lon="6.56945">
        <ele>1403</ele>
        <time>2024-08-18T14:47:53Z</time>
      </trkpt>
      <trkpt lat="44.83021" lon="6.56946">
        <ele>1403.7</ele>
        <time>2024-08-18T14:47:53Z</time>
      </trkpt>
      <trkpt lat="44.83025" lon="6.56945">
        <ele>1404.3</ele>
        <time>2024-08-18T14:47:53Z</time>
      </trkpt>
      <trkpt lat="44.83029" lon="6.56944">
        <ele>1404.8</ele>
        <time>2024-08-18T14:47:53Z</time>
      </trkpt>
      <trkpt lat="44.83035" lon="6.56943">
        <ele>1406.4</ele>
        <time>2024-08-18T14:47:53Z</time>
      </trkpt>
      <trkpt lat="44.83041" lon="6.56943">
        <ele>1407.9</ele>
        <time>2024-08-18T14:47:53Z</time>
      </trkpt>
      <trkpt lat="44.8305" lon="6.56944">
        <ele>1407.5</ele>
        <time>2024-08-18T14:47:53Z</time>
      </trkpt>
      <trkpt lat="44.83059" lon="6.56943">
        <ele>1410.4</ele>
        <time>2024-08-18T14:47:53Z</time>
      </trkpt>
      <trkpt lat="44.83074" lon="6.56942">
        <ele>1412.1</ele>
        <time>2024-08-18T14:47:53Z</time>
      </trkpt>
      <trkpt lat="44.83086" lon="6.56943">
        <ele>1414.3</ele>
        <time>2024-08-18T14:47:53Z</time>
      </trkpt>
      <trkpt lat="44.83093" lon="6.56945">
        <ele>1414.8</ele>
        <time>2024-08-18T14:47:53Z</time>
      </trkpt>
      <trkpt lat="44.83097" lon="6.56947">
        <ele>1416</ele>
        <time>2024-08-18T14:47:53Z</time>
      </trkpt>
      <trkpt lat="44.83102" lon="6.56951">
        <ele>1415.9</ele>
        <time>2024-08-18T14:47:53Z</time>
      </trkpt>
      <trkpt lat="44.83111" lon="6.5696">
        <ele>1415.9</ele>
        <time>2024-08-18T14:47:53Z</time>
      </trkpt>
      <trkpt lat="44.83123" lon="6.56969">
        <ele>1417.9</ele>
        <time>2024-08-18T14:47:53Z</time>
      </trkpt>
      <trkpt lat="44.83136" lon="6.56978">
        <ele>1419.2</ele>
        <time>2024-08-18T14:47:53Z</time>
      </trkpt>
      <trkpt lat="44.83143" lon="6.56982">
        <ele>1420.4</ele>
        <time>2024-08-18T14:47:53Z</time>
      </trkpt>
      <trkpt lat="44.8315" lon="6.56983">
        <ele>1420.4</ele>
        <time>2024-08-18T14:47:53Z</time>
      </trkpt>
      <trkpt lat="44.83158" lon="6.56983">
        <ele>1423</ele>
        <time>2024-08-18T14:47:53Z</time>
      </trkpt>
      <trkpt lat="44.83166" lon="6.56983">
        <ele>1424.6</ele>
        <time>2024-08-18T14:47:53Z</time>
      </trkpt>
      <trkpt lat="44.83185" lon="6.56978">
        <ele>1427.4</ele>
        <time>2024-08-18T14:47:53Z</time>
      </trkpt>
      <trkpt lat="44.83197" lon="6.56976">
        <ele>1427.9</ele>
        <time>2024-08-18T14:47:53Z</time>
      </trkpt>
      <trkpt lat="44.83217" lon="6.56969">
        <ele>1429.1</ele>
        <time>2024-08-18T14:47:53Z</time>
      </trkpt>
      <trkpt lat="44.83233" lon="6.56965">
        <ele>1429.1</ele>
        <time>2024-08-18T14:47:53Z</time>
      </trkpt>
      <trkpt lat="44.8324" lon="6.56965">
        <ele>1429.1</ele>
        <time>2024-08-18T14:47:53Z</time>
      </trkpt>
      <trkpt lat="44.83245" lon="6.56966">
        <ele>1429</ele>
        <time>2024-08-18T14:47:53Z</time>
      </trkpt>
      <trkpt lat="44.8325" lon="6.56968">
        <ele>1429.1</ele>
        <time>2024-08-18T14:47:53Z</time>
      </trkpt>
      <trkpt lat="44.83258" lon="6.56972">
        <ele>1429.3</ele>
        <time>2024-08-18T14:47:53Z</time>
      </trkpt>
      <trkpt lat="44.83284" lon="6.56988">
        <ele>1430.6</ele>
        <time>2024-08-18T14:47:53Z</time>
      </trkpt>
      <trkpt lat="44.83307" lon="6.57001">
        <ele>1433.3</ele>
        <time>2024-08-18T14:47:53Z</time>
      </trkpt>
      <trkpt lat="44.83312" lon="6.57004">
        <ele>1434.1</ele>
        <time>2024-08-18T14:47:53Z</time>
      </trkpt>
      <trkpt lat="44.83331" lon="6.57014">
        <ele>1436.2</ele>
        <time>2024-08-18T14:47:53Z</time>
      </trkpt>
      <trkpt lat="44.83355" lon="6.5703">
        <ele>1439.2</ele>
        <time>2024-08-18T14:47:53Z</time>
      </trkpt>
      <trkpt lat="44.8337" lon="6.57037">
        <ele>1439.7</ele>
        <time>2024-08-18T14:47:53Z</time>
      </trkpt>
      <trkpt lat="44.83394" lon="6.57052">
        <ele>1442.5</ele>
        <time>2024-08-18T14:47:53Z</time>
      </trkpt>
      <trkpt lat="44.83418" lon="6.57068">
        <ele>1445.7</ele>
        <time>2024-08-18T14:47:53Z</time>
      </trkpt>
      <trkpt lat="44.83437" lon="6.57078">
        <ele>1449.3</ele>
        <time>2024-08-18T14:47:53Z</time>
      </trkpt>
      <trkpt lat="44.83453" lon="6.57082">
        <ele>1451.8</ele>
        <time>2024-08-18T14:47:53Z</time>
      </trkpt>
      <trkpt lat="44.83464" lon="6.57083">
        <ele>1452.7</ele>
        <time>2024-08-18T14:47:53Z</time>
      </trkpt>
      <trkpt lat="44.83472" lon="6.57083">
        <ele>1453.7</ele>
        <time>2024-08-18T14:47:53Z</time>
      </trkpt>
      <trkpt lat="44.83482" lon="6.5708">
        <ele>1454.6</ele>
        <time>2024-08-18T14:47:53Z</time>
      </trkpt>
      <trkpt lat="44.8349" lon="6.57077">
        <ele>1455.4</ele>
        <time>2024-08-18T14:47:53Z</time>
      </trkpt>
      <trkpt lat="44.83496" lon="6.57073">
        <ele>1456.2</ele>
        <time>2024-08-18T14:47:53Z</time>
      </trkpt>
      <trkpt lat="44.83502" lon="6.57067">
        <ele>1455.7</ele>
        <time>2024-08-18T14:47:53Z</time>
      </trkpt>
      <trkpt lat="44.83506" lon="6.57059">
        <ele>1456.1</ele>
        <time>2024-08-18T14:47:53Z</time>
      </trkpt>
      <trkpt lat="44.83509" lon="6.57051">
        <ele>1457</ele>
        <time>2024-08-18T14:47:53Z</time>
      </trkpt>
      <trkpt lat="44.83512" lon="6.57039">
        <ele>1458.3</ele>
        <time>2024-08-18T14:47:53Z</time>
      </trkpt>
      <trkpt lat="44.83513" lon="6.57031">
        <ele>1458.6</ele>
        <time>2024-08-18T14:47:53Z</time>
      </trkpt>
      <trkpt lat="44.83512" lon="6.57024">
        <ele>1459.2</ele>
        <time>2024-08-18T14:47:53Z</time>
      </trkpt>
      <trkpt lat="44.83508" lon="6.57015">
        <ele>1459.5</ele>
        <time>2024-08-18T14:47:53Z</time>
      </trkpt>
      <trkpt lat="44.83501" lon="6.57004">
        <ele>1459.6</ele>
        <time>2024-08-18T14:47:53Z</time>
      </trkpt>
      <trkpt lat="44.83485" lon="6.56982">
        <ele>1458.7</ele>
        <time>2024-08-18T14:47:53Z</time>
      </trkpt>
      <trkpt lat="44.83476" lon="6.56969">
        <ele>1458.4</ele>
        <time>2024-08-18T14:47:53Z</time>
      </trkpt>
      <trkpt lat="44.83473" lon="6.56962">
        <ele>1458</ele>
        <time>2024-08-18T14:47:53Z</time>
      </trkpt>
      <trkpt lat="44.83473" lon="6.56957">
        <ele>1458.5</ele>
        <time>2024-08-18T14:47:53Z</time>
      </trkpt>
      <trkpt lat="44.83474" lon="6.5695">
        <ele>1459.9</ele>
        <time>2024-08-18T14:47:53Z</time>
      </trkpt>
      <trkpt lat="44.83476" lon="6.56944">
        <ele>1460.1</ele>
        <time>2024-08-18T14:47:53Z</time>
      </trkpt>
      <trkpt lat="44.83481" lon="6.56936">
        <ele>1461.3</ele>
        <time>2024-08-18T14:47:53Z</time>
      </trkpt>
      <trkpt lat="44.83487" lon="6.56928">
        <ele>1463.9</ele>
        <time>2024-08-18T14:47:53Z</time>
      </trkpt>
      <trkpt lat="44.8349" lon="6.56922">
        <ele>1464.9</ele>
        <time>2024-08-18T14:47:53Z</time>
      </trkpt>
      <trkpt lat="44.83492" lon="6.56916">
        <ele>1466.4</ele>
        <time>2024-08-18T14:47:53Z</time>
      </trkpt>
      <trkpt lat="44.83492" lon="6.56907">
        <ele>1467.3</ele>
        <time>2024-08-18T14:47:53Z</time>
      </trkpt>
      <trkpt lat="44.83491" lon="6.56897">
        <ele>1468</ele>
        <time>2024-08-18T14:47:53Z</time>
      </trkpt>
      <trkpt lat="44.83488" lon="6.56883">
        <ele>1469</ele>
        <time>2024-08-18T14:47:53Z</time>
      </trkpt>
      <trkpt lat="44.83483" lon="6.56864">
        <ele>1470.1</ele>
        <time>2024-08-18T14:47:53Z</time>
      </trkpt>
      <trkpt lat="44.83478" lon="6.5685">
        <ele>1470.5</ele>
        <time>2024-08-18T14:47:53Z</time>
      </trkpt>
      <trkpt lat="44.83475" lon="6.56842">
        <ele>1470.4</ele>
        <time>2024-08-18T14:47:53Z</time>
      </trkpt>
      <trkpt lat="44.83474" lon="6.56832">
        <ele>1471.2</ele>
        <time>2024-08-18T14:47:53Z</time>
      </trkpt>
      <trkpt lat="44.83475" lon="6.56824">
        <ele>1471.3</ele>
        <time>2024-08-18T14:47:53Z</time>
      </trkpt>
      <trkpt lat="44.83477" lon="6.56818">
        <ele>1471.2</ele>
        <time>2024-08-18T14:47:53Z</time>
      </trkpt>
      <trkpt lat="44.83479" lon="6.56809">
        <ele>1472.6</ele>
        <time>2024-08-18T14:47:53Z</time>
      </trkpt>
      <trkpt lat="44.83484" lon="6.56798">
        <ele>1474</ele>
        <time>2024-08-18T14:47:53Z</time>
      </trkpt>
      <trkpt lat="44.83492" lon="6.56785">
        <ele>1476</ele>
        <time>2024-08-18T14:47:53Z</time>
      </trkpt>
      <trkpt lat="44.83501" lon="6.56769">
        <ele>1477.1</ele>
        <time>2024-08-18T14:47:53Z</time>
      </trkpt>
      <trkpt lat="44.83509" lon="6.56758">
        <ele>1477.9</ele>
        <time>2024-08-18T14:47:53Z</time>
      </trkpt>
      <trkpt lat="44.83517" lon="6.56747">
        <ele>1479.4</ele>
        <time>2024-08-18T14:47:53Z</time>
      </trkpt>
      <trkpt lat="44.83521" lon="6.56741">
        <ele>1479.8</ele>
        <time>2024-08-18T14:47:53Z</time>
      </trkpt>
      <trkpt lat="44.83523" lon="6.56736">
        <ele>1479.6</ele>
        <time>2024-08-18T14:47:53Z</time>
      </trkpt>
      <trkpt lat="44.83523" lon="6.56733">
        <ele>1479.6</ele>
        <time>2024-08-18T14:47:53Z</time>
      </trkpt>
      <trkpt lat="44.83523" lon="6.56728">
        <ele>1479.7</ele>
        <time>2024-08-18T14:47:53Z</time>
      </trkpt>
      <trkpt lat="44.83522" lon="6.56722">
        <ele>1480</ele>
        <time>2024-08-18T14:47:53Z</time>
      </trkpt>
      <trkpt lat="44.83521" lon="6.56718">
        <ele>1480.4</ele>
        <time>2024-08-18T14:47:53Z</time>
      </trkpt>
      <trkpt lat="44.83517" lon="6.56714">
        <ele>1480.5</ele>
        <time>2024-08-18T14:47:53Z</time>
      </trkpt>
      <trkpt lat="44.83509" lon="6.56707">
        <ele>1481.5</ele>
        <time>2024-08-18T14:47:53Z</time>
      </trkpt>
      <trkpt lat="44.83505" lon="6.56704">
        <ele>1481.3</ele>
        <time>2024-08-18T14:47:53Z</time>
      </trkpt>
      <trkpt lat="44.83498" lon="6.56704">
        <ele>1480.8</ele>
        <time>2024-08-18T14:47:53Z</time>
      </trkpt>
      <trkpt lat="44.8349" lon="6.56704">
        <ele>1480.1</ele>
        <time>2024-08-18T14:47:53Z</time>
      </trkpt>
      <trkpt lat="44.83486" lon="6.56702">
        <ele>1481</ele>
        <time>2024-08-18T14:47:53Z</time>
      </trkpt>
      <trkpt lat="44.83482" lon="6.56699">
        <ele>1482.3</ele>
        <time>2024-08-18T14:47:53Z</time>
      </trkpt>
      <trkpt lat="44.83475" lon="6.56693">
        <ele>1482.9</ele>
        <time>2024-08-18T14:47:53Z</time>
      </trkpt>
      <trkpt lat="44.8347" lon="6.56687">
        <ele>1483.9</ele>
        <time>2024-08-18T14:47:53Z</time>
      </trkpt>
      <trkpt lat="44.83459" lon="6.56678">
        <ele>1485.4</ele>
        <time>2024-08-18T14:47:53Z</time>
      </trkpt>
      <trkpt lat="44.83448" lon="6.56671">
        <ele>1487.6</ele>
        <time>2024-08-18T14:47:53Z</time>
      </trkpt>
      <trkpt lat="44.83439" lon="6.56665">
        <ele>1488</ele>
        <time>2024-08-18T14:47:53Z</time>
      </trkpt>
      <trkpt lat="44.83432" lon="6.56663">
        <ele>1488.4</ele>
        <time>2024-08-18T14:47:53Z</time>
      </trkpt>
      <trkpt lat="44.83427" lon="6.56661">
        <ele>1487.8</ele>
        <time>2024-08-18T14:47:53Z</time>
      </trkpt>
      <trkpt lat="44.83425" lon="6.56658">
        <ele>1488.8</ele>
        <time>2024-08-18T14:47:53Z</time>
      </trkpt>
      <trkpt lat="44.8342" lon="6.56655">
        <ele>1489.7</ele>
        <time>2024-08-18T14:47:53Z</time>
      </trkpt>
      <trkpt lat="44.8341" lon="6.56648">
        <ele>1490.1</ele>
        <time>2024-08-18T14:47:53Z</time>
      </trkpt>
      <trkpt lat="44.83398" lon="6.56641">
        <ele>1491.4</ele>
        <time>2024-08-18T14:47:53Z</time>
      </trkpt>
      <trkpt lat="44.83385" lon="6.56634">
        <ele>1492.4</ele>
        <time>2024-08-18T14:47:53Z</time>
      </trkpt>
      <trkpt lat="44.83381" lon="6.56629">
        <ele>1493.4</ele>
        <time>2024-08-18T14:47:53Z</time>
      </trkpt>
      <trkpt lat="44.8338" lon="6.56626">
        <ele>1494.9</ele>
        <time>2024-08-18T14:47:53Z</time>
      </trkpt>
      <trkpt lat="44.8338" lon="6.56624">
        <ele>1494.9</ele>
        <time>2024-08-18T14:47:53Z</time>
      </trkpt>
      <trkpt lat="44.83381" lon="6.56621">
        <ele>1496.5</ele>
        <time>2024-08-18T14:47:53Z</time>
      </trkpt>
      <trkpt lat="44.83384" lon="6.5662">
        <ele>1497</ele>
        <time>2024-08-18T14:47:53Z</time>
      </trkpt>
      <trkpt lat="44.83387" lon="6.56621">
        <ele>1497</ele>
        <time>2024-08-18T14:47:53Z</time>
      </trkpt>
      <trkpt lat="44.83391" lon="6.56623">
        <ele>1495.9</ele>
        <time>2024-08-18T14:47:53Z</time>
      </trkpt>
      <trkpt lat="44.83396" lon="6.56626">
        <ele>1496.4</ele>
        <time>2024-08-18T14:47:53Z</time>
      </trkpt>
      <trkpt lat="44.83404" lon="6.5663">
        <ele>1496.2</ele>
        <time>2024-08-18T14:47:53Z</time>
      </trkpt>
      <trkpt lat="44.83417" lon="6.56633">
        <ele>1497.1</ele>
        <time>2024-08-18T14:47:53Z</time>
      </trkpt>
      <trkpt lat="44.83428" lon="6.56637">
        <ele>1498</ele>
        <time>2024-08-18T14:47:53Z</time>
      </trkpt>
      <trkpt lat="44.83438" lon="6.5664">
        <ele>1497.8</ele>
        <time>2024-08-18T14:47:53Z</time>
      </trkpt>
      <trkpt lat="44.83448" lon="6.56642">
        <ele>1500.4</ele>
        <time>2024-08-18T14:47:53Z</time>
      </trkpt>
      <trkpt lat="44.83459" lon="6.56645">
        <ele>1499.9</ele>
        <time>2024-08-18T14:47:53Z</time>
      </trkpt>
      <trkpt lat="44.83468" lon="6.56647">
        <ele>1501.3</ele>
        <time>2024-08-18T14:47:53Z</time>
      </trkpt>
      <trkpt lat="44.83474" lon="6.56647">
        <ele>1502.5</ele>
        <time>2024-08-18T14:47:53Z</time>
      </trkpt>
      <trkpt lat="44.8348" lon="6.56646">
        <ele>1503</ele>
        <time>2024-08-18T14:47:53Z</time>
      </trkpt>
      <trkpt lat="44.83487" lon="6.56644">
        <ele>1503.8</ele>
        <time>2024-08-18T14:47:53Z</time>
      </trkpt>
      <trkpt lat="44.83498" lon="6.56644">
        <ele>1504.2</ele>
        <time>2024-08-18T14:47:53Z</time>
      </trkpt>
      <trkpt lat="44.8351" lon="6.56645">
        <ele>1504.3</ele>
        <time>2024-08-18T14:47:53Z</time>
      </trkpt>
      <trkpt lat="44.83518" lon="6.56645">
        <ele>1504.3</ele>
        <time>2024-08-18T14:47:53Z</time>
      </trkpt>
      <trkpt lat="44.83527" lon="6.56642">
        <ele>1506.1</ele>
        <time>2024-08-18T14:47:53Z</time>
      </trkpt>
      <trkpt lat="44.83537" lon="6.56638">
        <ele>1507.9</ele>
        <time>2024-08-18T14:47:53Z</time>
      </trkpt>
      <trkpt lat="44.83549" lon="6.5663">
        <ele>1511.5</ele>
        <time>2024-08-18T14:47:53Z</time>
      </trkpt>
      <trkpt lat="44.83552" lon="6.56629">
        <ele>1511.3</ele>
        <time>2024-08-18T14:47:53Z</time>
      </trkpt>
      <trkpt lat="44.83562" lon="6.56623">
        <ele>1512.8</ele>
        <time>2024-08-18T14:47:53Z</time>
      </trkpt>
      <trkpt lat="44.83576" lon="6.56617">
        <ele>1516.2</ele>
        <time>2024-08-18T14:47:53Z</time>
      </trkpt>
      <trkpt lat="44.83589" lon="6.56613">
        <ele>1517.6</ele>
        <time>2024-08-18T14:47:53Z</time>
      </trkpt>
      <trkpt lat="44.83601" lon="6.56609">
        <ele>1518.9</ele>
        <time>2024-08-18T14:47:53Z</time>
      </trkpt>
      <trkpt lat="44.83611" lon="6.56608">
        <ele>1518.5</ele>
        <time>2024-08-18T14:47:53Z</time>
      </trkpt>
      <trkpt lat="44.83622" lon="6.56607">
        <ele>1518.5</ele>
        <time>2024-08-18T14:47:53Z</time>
      </trkpt>
      <trkpt lat="44.83636" lon="6.56605">
        <ele>1519.4</ele>
        <time>2024-08-18T14:47:53Z</time>
      </trkpt>
      <trkpt lat="44.83645" lon="6.56603">
        <ele>1522.7</ele>
        <time>2024-08-18T14:47:53Z</time>
      </trkpt>
      <trkpt lat="44.83651" lon="6.56601">
        <ele>1523.5</ele>
        <time>2024-08-18T14:47:53Z</time>
      </trkpt>
      <trkpt lat="44.83656" lon="6.566">
        <ele>1525.8</ele>
        <time>2024-08-18T14:47:53Z</time>
      </trkpt>
      <trkpt lat="44.83661" lon="6.56602">
        <ele>1525.3</ele>
        <time>2024-08-18T14:47:53Z</time>
      </trkpt>
      <trkpt lat="44.83663" lon="6.56605">
        <ele>1524.7</ele>
        <time>2024-08-18T14:47:53Z</time>
      </trkpt>
      <trkpt lat="44.83667" lon="6.56609">
        <ele>1525.6</ele>
        <time>2024-08-18T14:47:53Z</time>
      </trkpt>
      <trkpt lat="44.83671" lon="6.56613">
        <ele>1525.2</ele>
        <time>2024-08-18T14:47:53Z</time>
      </trkpt>
      <trkpt lat="44.83678" lon="6.56616">
        <ele>1524.7</ele>
        <time>2024-08-18T14:47:53Z</time>
      </trkpt>
      <trkpt lat="44.83686" lon="6.56619">
        <ele>1525.3</ele>
        <time>2024-08-18T14:47:53Z</time>
      </trkpt>
      <trkpt lat="44.83693" lon="6.56622">
        <ele>1525.9</ele>
        <time>2024-08-18T14:47:53Z</time>
      </trkpt>
      <trkpt lat="44.83704" lon="6.56623">
        <ele>1527.7</ele>
        <time>2024-08-18T14:47:53Z</time>
      </trkpt>
      <trkpt lat="44.83714" lon="6.56624">
        <ele>1529.9</ele>
        <time>2024-08-18T14:47:53Z</time>
      </trkpt>
      <trkpt lat="44.83722" lon="6.56624">
        <ele>1530.6</ele>
        <time>2024-08-18T14:47:53Z</time>
      </trkpt>
      <trkpt lat="44.83731" lon="6.56625">
        <ele>1532.1</ele>
        <time>2024-08-18T14:47:53Z</time>
      </trkpt>
      <trkpt lat="44.83735" lon="6.56625">
        <ele>1532.1</ele>
        <time>2024-08-18T14:47:53Z</time>
      </trkpt>
      <trkpt lat="44.8374" lon="6.56628">
        <ele>1532.1</ele>
        <time>2024-08-18T14:47:53Z</time>
      </trkpt>
      <trkpt lat="44.83742" lon="6.56631">
        <ele>1531.4</ele>
        <time>2024-08-18T14:47:53Z</time>
      </trkpt>
      <trkpt lat="44.83744" lon="6.56635">
        <ele>1531.7</ele>
        <time>2024-08-18T14:47:53Z</time>
      </trkpt>
      <trkpt lat="44.83746" lon="6.56641">
        <ele>1531.3</ele>
        <time>2024-08-18T14:47:53Z</time>
      </trkpt>
      <trkpt lat="44.8375" lon="6.56654">
        <ele>1531.3</ele>
        <time>2024-08-18T14:47:53Z</time>
      </trkpt>
      <trkpt lat="44.83755" lon="6.56662">
        <ele>1531.5</ele>
        <time>2024-08-18T14:47:53Z</time>
      </trkpt>
      <trkpt lat="44.83758" lon="6.56665">
        <ele>1531.8</ele>
        <time>2024-08-18T14:47:53Z</time>
      </trkpt>
      <trkpt lat="44.83761" lon="6.56665">
        <ele>1532.2</ele>
        <time>2024-08-18T14:47:53Z</time>
      </trkpt>
      <trkpt lat="44.83763" lon="6.56666">
        <ele>1532.2</ele>
        <time>2024-08-18T14:47:53Z</time>
      </trkpt>
      <trkpt lat="44.83766" lon="6.56665">
        <ele>1532.6</ele>
        <time>2024-08-18T14:47:53Z</time>
      </trkpt>
      <trkpt lat="44.83769" lon="6.56661">
        <ele>1532.7</ele>
        <time>2024-08-18T14:47:53Z</time>
      </trkpt>
      <trkpt lat="44.83774" lon="6.56654">
        <ele>1533.3</ele>
        <time>2024-08-18T14:47:53Z</time>
      </trkpt>
      <trkpt lat="44.8378" lon="6.56645">
        <ele>1534</ele>
        <time>2024-08-18T14:47:53Z</time>
      </trkpt>
      <trkpt lat="44.83784" lon="6.56637">
        <ele>1534.7</ele>
        <time>2024-08-18T14:47:53Z</time>
      </trkpt>
      <trkpt lat="44.83789" lon="6.56629">
        <ele>1535.3</ele>
        <time>2024-08-18T14:47:53Z</time>
      </trkpt>
      <trkpt lat="44.83793" lon="6.56618">
        <ele>1535.9</ele>
        <time>2024-08-18T14:47:53Z</time>
      </trkpt>
      <trkpt lat="44.83799" lon="6.56603">
        <ele>1537.8</ele>
        <time>2024-08-18T14:47:53Z</time>
      </trkpt>
      <trkpt lat="44.83807" lon="6.56586">
        <ele>1539.5</ele>
        <time>2024-08-18T14:47:53Z</time>
      </trkpt>
      <trkpt lat="44.83814" lon="6.5657">
        <ele>1540.6</ele>
        <time>2024-08-18T14:47:53Z</time>
      </trkpt>
      <trkpt lat="44.83819" lon="6.56555">
        <ele>1542.3</ele>
        <time>2024-08-18T14:47:53Z</time>
      </trkpt>
      <trkpt lat="44.83822" lon="6.56541">
        <ele>1544</ele>
        <time>2024-08-18T14:47:53Z</time>
      </trkpt>
      <trkpt lat="44.83822" lon="6.56538">
        <ele>1544.6</ele>
        <time>2024-08-18T14:47:53Z</time>
      </trkpt>
      <trkpt lat="44.83826" lon="6.56525">
        <ele>1545.8</ele>
        <time>2024-08-18T14:47:53Z</time>
      </trkpt>
      <trkpt lat="44.83832" lon="6.56508">
        <ele>1547.6</ele>
        <time>2024-08-18T14:47:53Z</time>
      </trkpt>
      <trkpt lat="44.83836" lon="6.56497">
        <ele>1549.1</ele>
        <time>2024-08-18T14:47:53Z</time>
      </trkpt>
      <trkpt lat="44.83841" lon="6.5649">
        <ele>1549.5</ele>
        <time>2024-08-18T14:47:53Z</time>
      </trkpt>
      <trkpt lat="44.83848" lon="6.56483">
        <ele>1550.5</ele>
        <time>2024-08-18T14:47:53Z</time>
      </trkpt>
      <trkpt lat="44.83854" lon="6.56478">
        <ele>1551.2</ele>
        <time>2024-08-18T14:47:53Z</time>
      </trkpt>
      <trkpt lat="44.83862" lon="6.56474">
        <ele>1551.8</ele>
        <time>2024-08-18T14:47:53Z</time>
      </trkpt>
      <trkpt lat="44.83871" lon="6.5647">
        <ele>1552.7</ele>
        <time>2024-08-18T14:47:53Z</time>
      </trkpt>
      <trkpt lat="44.83882" lon="6.56469">
        <ele>1552.4</ele>
        <time>2024-08-18T14:47:53Z</time>
      </trkpt>
      <trkpt lat="44.83891" lon="6.56469">
        <ele>1552.3</ele>
        <time>2024-08-18T14:47:53Z</time>
      </trkpt>
      <trkpt lat="44.83902" lon="6.5647">
        <ele>1552.5</ele>
        <time>2024-08-18T14:47:53Z</time>
      </trkpt>
      <trkpt lat="44.83912" lon="6.5647">
        <ele>1553.1</ele>
        <time>2024-08-18T14:47:53Z</time>
      </trkpt>
      <trkpt lat="44.83925" lon="6.56473">
        <ele>1552.4</ele>
        <time>2024-08-18T14:47:53Z</time>
      </trkpt>
      <trkpt lat="44.83938" lon="6.56474">
        <ele>1553.7</ele>
        <time>2024-08-18T14:47:53Z</time>
      </trkpt>
      <trkpt lat="44.83949" lon="6.56474">
        <ele>1554.7</ele>
        <time>2024-08-18T14:47:53Z</time>
      </trkpt>
      <trkpt lat="44.83962" lon="6.56474">
        <ele>1556.2</ele>
        <time>2024-08-18T14:47:53Z</time>
      </trkpt>
      <trkpt lat="44.83977" lon="6.56475">
        <ele>1558.3</ele>
        <time>2024-08-18T14:47:53Z</time>
      </trkpt>
      <trkpt lat="44.83985" lon="6.56476">
        <ele>1559.3</ele>
        <time>2024-08-18T14:47:53Z</time>
      </trkpt>
      <trkpt lat="44.83994" lon="6.56474">
        <ele>1560.2</ele>
        <time>2024-08-18T14:47:53Z</time>
      </trkpt>
      <trkpt lat="44.84002" lon="6.56472">
        <ele>1561</ele>
        <time>2024-08-18T14:47:53Z</time>
      </trkpt>
      <trkpt lat="44.8401" lon="6.56469">
        <ele>1563.7</ele>
        <time>2024-08-18T14:47:53Z</time>
      </trkpt>
      <trkpt lat="44.84016" lon="6.56467">
        <ele>1566</ele>
        <time>2024-08-18T14:47:53Z</time>
      </trkpt>
      <trkpt lat="44.84022" lon="6.56467">
        <ele>1566.6</ele>
        <time>2024-08-18T14:47:53Z</time>
      </trkpt>
      <trkpt lat="44.84026" lon="6.56468">
        <ele>1565.4</ele>
        <time>2024-08-18T14:47:53Z</time>
      </trkpt>
      <trkpt lat="44.84031" lon="6.56469">
        <ele>1566</ele>
        <time>2024-08-18T14:47:53Z</time>
      </trkpt>
      <trkpt lat="44.8404" lon="6.56471">
        <ele>1568.2</ele>
        <time>2024-08-18T14:47:53Z</time>
      </trkpt>
      <trkpt lat="44.84055" lon="6.56476">
        <ele>1568.7</ele>
        <time>2024-08-18T14:47:53Z</time>
      </trkpt>
      <trkpt lat="44.84067" lon="6.5648">
        <ele>1569.5</ele>
        <time>2024-08-18T14:47:53Z</time>
      </trkpt>
      <trkpt lat="44.84076" lon="6.56483">
        <ele>1569.8</ele>
        <time>2024-08-18T14:47:53Z</time>
      </trkpt>
      <trkpt lat="44.84085" lon="6.56486">
        <ele>1570.6</ele>
        <time>2024-08-18T14:47:53Z</time>
      </trkpt>
      <trkpt lat="44.84099" lon="6.56496">
        <ele>1571.3</ele>
        <time>2024-08-18T14:47:53Z</time>
      </trkpt>
      <trkpt lat="44.84114" lon="6.56505">
        <ele>1573.7</ele>
        <time>2024-08-18T14:47:53Z</time>
      </trkpt>
      <trkpt lat="44.84123" lon="6.56512">
        <ele>1573.6</ele>
        <time>2024-08-18T14:47:53Z</time>
      </trkpt>
      <trkpt lat="44.84135" lon="6.56522">
        <ele>1575.4</ele>
        <time>2024-08-18T14:47:53Z</time>
      </trkpt>
      <trkpt lat="44.84145" lon="6.56529">
        <ele>1575.7</ele>
        <time>2024-08-18T14:47:53Z</time>
      </trkpt>
      <trkpt lat="44.84158" lon="6.56538">
        <ele>1577.4</ele>
        <time>2024-08-18T14:47:53Z</time>
      </trkpt>
      <trkpt lat="44.84167" lon="6.56543">
        <ele>1578.9</ele>
        <time>2024-08-18T14:47:53Z</time>
      </trkpt>
      <trkpt lat="44.84174" lon="6.56547">
        <ele>1580.3</ele>
        <time>2024-08-18T14:47:53Z</time>
      </trkpt>
      <trkpt lat="44.84184" lon="6.56553">
        <ele>1581.6</ele>
        <time>2024-08-18T14:47:53Z</time>
      </trkpt>
      <trkpt lat="44.84195" lon="6.56558">
        <ele>1582.9</ele>
        <time>2024-08-18T14:47:53Z</time>
      </trkpt>
      <trkpt lat="44.84204" lon="6.5656">
        <ele>1585.6</ele>
        <time>2024-08-18T14:47:53Z</time>
      </trkpt>
      <trkpt lat="44.84212" lon="6.56561">
        <ele>1588.3</ele>
        <time>2024-08-18T14:47:53Z</time>
      </trkpt>
      <trkpt lat="44.8422" lon="6.56561">
        <ele>1589.6</ele>
        <time>2024-08-18T14:47:53Z</time>
      </trkpt>
      <trkpt lat="44.84226" lon="6.56561">
        <ele>1592.1</ele>
        <time>2024-08-18T14:47:53Z</time>
      </trkpt>
      <trkpt lat="44.84236" lon="6.56563">
        <ele>1593</ele>
        <time>2024-08-18T14:47:53Z</time>
      </trkpt>
      <trkpt lat="44.84246" lon="6.56566">
        <ele>1596.4</ele>
        <time>2024-08-18T14:47:53Z</time>
      </trkpt>
      <trkpt lat="44.84259" lon="6.56572">
        <ele>1596.5</ele>
        <time>2024-08-18T14:47:53Z</time>
      </trkpt>
      <trkpt lat="44.84261" lon="6.56573">
        <ele>1596.5</ele>
        <time>2024-08-18T14:47:53Z</time>
      </trkpt>
      <trkpt lat="44.84269" lon="6.56577">
        <ele>1596.9</ele>
        <time>2024-08-18T14:47:53Z</time>
      </trkpt>
      <trkpt lat="44.8428" lon="6.56581">
        <ele>1597.2</ele>
        <time>2024-08-18T14:47:53Z</time>
      </trkpt>
      <trkpt lat="44.84286" lon="6.56586">
        <ele>1597.4</ele>
        <time>2024-08-18T14:47:53Z</time>
      </trkpt>
      <trkpt lat="44.84295" lon="6.56593">
        <ele>1596</ele>
        <time>2024-08-18T14:47:53Z</time>
      </trkpt>
      <trkpt lat="44.84302" lon="6.56598">
        <ele>1595.9</ele>
        <time>2024-08-18T14:47:53Z</time>
      </trkpt>
      <trkpt lat="44.84308" lon="6.56599">
        <ele>1596.7</ele>
        <time>2024-08-18T14:47:53Z</time>
      </trkpt>
      <trkpt lat="44.84315" lon="6.566">
        <ele>1598.2</ele>
        <time>2024-08-18T14:47:53Z</time>
      </trkpt>
      <trkpt lat="44.84324" lon="6.56601">
        <ele>1597.8</ele>
        <time>2024-08-18T14:47:53Z</time>
      </trkpt>
      <trkpt lat="44.84334" lon="6.56606">
        <ele>1597.1</ele>
        <time>2024-08-18T14:47:53Z</time>
      </trkpt>
      <trkpt lat="44.84342" lon="6.56609">
        <ele>1598.2</ele>
        <time>2024-08-18T14:47:53Z</time>
      </trkpt>
      <trkpt lat="44.84348" lon="6.56609">
        <ele>1598.7</ele>
        <time>2024-08-18T14:47:53Z</time>
      </trkpt>
      <trkpt lat="44.84354" lon="6.56608">
        <ele>1599.7</ele>
        <time>2024-08-18T14:47:53Z</time>
      </trkpt>
      <trkpt lat="44.84362" lon="6.56605">
        <ele>1600.5</ele>
        <time>2024-08-18T14:47:53Z</time>
      </trkpt>
      <trkpt lat="44.84374" lon="6.56598">
        <ele>1604.1</ele>
        <time>2024-08-18T14:47:53Z</time>
      </trkpt>
      <trkpt lat="44.84386" lon="6.56593">
        <ele>1606.2</ele>
        <time>2024-08-18T14:47:53Z</time>
      </trkpt>
      <trkpt lat="44.84398" lon="6.5659">
        <ele>1607.8</ele>
        <time>2024-08-18T14:47:53Z</time>
      </trkpt>
      <trkpt lat="44.84407" lon="6.56586">
        <ele>1609.2</ele>
        <time>2024-08-18T14:47:53Z</time>
      </trkpt>
      <trkpt lat="44.84419" lon="6.5658">
        <ele>1610.7</ele>
        <time>2024-08-18T14:47:53Z</time>
      </trkpt>
      <trkpt lat="44.84436" lon="6.56573">
        <ele>1613.5</ele>
        <time>2024-08-18T14:47:53Z</time>
      </trkpt>
      <trkpt lat="44.84447" lon="6.56569">
        <ele>1614.9</ele>
        <time>2024-08-18T14:47:53Z</time>
      </trkpt>
      <trkpt lat="44.84465" lon="6.56564">
        <ele>1617.1</ele>
        <time>2024-08-18T14:47:53Z</time>
      </trkpt>
      <trkpt lat="44.84484" lon="6.56557">
        <ele>1620.6</ele>
        <time>2024-08-18T14:47:53Z</time>
      </trkpt>
      <trkpt lat="44.84496" lon="6.56555">
        <ele>1621.5</ele>
        <time>2024-08-18T14:47:53Z</time>
      </trkpt>
      <trkpt lat="44.84507" lon="6.56552">
        <ele>1623.3</ele>
        <time>2024-08-18T14:47:53Z</time>
      </trkpt>
      <trkpt lat="44.84513" lon="6.56551">
        <ele>1624</ele>
        <time>2024-08-18T14:47:53Z</time>
      </trkpt>
      <trkpt lat="44.84522" lon="6.5655">
        <ele>1624.9</ele>
        <time>2024-08-18T14:47:53Z</time>
      </trkpt>
      <trkpt lat="44.84526" lon="6.56551">
        <ele>1625.3</ele>
        <time>2024-08-18T14:47:53Z</time>
      </trkpt>
      <trkpt lat="44.8453" lon="6.56552">
        <ele>1625.8</ele>
        <time>2024-08-18T14:47:53Z</time>
      </trkpt>
      <trkpt lat="44.84534" lon="6.56555">
        <ele>1625.2</ele>
        <time>2024-08-18T14:47:53Z</time>
      </trkpt>
      <trkpt lat="44.84537" lon="6.56559">
        <ele>1624.2</ele>
        <time>2024-08-18T14:47:53Z</time>
      </trkpt>
      <trkpt lat="44.84542" lon="6.56563">
        <ele>1624.2</ele>
        <time>2024-08-18T14:47:53Z</time>
      </trkpt>
      <trkpt lat="44.84546" lon="6.5657">
        <ele>1623.2</ele>
        <time>2024-08-18T14:47:53Z</time>
      </trkpt>
      <trkpt lat="44.84551" lon="6.56575">
        <ele>1622.4</ele>
        <time>2024-08-18T14:47:53Z</time>
      </trkpt>
      <trkpt lat="44.84562" lon="6.56586">
        <ele>1621.6</ele>
        <time>2024-08-18T14:47:53Z</time>
      </trkpt>
      <trkpt lat="44.84567" lon="6.56591">
        <ele>1621.2</ele>
        <time>2024-08-18T14:47:53Z</time>
      </trkpt>
      <trkpt lat="44.84574" lon="6.56595">
        <ele>1621.4</ele>
        <time>2024-08-18T14:47:53Z</time>
      </trkpt>
      <trkpt lat="44.84581" lon="6.56597">
        <ele>1621.5</ele>
        <time>2024-08-18T14:47:53Z</time>
      </trkpt>
      <trkpt lat="44.84589" lon="6.566">
        <ele>1621.8</ele>
        <time>2024-08-18T14:47:53Z</time>
      </trkpt>
      <trkpt lat="44.84597" lon="6.56601">
        <ele>1621.8</ele>
        <time>2024-08-18T14:47:53Z</time>
      </trkpt>
      <trkpt lat="44.84604" lon="6.56601">
        <ele>1622.4</ele>
        <time>2024-08-18T14:47:53Z</time>
      </trkpt>
      <trkpt lat="44.84611" lon="6.566">
        <ele>1623.5</ele>
        <time>2024-08-18T14:47:53Z</time>
      </trkpt>
      <trkpt lat="44.84618" lon="6.56599">
        <ele>1623.7</ele>
        <time>2024-08-18T14:47:53Z</time>
      </trkpt>
      <trkpt lat="44.84625" lon="6.56597">
        <ele>1623.9</ele>
        <time>2024-08-18T14:47:53Z</time>
      </trkpt>
      <trkpt lat="44.84634" lon="6.56592">
        <ele>1624.7</ele>
        <time>2024-08-18T14:47:53Z</time>
      </trkpt>
      <trkpt lat="44.84643" lon="6.56587">
        <ele>1626.2</ele>
        <time>2024-08-18T14:47:53Z</time>
      </trkpt>
      <trkpt lat="44.84654" lon="6.56579">
        <ele>1627.6</ele>
        <time>2024-08-18T14:47:53Z</time>
      </trkpt>
      <trkpt lat="44.84659" lon="6.56575">
        <ele>1627.6</ele>
        <time>2024-08-18T14:47:53Z</time>
      </trkpt>
      <trkpt lat="44.84665" lon="6.56568">
        <ele>1629.1</ele>
        <time>2024-08-18T14:47:53Z</time>
      </trkpt>
      <trkpt lat="44.8467" lon="6.56561">
        <ele>1630.8</ele>
        <time>2024-08-18T14:47:53Z</time>
      </trkpt>
      <trkpt lat="44.84675" lon="6.56558">
        <ele>1630.8</ele>
        <time>2024-08-18T14:47:53Z</time>
      </trkpt>
      <trkpt lat="44.84681" lon="6.56556">
        <ele>1631.7</ele>
        <time>2024-08-18T14:47:53Z</time>
      </trkpt>
      <trkpt lat="44.84687" lon="6.56555">
        <ele>1631.6</ele>
        <time>2024-08-18T14:47:53Z</time>
      </trkpt>
      <trkpt lat="44.84691" lon="6.56555">
        <ele>1631.6</ele>
        <time>2024-08-18T14:47:53Z</time>
      </trkpt>
      <trkpt lat="44.84699" lon="6.56556">
        <ele>1631.5</ele>
        <time>2024-08-18T14:47:53Z</time>
      </trkpt>
      <trkpt lat="44.84716" lon="6.56558">
        <ele>1630.4</ele>
        <time>2024-08-18T14:47:53Z</time>
      </trkpt>
      <trkpt lat="44.84729" lon="6.5656">
        <ele>1630.4</ele>
        <time>2024-08-18T14:47:53Z</time>
      </trkpt>
      <trkpt lat="44.8474" lon="6.56562">
        <ele>1629.3</ele>
        <time>2024-08-18T14:47:53Z</time>
      </trkpt>
      <trkpt lat="44.84766" lon="6.56564">
        <ele>1629</ele>
        <time>2024-08-18T14:47:53Z</time>
      </trkpt>
      <trkpt lat="44.84778" lon="6.56565">
        <ele>1628.8</ele>
        <time>2024-08-18T14:47:53Z</time>
      </trkpt>
      <trkpt lat="44.84786" lon="6.56564">
        <ele>1628.7</ele>
        <time>2024-08-18T14:47:53Z</time>
      </trkpt>
      <trkpt lat="44.848" lon="6.56562">
        <ele>1628.1</ele>
        <time>2024-08-18T14:47:53Z</time>
      </trkpt>
      <trkpt lat="44.84811" lon="6.56559">
        <ele>1628.7</ele>
        <time>2024-08-18T14:47:53Z</time>
      </trkpt>
      <trkpt lat="44.84818" lon="6.56557">
        <ele>1629.4</ele>
        <time>2024-08-18T14:47:53Z</time>
      </trkpt>
      <trkpt lat="44.84828" lon="6.56553">
        <ele>1630</ele>
        <time>2024-08-18T14:47:53Z</time>
      </trkpt>
      <trkpt lat="44.84842" lon="6.56548">
        <ele>1630.3</ele>
        <time>2024-08-18T14:47:53Z</time>
      </trkpt>
      <trkpt lat="44.84858" lon="6.56542">
        <ele>1630</ele>
        <time>2024-08-18T14:47:53Z</time>
      </trkpt>
      <trkpt lat="44.84867" lon="6.56539">
        <ele>1630.3</ele>
        <time>2024-08-18T14:47:53Z</time>
      </trkpt>
      <trkpt lat="44.84873" lon="6.56537">
        <ele>1629.3</ele>
        <time>2024-08-18T14:47:53Z</time>
      </trkpt>
      <trkpt lat="44.84881" lon="6.56536">
        <ele>1629.8</ele>
        <time>2024-08-18T14:47:53Z</time>
      </trkpt>
      <trkpt lat="44.84896" lon="6.56535">
        <ele>1628.2</ele>
        <time>2024-08-18T14:47:53Z</time>
      </trkpt>
      <trkpt lat="44.84904" lon="6.56534">
        <ele>1627.2</ele>
        <time>2024-08-18T14:47:53Z</time>
      </trkpt>
      <trkpt lat="44.84915" lon="6.56532">
        <ele>1626.2</ele>
        <time>2024-08-18T14:47:53Z</time>
      </trkpt>
      <trkpt lat="44.84922" lon="6.5653">
        <ele>1626.9</ele>
        <time>2024-08-18T14:47:53Z</time>
      </trkpt>
      <trkpt lat="44.84935" lon="6.56525">
        <ele>1627.4</ele>
        <time>2024-08-18T14:47:53Z</time>
      </trkpt>
      <trkpt lat="44.84958" lon="6.56515">
        <ele>1630</ele>
        <time>2024-08-18T14:47:53Z</time>
      </trkpt>
      <trkpt lat="44.84966" lon="6.56512">
        <ele>1631.9</ele>
        <time>2024-08-18T14:47:53Z</time>
      </trkpt>
      <trkpt lat="44.84971" lon="6.56511">
        <ele>1631.6</ele>
        <time>2024-08-18T14:47:53Z</time>
      </trkpt>
      <trkpt lat="44.84976" lon="6.5651">
        <ele>1634.2</ele>
        <time>2024-08-18T14:47:53Z</time>
      </trkpt>
      <trkpt lat="44.84981" lon="6.56509">
        <ele>1634.6</ele>
        <time>2024-08-18T14:47:53Z</time>
      </trkpt>
      <trkpt lat="44.84988" lon="6.5651">
        <ele>1635.1</ele>
        <time>2024-08-18T14:47:53Z</time>
      </trkpt>
      <trkpt lat="44.85002" lon="6.56513">
        <ele>1634.7</ele>
        <time>2024-08-18T14:47:53Z</time>
      </trkpt>
      <trkpt lat="44.85023" lon="6.56516">
        <ele>1635.3</ele>
        <time>2024-08-18T14:47:53Z</time>
      </trkpt>
      <trkpt lat="44.85032" lon="6.56517">
        <ele>1637</ele>
        <time>2024-08-18T14:47:53Z</time>
      </trkpt>
      <trkpt lat="44.85039" lon="6.56518">
        <ele>1638</ele>
        <time>2024-08-18T14:47:53Z</time>
      </trkpt>
      <trkpt lat="44.85047" lon="6.5652">
        <ele>1636.9</ele>
        <time>2024-08-18T14:47:53Z</time>
      </trkpt>
      <trkpt lat="44.85054" lon="6.56522">
        <ele>1638.7</ele>
        <time>2024-08-18T14:47:53Z</time>
      </trkpt>
      <trkpt lat="44.85059" lon="6.56524">
        <ele>1636.3</ele>
        <time>2024-08-18T14:47:53Z</time>
      </trkpt>
      <trkpt lat="44.85066" lon="6.56525">
        <ele>1637.8</ele>
        <time>2024-08-18T14:47:53Z</time>
      </trkpt>
      <trkpt lat="44.85079" lon="6.56527">
        <ele>1639.3</ele>
        <time>2024-08-18T14:47:53Z</time>
      </trkpt>
      <trkpt lat="44.85091" lon="6.56528">
        <ele>1637.7</ele>
        <time>2024-08-18T14:47:53Z</time>
      </trkpt>
      <trkpt lat="44.85102" lon="6.56531">
        <ele>1639.7</ele>
        <time>2024-08-18T14:47:53Z</time>
      </trkpt>
      <trkpt lat="44.85109" lon="6.56532">
        <ele>1639.9</ele>
        <time>2024-08-18T14:47:53Z</time>
      </trkpt>
      <trkpt lat="44.85117" lon="6.56533">
        <ele>1641.7</ele>
        <time>2024-08-18T14:47:53Z</time>
      </trkpt>
      <trkpt lat="44.85123" lon="6.56535">
        <ele>1642.4</ele>
        <time>2024-08-18T14:47:53Z</time>
      </trkpt>
      <trkpt lat="44.85128" lon="6.56538">
        <ele>1641.4</ele>
        <time>2024-08-18T14:47:53Z</time>
      </trkpt>
      <trkpt lat="44.85138" lon="6.56545">
        <ele>1639.4</ele>
        <time>2024-08-18T14:47:53Z</time>
      </trkpt>
      <trkpt lat="44.85144" lon="6.5655">
        <ele>1638.9</ele>
        <time>2024-08-18T14:47:53Z</time>
      </trkpt>
      <trkpt lat="44.8515" lon="6.56553">
        <ele>1639.2</ele>
        <time>2024-08-18T14:47:53Z</time>
      </trkpt>
      <trkpt lat="44.85155" lon="6.56553">
        <ele>1639.5</ele>
        <time>2024-08-18T14:47:53Z</time>
      </trkpt>
      <trkpt lat="44.85162" lon="6.5655">
        <ele>1639.7</ele>
        <time>2024-08-18T14:47:53Z</time>
      </trkpt>
      <trkpt lat="44.85168" lon="6.56546">
        <ele>1640.8</ele>
        <time>2024-08-18T14:47:53Z</time>
      </trkpt>
      <trkpt lat="44.8518" lon="6.56538">
        <ele>1642.4</ele>
        <time>2024-08-18T14:47:53Z</time>
      </trkpt>
      <trkpt lat="44.85185" lon="6.56534">
        <ele>1643.2</ele>
        <time>2024-08-18T14:47:53Z</time>
      </trkpt>
      <trkpt lat="44.85192" lon="6.56529">
        <ele>1643.6</ele>
        <time>2024-08-18T14:47:53Z</time>
      </trkpt>
      <trkpt lat="44.85197" lon="6.56526">
        <ele>1644.4</ele>
        <time>2024-08-18T14:47:53Z</time>
      </trkpt>
      <trkpt lat="44.85201" lon="6.56525">
        <ele>1644</ele>
        <time>2024-08-18T14:47:53Z</time>
      </trkpt>
      <trkpt lat="44.85208" lon="6.56524">
        <ele>1643.1</ele>
        <time>2024-08-18T14:47:53Z</time>
      </trkpt>
      <trkpt lat="44.85214" lon="6.56524">
        <ele>1642.7</ele>
        <time>2024-08-18T14:47:53Z</time>
      </trkpt>
      <trkpt lat="44.85222" lon="6.56526">
        <ele>1641.8</ele>
        <time>2024-08-18T14:47:53Z</time>
      </trkpt>
      <trkpt lat="44.85227" lon="6.56526">
        <ele>1641.3</ele>
        <time>2024-08-18T14:47:53Z</time>
      </trkpt>
      <trkpt lat="44.85232" lon="6.56525">
        <ele>1640.7</ele>
        <time>2024-08-18T14:47:53Z</time>
      </trkpt>
      <trkpt lat="44.85237" lon="6.56523">
        <ele>1641.7</ele>
        <time>2024-08-18T14:47:53Z</time>
      </trkpt>
      <trkpt lat="44.85241" lon="6.56519">
        <ele>1641</ele>
        <time>2024-08-18T14:47:53Z</time>
      </trkpt>
      <trkpt lat="44.85247" lon="6.56514">
        <ele>1642.7</ele>
        <time>2024-08-18T14:47:53Z</time>
      </trkpt>
      <trkpt lat="44.85251" lon="6.5651">
        <ele>1643.6</ele>
        <time>2024-08-18T14:47:53Z</time>
      </trkpt>
      <trkpt lat="44.85259" lon="6.56506">
        <ele>1643.7</ele>
        <time>2024-08-18T14:47:53Z</time>
      </trkpt>
      <trkpt lat="44.85271" lon="6.56501">
        <ele>1644</ele>
        <time>2024-08-18T14:47:53Z</time>
      </trkpt>
      <trkpt lat="44.8528" lon="6.56496">
        <ele>1644.4</ele>
        <time>2024-08-18T14:47:53Z</time>
      </trkpt>
      <trkpt lat="44.85287" lon="6.56492">
        <ele>1644.9</ele>
        <time>2024-08-18T14:47:53Z</time>
      </trkpt>
      <trkpt lat="44.85295" lon="6.56489">
        <ele>1643.3</ele>
        <time>2024-08-18T14:47:53Z</time>
      </trkpt>
      <trkpt lat="44.85302" lon="6.56485">
        <ele>1643.8</ele>
        <time>2024-08-18T14:47:53Z</time>
      </trkpt>
      <trkpt lat="44.85307" lon="6.56483">
        <ele>1645.3</ele>
        <time>2024-08-18T14:47:53Z</time>
      </trkpt>
      <trkpt lat="44.85314" lon="6.56482">
        <ele>1644.4</ele>
        <time>2024-08-18T14:47:53Z</time>
      </trkpt>
      <trkpt lat="44.85319" lon="6.56482">
        <ele>1642.7</ele>
        <time>2024-08-18T14:47:53Z</time>
      </trkpt>
      <trkpt lat="44.85328" lon="6.5648">
        <ele>1643.5</ele>
        <time>2024-08-18T14:47:53Z</time>
      </trkpt>
      <trkpt lat="44.85332" lon="6.56479">
        <ele>1642.6</ele>
        <time>2024-08-18T14:47:53Z</time>
      </trkpt>
      <trkpt lat="44.85338" lon="6.56475">
        <ele>1644.4</ele>
        <time>2024-08-18T14:47:53Z</time>
      </trkpt>
      <trkpt lat="44.85345" lon="6.56471">
        <ele>1645.4</ele>
        <time>2024-08-18T14:47:53Z</time>
      </trkpt>
      <trkpt lat="44.85354" lon="6.56465">
        <ele>1646.8</ele>
        <time>2024-08-18T14:47:53Z</time>
      </trkpt>
      <trkpt lat="44.85361" lon="6.56462">
        <ele>1648.7</ele>
        <time>2024-08-18T14:47:53Z</time>
      </trkpt>
      <trkpt lat="44.85367" lon="6.5646">
        <ele>1648.1</ele>
        <time>2024-08-18T14:47:53Z</time>
      </trkpt>
      <trkpt lat="44.85375" lon="6.56459">
        <ele>1647.7</ele>
        <time>2024-08-18T14:47:53Z</time>
      </trkpt>
      <trkpt lat="44.8538" lon="6.56459">
        <ele>1647.7</ele>
        <time>2024-08-18T14:47:53Z</time>
      </trkpt>
      <trkpt lat="44.85386" lon="6.5646">
        <ele>1647.8</ele>
        <time>2024-08-18T14:47:53Z</time>
      </trkpt>
      <trkpt lat="44.85393" lon="6.56462">
        <ele>1648.2</ele>
        <time>2024-08-18T14:47:53Z</time>
      </trkpt>
      <trkpt lat="44.85398" lon="6.56464">
        <ele>1646.6</ele>
        <time>2024-08-18T14:47:53Z</time>
      </trkpt>
      <trkpt lat="44.85404" lon="6.56466">
        <ele>1646.9</ele>
        <time>2024-08-18T14:47:53Z</time>
      </trkpt>
      <trkpt lat="44.85413" lon="6.56467">
        <ele>1647.6</ele>
        <time>2024-08-18T14:47:53Z</time>
      </trkpt>
      <trkpt lat="44.8542" lon="6.56468">
        <ele>1646.7</ele>
        <time>2024-08-18T14:47:53Z</time>
      </trkpt>
      <trkpt lat="44.85424" lon="6.56468">
        <ele>1647</ele>
        <time>2024-08-18T14:47:53Z</time>
      </trkpt>
      <trkpt lat="44.8543" lon="6.56466">
        <ele>1649</ele>
        <time>2024-08-18T14:47:53Z</time>
      </trkpt>
      <trkpt lat="44.85436" lon="6.56463">
        <ele>1651.2</ele>
        <time>2024-08-18T14:47:53Z</time>
      </trkpt>
      <trkpt lat="44.85441" lon="6.56461">
        <ele>1651.5</ele>
        <time>2024-08-18T14:47:53Z</time>
      </trkpt>
      <trkpt lat="44.85447" lon="6.56461">
        <ele>1651.9</ele>
        <time>2024-08-18T14:47:53Z</time>
      </trkpt>
      <trkpt lat="44.85451" lon="6.56462">
        <ele>1652.2</ele>
        <time>2024-08-18T14:47:53Z</time>
      </trkpt>
      <trkpt lat="44.85456" lon="6.56464">
        <ele>1651.4</ele>
        <time>2024-08-18T14:47:53Z</time>
      </trkpt>
      <trkpt lat="44.85465" lon="6.56467">
        <ele>1652.4</ele>
        <time>2024-08-18T14:47:53Z</time>
      </trkpt>
      <trkpt lat="44.85473" lon="6.56469">
        <ele>1651.3</ele>
        <time>2024-08-18T14:47:53Z</time>
      </trkpt>
      <trkpt lat="44.85479" lon="6.56471">
        <ele>1652.6</ele>
        <time>2024-08-18T14:47:53Z</time>
      </trkpt>
      <trkpt lat="44.85486" lon="6.56472">
        <ele>1651.7</ele>
        <time>2024-08-18T14:47:53Z</time>
      </trkpt>
      <trkpt lat="44.8549" lon="6.56474">
        <ele>1652.6</ele>
        <time>2024-08-18T14:47:53Z</time>
      </trkpt>
      <trkpt lat="44.85494" lon="6.56476">
        <ele>1653.5</ele>
        <time>2024-08-18T14:47:53Z</time>
      </trkpt>
      <trkpt lat="44.85497" lon="6.5648">
        <ele>1653</ele>
        <time>2024-08-18T14:47:53Z</time>
      </trkpt>
      <trkpt lat="44.85501" lon="6.56484">
        <ele>1652.6</ele>
        <time>2024-08-18T14:47:53Z</time>
      </trkpt>
      <trkpt lat="44.85507" lon="6.5649">
        <ele>1650.8</ele>
        <time>2024-08-18T14:47:53Z</time>
      </trkpt>
      <trkpt lat="44.85514" lon="6.56498">
        <ele>1650.6</ele>
        <time>2024-08-18T14:47:53Z</time>
      </trkpt>
      <trkpt lat="44.85518" lon="6.56502">
        <ele>1650.6</ele>
        <time>2024-08-18T14:47:53Z</time>
      </trkpt>
      <trkpt lat="44.85524" lon="6.56506">
        <ele>1652.1</ele>
        <time>2024-08-18T14:47:53Z</time>
      </trkpt>
      <trkpt lat="44.85528" lon="6.56509">
        <ele>1652.3</ele>
        <time>2024-08-18T14:47:53Z</time>
      </trkpt>
      <trkpt lat="44.85532" lon="6.56511">
        <ele>1652.5</ele>
        <time>2024-08-18T14:47:53Z</time>
      </trkpt>
      <trkpt lat="44.85536" lon="6.56511">
        <ele>1654.1</ele>
        <time>2024-08-18T14:47:53Z</time>
      </trkpt>
      <trkpt lat="44.8554" lon="6.56512">
        <ele>1655.7</ele>
        <time>2024-08-18T14:47:53Z</time>
      </trkpt>
      <trkpt lat="44.85543" lon="6.56514">
        <ele>1657.4</ele>
        <time>2024-08-18T14:47:53Z</time>
      </trkpt>
      <trkpt lat="44.85547" lon="6.56517">
        <ele>1657.8</ele>
        <time>2024-08-18T14:47:53Z</time>
      </trkpt>
      <trkpt lat="44.85549" lon="6.5652">
        <ele>1656.5</ele>
        <time>2024-08-18T14:47:53Z</time>
      </trkpt>
      <trkpt lat="44.85553" lon="6.56525">
        <ele>1657</ele>
        <time>2024-08-18T14:47:53Z</time>
      </trkpt>
      <trkpt lat="44.85555" lon="6.56529">
        <ele>1657.5</ele>
        <time>2024-08-18T14:47:53Z</time>
      </trkpt>
      <trkpt lat="44.85556" lon="6.56534">
        <ele>1656.3</ele>
        <time>2024-08-18T14:47:53Z</time>
      </trkpt>
      <trkpt lat="44.85557" lon="6.56542">
        <ele>1654.1</ele>
        <time>2024-08-18T14:47:53Z</time>
      </trkpt>
      <trkpt lat="44.85557" lon="6.5655">
        <ele>1652.1</ele>
        <time>2024-08-18T14:47:53Z</time>
      </trkpt>
      <trkpt lat="44.85558" lon="6.56561">
        <ele>1650.2</ele>
        <time>2024-08-18T14:47:53Z</time>
      </trkpt>
      <trkpt lat="44.8556" lon="6.56564">
        <ele>1650.8</ele>
        <time>2024-08-18T14:47:53Z</time>
      </trkpt>
      <trkpt lat="44.85561" lon="6.56567">
        <ele>1649.9</ele>
        <time>2024-08-18T14:47:53Z</time>
      </trkpt>
      <trkpt lat="44.85564" lon="6.56569">
        <ele>1651.2</ele>
        <time>2024-08-18T14:47:53Z</time>
      </trkpt>
      <trkpt lat="44.85566" lon="6.56569">
        <ele>1651.2</ele>
        <time>2024-08-18T14:47:53Z</time>
      </trkpt>
      <trkpt lat="44.85571" lon="6.56569">
        <ele>1652.5</ele>
        <time>2024-08-18T14:47:53Z</time>
      </trkpt>
      <trkpt lat="44.85574" lon="6.56568">
        <ele>1653.7</ele>
        <time>2024-08-18T14:47:53Z</time>
      </trkpt>
      <trkpt lat="44.8558" lon="6.56567">
        <ele>1654.9</ele>
        <time>2024-08-18T14:47:53Z</time>
      </trkpt>
      <trkpt lat="44.85587" lon="6.56567">
        <ele>1657.3</ele>
        <time>2024-08-18T14:47:53Z</time>
      </trkpt>
      <trkpt lat="44.85597" lon="6.56569">
        <ele>1659.5</ele>
        <time>2024-08-18T14:47:53Z</time>
      </trkpt>
      <trkpt lat="44.85604" lon="6.5657">
        <ele>1661.7</ele>
        <time>2024-08-18T14:47:53Z</time>
      </trkpt>
      <trkpt lat="44.85613" lon="6.56572">
        <ele>1662.2</ele>
        <time>2024-08-18T14:47:53Z</time>
      </trkpt>
      <trkpt lat="44.85619" lon="6.56574">
        <ele>1663.2</ele>
        <time>2024-08-18T14:47:53Z</time>
      </trkpt>
      <trkpt lat="44.85627" lon="6.56578">
        <ele>1663.4</ele>
        <time>2024-08-18T14:47:53Z</time>
      </trkpt>
      <trkpt lat="44.85631" lon="6.56582">
        <ele>1662.6</ele>
        <time>2024-08-18T14:47:53Z</time>
      </trkpt>
      <trkpt lat="44.85638" lon="6.56586">
        <ele>1662.4</ele>
        <time>2024-08-18T14:47:53Z</time>
      </trkpt>
      <trkpt lat="44.85644" lon="6.5659">
        <ele>1661.3</ele>
        <time>2024-08-18T14:47:53Z</time>
      </trkpt>
      <trkpt lat="44.85651" lon="6.56595">
        <ele>1660.8</ele>
        <time>2024-08-18T14:47:53Z</time>
      </trkpt>
      <trkpt lat="44.85659" lon="6.56598">
        <ele>1660.1</ele>
        <time>2024-08-18T14:47:53Z</time>
      </trkpt>
      <trkpt lat="44.85667" lon="6.56601">
        <ele>1659.4</ele>
        <time>2024-08-18T14:47:53Z</time>
      </trkpt>
      <trkpt lat="44.85672" lon="6.56601">
        <ele>1660</ele>
        <time>2024-08-18T14:47:53Z</time>
      </trkpt>
      <trkpt lat="44.85678" lon="6.56601">
        <ele>1660.6</ele>
        <time>2024-08-18T14:47:53Z</time>
      </trkpt>
      <trkpt lat="44.85685" lon="6.56599">
        <ele>1663.7</ele>
        <time>2024-08-18T14:47:53Z</time>
      </trkpt>
      <trkpt lat="44.85692" lon="6.56598">
        <ele>1664.1</ele>
        <time>2024-08-18T14:47:53Z</time>
      </trkpt>
      <trkpt lat="44.85699" lon="6.56597">
        <ele>1664.8</ele>
        <time>2024-08-18T14:47:53Z</time>
      </trkpt>
      <trkpt lat="44.85707" lon="6.56596">
        <ele>1667.2</ele>
        <time>2024-08-18T14:47:53Z</time>
      </trkpt>
      <trkpt lat="44.85714" lon="6.56596">
        <ele>1667.2</ele>
        <time>2024-08-18T14:47:53Z</time>
      </trkpt>
      <trkpt lat="44.8572" lon="6.56594">
        <ele>1667.1</ele>
        <time>2024-08-18T14:47:53Z</time>
      </trkpt>
      <trkpt lat="44.85726" lon="6.56591">
        <ele>1668.6</ele>
        <time>2024-08-18T14:47:53Z</time>
      </trkpt>
      <trkpt lat="44.8573" lon="6.56588">
        <ele>1668.3</ele>
        <time>2024-08-18T14:47:53Z</time>
      </trkpt>
      <trkpt lat="44.85736" lon="6.56583">
        <ele>1670.7</ele>
        <time>2024-08-18T14:47:53Z</time>
      </trkpt>
      <trkpt lat="44.85741" lon="6.56577">
        <ele>1671.6</ele>
        <time>2024-08-18T14:47:53Z</time>
      </trkpt>
      <trkpt lat="44.85747" lon="6.5657">
        <ele>1674.1</ele>
        <time>2024-08-18T14:47:53Z</time>
      </trkpt>
      <trkpt lat="44.85752" lon="6.56563">
        <ele>1674.9</ele>
        <time>2024-08-18T14:47:53Z</time>
      </trkpt>
      <trkpt lat="44.85758" lon="6.56555">
        <ele>1676.3</ele>
        <time>2024-08-18T14:47:53Z</time>
      </trkpt>
      <trkpt lat="44.85762" lon="6.56547">
        <ele>1678.6</ele>
        <time>2024-08-18T14:47:53Z</time>
      </trkpt>
      <trkpt lat="44.85767" lon="6.5654">
        <ele>1680.9</ele>
        <time>2024-08-18T14:47:53Z</time>
      </trkpt>
      <trkpt lat="44.85773" lon="6.56534">
        <ele>1681.7</ele>
        <time>2024-08-18T14:47:53Z</time>
      </trkpt>
      <trkpt lat="44.85782" lon="6.56527">
        <ele>1683.4</ele>
        <time>2024-08-18T14:47:53Z</time>
      </trkpt>
      <trkpt lat="44.8579" lon="6.5652">
        <ele>1683.5</ele>
        <time>2024-08-18T14:47:53Z</time>
      </trkpt>
      <trkpt lat="44.85799" lon="6.56513">
        <ele>1685.6</ele>
        <time>2024-08-18T14:47:53Z</time>
      </trkpt>
      <trkpt lat="44.85801" lon="6.56511">
        <ele>1684.9</ele>
        <time>2024-08-18T14:47:53Z</time>
      </trkpt>
      <trkpt lat="44.85808" lon="6.56507">
        <ele>1685.4</ele>
        <time>2024-08-18T14:47:53Z</time>
      </trkpt>
      <trkpt lat="44.85818" lon="6.56501">
        <ele>1687.9</ele>
        <time>2024-08-18T14:47:53Z</time>
      </trkpt>
      <trkpt lat="44.85825" lon="6.56498">
        <ele>1687.1</ele>
        <time>2024-08-18T14:47:53Z</time>
      </trkpt>
      <trkpt lat="44.85855" lon="6.56485">
        <ele>1687.2</ele>
        <time>2024-08-18T14:47:53Z</time>
      </trkpt>
      <trkpt lat="44.85863" lon="6.56482">
        <ele>1686.9</ele>
        <time>2024-08-18T14:47:53Z</time>
      </trkpt>
      <trkpt lat="44.85868" lon="6.56479">
        <ele>1686.2</ele>
        <time>2024-08-18T14:47:53Z</time>
      </trkpt>
      <trkpt lat="44.85874" lon="6.56475">
        <ele>1686.6</ele>
        <time>2024-08-18T14:47:53Z</time>
      </trkpt>
      <trkpt lat="44.8588" lon="6.56468">
        <ele>1686.8</ele>
        <time>2024-08-18T14:47:53Z</time>
      </trkpt>
      <trkpt lat="44.85885" lon="6.56462">
        <ele>1688.5</ele>
        <time>2024-08-18T14:47:53Z</time>
      </trkpt>
      <trkpt lat="44.85889" lon="6.56455">
        <ele>1688.2</ele>
        <time>2024-08-18T14:47:53Z</time>
      </trkpt>
      <trkpt lat="44.85893" lon="6.56449">
        <ele>1689.1</ele>
        <time>2024-08-18T14:47:53Z</time>
      </trkpt>
      <trkpt lat="44.85895" lon="6.56441">
        <ele>1689.5</ele>
        <time>2024-08-18T14:47:53Z</time>
      </trkpt>
      <trkpt lat="44.85897" lon="6.56436">
        <ele>1690.6</ele>
        <time>2024-08-18T14:47:53Z</time>
      </trkpt>
      <trkpt lat="44.85897" lon="6.56429">
        <ele>1691.6</ele>
        <time>2024-08-18T14:47:53Z</time>
      </trkpt>
      <trkpt lat="44.85897" lon="6.56421">
        <ele>1693.5</ele>
        <time>2024-08-18T14:47:53Z</time>
      </trkpt>
      <trkpt lat="44.85897" lon="6.56414">
        <ele>1695.1</ele>
        <time>2024-08-18T14:47:53Z</time>
      </trkpt>
      <trkpt lat="44.85897" lon="6.56407">
        <ele>1696.6</ele>
        <time>2024-08-18T14:47:53Z</time>
      </trkpt>
      <trkpt lat="44.85895" lon="6.56399">
        <ele>1697.4</ele>
        <time>2024-08-18T14:47:53Z</time>
      </trkpt>
      <trkpt lat="44.85895" lon="6.5639">
        <ele>1699.5</ele>
        <time>2024-08-18T14:47:53Z</time>
      </trkpt>
      <trkpt lat="44.85894" lon="6.56381">
        <ele>1700.8</ele>
        <time>2024-08-18T14:47:53Z</time>
      </trkpt>
      <trkpt lat="44.85895" lon="6.56375">
        <ele>1701.4</ele>
        <time>2024-08-18T14:47:53Z</time>
      </trkpt>
      <trkpt lat="44.85895" lon="6.56369">
        <ele>1702.1</ele>
        <time>2024-08-18T14:47:53Z</time>
      </trkpt>
      <trkpt lat="44.85897" lon="6.56363">
        <ele>1703.3</ele>
        <time>2024-08-18T14:47:53Z</time>
      </trkpt>
      <trkpt lat="44.85899" lon="6.56355">
        <ele>1702.3</ele>
        <time>2024-08-18T14:47:53Z</time>
      </trkpt>
      <trkpt lat="44.85901" lon="6.56351">
        <ele>1702.9</ele>
        <time>2024-08-18T14:47:53Z</time>
      </trkpt>
      <trkpt lat="44.85905" lon="6.56345">
        <ele>1701.1</ele>
        <time>2024-08-18T14:47:53Z</time>
      </trkpt>
      <trkpt lat="44.85909" lon="6.56337">
        <ele>1699.6</ele>
        <time>2024-08-18T14:47:53Z</time>
      </trkpt>
      <trkpt lat="44.85912" lon="6.5633">
        <ele>1697.7</ele>
        <time>2024-08-18T14:47:53Z</time>
      </trkpt>
      <trkpt lat="44.85915" lon="6.56323">
        <ele>1697.9</ele>
        <time>2024-08-18T14:47:53Z</time>
      </trkpt>
      <trkpt lat="44.85917" lon="6.56317">
        <ele>1695.6</ele>
        <time>2024-08-18T14:47:53Z</time>
      </trkpt>
      <trkpt lat="44.85918" lon="6.56312">
        <ele>1695.6</ele>
        <time>2024-08-18T14:47:53Z</time>
      </trkpt>
      <trkpt lat="44.85918" lon="6.5631">
        <ele>1695.6</ele>
        <time>2024-08-18T14:47:53Z</time>
      </trkpt>
      <trkpt lat="44.85918" lon="6.56305">
        <ele>1695.7</ele>
        <time>2024-08-18T14:47:53Z</time>
      </trkpt>
      <trkpt lat="44.85917" lon="6.56299">
        <ele>1695.8</ele>
        <time>2024-08-18T14:47:53Z</time>
      </trkpt>
      <trkpt lat="44.85915" lon="6.56289">
        <ele>1698.8</ele>
        <time>2024-08-18T14:47:53Z</time>
      </trkpt>
      <trkpt lat="44.85913" lon="6.56279">
        <ele>1699.1</ele>
        <time>2024-08-18T14:47:53Z</time>
      </trkpt>
      <trkpt lat="44.85911" lon="6.56271">
        <ele>1699.5</ele>
        <time>2024-08-18T14:47:53Z</time>
      </trkpt>
      <trkpt lat="44.85911" lon="6.56263">
        <ele>1699.9</ele>
        <time>2024-08-18T14:47:53Z</time>
      </trkpt>
      <trkpt lat="44.85912" lon="6.56254">
        <ele>1700.5</ele>
        <time>2024-08-18T14:47:53Z</time>
      </trkpt>
      <trkpt lat="44.85913" lon="6.56247">
        <ele>1701.2</ele>
        <time>2024-08-18T14:47:53Z</time>
      </trkpt>
      <trkpt lat="44.85915" lon="6.56241">
        <ele>1701.5</ele>
        <time>2024-08-18T14:47:53Z</time>
      </trkpt>
      <trkpt lat="44.85919" lon="6.56232">
        <ele>1699.4</ele>
        <time>2024-08-18T14:47:53Z</time>
      </trkpt>
      <trkpt lat="44.85921" lon="6.56227">
        <ele>1697.2</ele>
        <time>2024-08-18T14:47:53Z</time>
      </trkpt>
      <trkpt lat="44.85921" lon="6.56221">
        <ele>1697.6</ele>
        <time>2024-08-18T14:47:53Z</time>
      </trkpt>
      <trkpt lat="44.85921" lon="6.56213">
        <ele>1698.4</ele>
        <time>2024-08-18T14:47:53Z</time>
      </trkpt>
      <trkpt lat="44.85921" lon="6.56204">
        <ele>1699.1</ele>
        <time>2024-08-18T14:47:53Z</time>
      </trkpt>
      <trkpt lat="44.85921" lon="6.56192">
        <ele>1700.2</ele>
        <time>2024-08-18T14:47:53Z</time>
      </trkpt>
      <trkpt lat="44.85922" lon="6.56175">
        <ele>1701.7</ele>
        <time>2024-08-18T14:47:53Z</time>
      </trkpt>
      <trkpt lat="44.85923" lon="6.5616">
        <ele>1702.8</ele>
        <time>2024-08-18T14:47:53Z</time>
      </trkpt>
      <trkpt lat="44.85923" lon="6.56146">
        <ele>1703.9</ele>
        <time>2024-08-18T14:47:53Z</time>
      </trkpt>
      <trkpt lat="44.85923" lon="6.56133">
        <ele>1705.2</ele>
        <time>2024-08-18T14:47:53Z</time>
      </trkpt>
      <trkpt lat="44.85924" lon="6.56123">
        <ele>1703.8</ele>
        <time>2024-08-18T14:47:53Z</time>
      </trkpt>
      <trkpt lat="44.85925" lon="6.56113">
        <ele>1704.6</ele>
        <time>2024-08-18T14:47:53Z</time>
      </trkpt>
      <trkpt lat="44.85926" lon="6.56106">
        <ele>1705.5</ele>
        <time>2024-08-18T14:47:53Z</time>
      </trkpt>
      <trkpt lat="44.85928" lon="6.56097">
        <ele>1706.5</ele>
        <time>2024-08-18T14:47:53Z</time>
      </trkpt>
      <trkpt lat="44.85931" lon="6.56091">
        <ele>1704.4</ele>
        <time>2024-08-18T14:47:53Z</time>
      </trkpt>
      <trkpt lat="44.85936" lon="6.56083">
        <ele>1702.9</ele>
        <time>2024-08-18T14:47:53Z</time>
      </trkpt>
      <trkpt lat="44.85939" lon="6.56074">
        <ele>1701.6</ele>
        <time>2024-08-18T14:47:53Z</time>
      </trkpt>
      <trkpt lat="44.85941" lon="6.56066">
        <ele>1700.3</ele>
        <time>2024-08-18T14:47:53Z</time>
      </trkpt>
      <trkpt lat="44.85943" lon="6.56058">
        <ele>1701.9</ele>
        <time>2024-08-18T14:47:53Z</time>
      </trkpt>
      <trkpt lat="44.85944" lon="6.56049">
        <ele>1703.7</ele>
        <time>2024-08-18T14:47:53Z</time>
      </trkpt>
      <trkpt lat="44.85945" lon="6.56041">
        <ele>1705.7</ele>
        <time>2024-08-18T14:47:53Z</time>
      </trkpt>
      <trkpt lat="44.85948" lon="6.5603">
        <ele>1705</ele>
        <time>2024-08-18T14:47:53Z</time>
      </trkpt>
      <trkpt lat="44.8595" lon="6.56016">
        <ele>1706.9</ele>
        <time>2024-08-18T14:47:53Z</time>
      </trkpt>
      <trkpt lat="44.85953" lon="6.56006">
        <ele>1709.2</ele>
        <time>2024-08-18T14:47:53Z</time>
      </trkpt>
      <trkpt lat="44.85956" lon="6.56">
        <ele>1707.8</ele>
        <time>2024-08-18T14:47:53Z</time>
      </trkpt>
      <trkpt lat="44.8596" lon="6.55995">
        <ele>1707.7</ele>
        <time>2024-08-18T14:47:53Z</time>
      </trkpt>
      <trkpt lat="44.85964" lon="6.55988">
        <ele>1706.4</ele>
        <time>2024-08-18T14:47:53Z</time>
      </trkpt>
      <trkpt lat="44.85969" lon="6.55981">
        <ele>1706.5</ele>
        <time>2024-08-18T14:47:53Z</time>
      </trkpt>
      <trkpt lat="44.85976" lon="6.5597">
        <ele>1704.4</ele>
        <time>2024-08-18T14:47:53Z</time>
      </trkpt>
      <trkpt lat="44.8598" lon="6.55963">
        <ele>1704.7</ele>
        <time>2024-08-18T14:47:53Z</time>
      </trkpt>
      <trkpt lat="44.85987" lon="6.55956">
        <ele>1705.2</ele>
        <time>2024-08-18T14:47:53Z</time>
      </trkpt>
      <trkpt lat="44.85991" lon="6.55952">
        <ele>1704.4</ele>
        <time>2024-08-18T14:47:53Z</time>
      </trkpt>
      <trkpt lat="44.85995" lon="6.55948">
        <ele>1703.7</ele>
        <time>2024-08-18T14:47:53Z</time>
      </trkpt>
      <trkpt lat="44.86001" lon="6.55945">
        <ele>1701.5</ele>
        <time>2024-08-18T14:47:53Z</time>
      </trkpt>
      <trkpt lat="44.86007" lon="6.55943">
        <ele>1699.1</ele>
        <time>2024-08-18T14:47:53Z</time>
      </trkpt>
      <trkpt lat="44.86011" lon="6.55939">
        <ele>1699</ele>
        <time>2024-08-18T14:47:53Z</time>
      </trkpt>
      <trkpt lat="44.86013" lon="6.55937">
        <ele>1699</ele>
        <time>2024-08-18T14:47:53Z</time>
      </trkpt>
      <trkpt lat="44.86016" lon="6.55931">
        <ele>1699.2</ele>
        <time>2024-08-18T14:47:53Z</time>
      </trkpt>
      <trkpt lat="44.86019" lon="6.55924">
        <ele>1701.2</ele>
        <time>2024-08-18T14:47:53Z</time>
      </trkpt>
      <trkpt lat="44.86022" lon="6.55916">
        <ele>1703.9</ele>
        <time>2024-08-18T14:47:53Z</time>
      </trkpt>
      <trkpt lat="44.86024" lon="6.55909">
        <ele>1706.3</ele>
        <time>2024-08-18T14:47:53Z</time>
      </trkpt>
      <trkpt lat="44.86026" lon="6.55904">
        <ele>1707.6</ele>
        <time>2024-08-18T14:47:53Z</time>
      </trkpt>
      <trkpt lat="44.86027" lon="6.559">
        <ele>1709.1</ele>
        <time>2024-08-18T14:47:53Z</time>
      </trkpt>
      <trkpt lat="44.8603" lon="6.55898">
        <ele>1709.1</ele>
        <time>2024-08-18T14:47:53Z</time>
      </trkpt>
      <trkpt lat="44.86031" lon="6.55897">
        <ele>1709.1</ele>
        <time>2024-08-18T14:47:53Z</time>
      </trkpt>
      <trkpt lat="44.86034" lon="6.55897">
        <ele>1709.7</ele>
        <time>2024-08-18T14:47:53Z</time>
      </trkpt>
      <trkpt lat="44.86036" lon="6.55898">
        <ele>1710.7</ele>
        <time>2024-08-18T14:47:53Z</time>
      </trkpt>
      <trkpt lat="44.8604" lon="6.55902">
        <ele>1710.9</ele>
        <time>2024-08-18T14:47:53Z</time>
      </trkpt>
      <trkpt lat="44.86044" lon="6.55906">
        <ele>1711.3</ele>
        <time>2024-08-18T14:47:53Z</time>
      </trkpt>
      <trkpt lat="44.86048" lon="6.5591">
        <ele>1710.1</ele>
        <time>2024-08-18T14:47:53Z</time>
      </trkpt>
      <trkpt lat="44.86055" lon="6.5592">
        <ele>1711.7</ele>
        <time>2024-08-18T14:47:53Z</time>
      </trkpt>
      <trkpt lat="44.86061" lon="6.55929">
        <ele>1711.6</ele>
        <time>2024-08-18T14:47:53Z</time>
      </trkpt>
      <trkpt lat="44.86067" lon="6.55937">
        <ele>1713.9</ele>
        <time>2024-08-18T14:47:53Z</time>
      </trkpt>
      <trkpt lat="44.86073" lon="6.55946">
        <ele>1713.9</ele>
        <time>2024-08-18T14:47:53Z</time>
      </trkpt>
      <trkpt lat="44.86079" lon="6.55959">
        <ele>1714.8</ele>
        <time>2024-08-18T14:47:53Z</time>
      </trkpt>
      <trkpt lat="44.86086" lon="6.55971">
        <ele>1713.2</ele>
        <time>2024-08-18T14:47:53Z</time>
      </trkpt>
      <trkpt lat="44.86089" lon="6.55977">
        <ele>1713.8</ele>
        <time>2024-08-18T14:47:53Z</time>
      </trkpt>
      <trkpt lat="44.86093" lon="6.5598">
        <ele>1714.3</ele>
        <time>2024-08-18T14:47:53Z</time>
      </trkpt>
      <trkpt lat="44.86096" lon="6.55981">
        <ele>1715.9</ele>
        <time>2024-08-18T14:47:53Z</time>
      </trkpt>
      <trkpt lat="44.86099" lon="6.55981">
        <ele>1715.9</ele>
        <time>2024-08-18T14:47:53Z</time>
      </trkpt>
      <trkpt lat="44.86102" lon="6.5598">
        <ele>1717.5</ele>
        <time>2024-08-18T14:47:53Z</time>
      </trkpt>
      <trkpt lat="44.86104" lon="6.55978">
        <ele>1718.9</ele>
        <time>2024-08-18T14:47:53Z</time>
      </trkpt>
      <trkpt lat="44.86107" lon="6.55977">
        <ele>1720.4</ele>
        <time>2024-08-18T14:47:53Z</time>
      </trkpt>
      <trkpt lat="44.8611" lon="6.55975">
        <ele>1721.9</ele>
        <time>2024-08-18T14:47:53Z</time>
      </trkpt>
      <trkpt lat="44.86114" lon="6.55973">
        <ele>1724.8</ele>
        <time>2024-08-18T14:47:53Z</time>
      </trkpt>
      <trkpt lat="44.86117" lon="6.55973">
        <ele>1726.2</ele>
        <time>2024-08-18T14:47:53Z</time>
      </trkpt>
      <trkpt lat="44.8612" lon="6.55973">
        <ele>1726.2</ele>
        <time>2024-08-18T14:47:53Z</time>
      </trkpt>
      <trkpt lat="44.86123" lon="6.55974">
        <ele>1726</ele>
        <time>2024-08-18T14:47:53Z</time>
      </trkpt>
      <trkpt lat="44.86126" lon="6.55976">
        <ele>1727.2</ele>
        <time>2024-08-18T14:47:53Z</time>
      </trkpt>
      <trkpt lat="44.86129" lon="6.55978">
        <ele>1727.2</ele>
        <time>2024-08-18T14:47:53Z</time>
      </trkpt>
      <trkpt lat="44.86131" lon="6.55981">
        <ele>1726.7</ele>
        <time>2024-08-18T14:47:53Z</time>
      </trkpt>
      <trkpt lat="44.86134" lon="6.55985">
        <ele>1725</ele>
        <time>2024-08-18T14:47:53Z</time>
      </trkpt>
      <trkpt lat="44.86137" lon="6.5599">
        <ele>1724.4</ele>
        <time>2024-08-18T14:47:53Z</time>
      </trkpt>
      <trkpt lat="44.86142" lon="6.55998">
        <ele>1721.9</ele>
        <time>2024-08-18T14:47:53Z</time>
      </trkpt>
      <trkpt lat="44.86147" lon="6.56006">
        <ele>1719.7</ele>
        <time>2024-08-18T14:47:53Z</time>
      </trkpt>
      <trkpt lat="44.86151" lon="6.5601">
        <ele>1718</ele>
        <time>2024-08-18T14:47:53Z</time>
      </trkpt>
      <trkpt lat="44.86155" lon="6.56013">
        <ele>1716.6</ele>
        <time>2024-08-18T14:47:53Z</time>
      </trkpt>
      <trkpt lat="44.86159" lon="6.56014">
        <ele>1716.4</ele>
        <time>2024-08-18T14:47:53Z</time>
      </trkpt>
      <trkpt lat="44.86162" lon="6.56013">
        <ele>1715.8</ele>
        <time>2024-08-18T14:47:53Z</time>
      </trkpt>
      <trkpt lat="44.86167" lon="6.56011">
        <ele>1716.7</ele>
        <time>2024-08-18T14:47:53Z</time>
      </trkpt>
      <trkpt lat="44.86172" lon="6.56008">
        <ele>1717.3</ele>
        <time>2024-08-18T14:47:53Z</time>
      </trkpt>
      <trkpt lat="44.86176" lon="6.56003">
        <ele>1717.8</ele>
        <time>2024-08-18T14:47:53Z</time>
      </trkpt>
      <trkpt lat="44.86178" lon="6.55998">
        <ele>1718.2</ele>
        <time>2024-08-18T14:47:53Z</time>
      </trkpt>
      <trkpt lat="44.8618" lon="6.55993">
        <ele>1720.1</ele>
        <time>2024-08-18T14:47:53Z</time>
      </trkpt>
      <trkpt lat="44.86181" lon="6.55986">
        <ele>1723.8</ele>
        <time>2024-08-18T14:47:53Z</time>
      </trkpt>
      <trkpt lat="44.86182" lon="6.55979">
        <ele>1724.2</ele>
        <time>2024-08-18T14:47:53Z</time>
      </trkpt>
      <trkpt lat="44.86183" lon="6.55975">
        <ele>1726.1</ele>
        <time>2024-08-18T14:47:53Z</time>
      </trkpt>
      <trkpt lat="44.86185" lon="6.55972">
        <ele>1728</ele>
        <time>2024-08-18T14:47:53Z</time>
      </trkpt>
      <trkpt lat="44.86187" lon="6.5597">
        <ele>1726.5</ele>
        <time>2024-08-18T14:47:53Z</time>
      </trkpt>
      <trkpt lat="44.86191" lon="6.55967">
        <ele>1726.8</ele>
        <time>2024-08-18T14:47:53Z</time>
      </trkpt>
      <trkpt lat="44.86197" lon="6.55963">
        <ele>1727.1</ele>
        <time>2024-08-18T14:47:53Z</time>
      </trkpt>
      <trkpt lat="44.86202" lon="6.55959">
        <ele>1727.4</ele>
        <time>2024-08-18T14:47:53Z</time>
      </trkpt>
      <trkpt lat="44.86207" lon="6.55955">
        <ele>1727.7</ele>
        <time>2024-08-18T14:47:53Z</time>
      </trkpt>
      <trkpt lat="44.86215" lon="6.55947">
        <ele>1728.4</ele>
        <time>2024-08-18T14:47:53Z</time>
      </trkpt>
      <trkpt lat="44.86219" lon="6.55943">
        <ele>1728.8</ele>
        <time>2024-08-18T14:47:53Z</time>
      </trkpt>
      <trkpt lat="44.86223" lon="6.55939">
        <ele>1729.2</ele>
        <time>2024-08-18T14:47:53Z</time>
      </trkpt>
      <trkpt lat="44.86226" lon="6.55936">
        <ele>1727.4</ele>
        <time>2024-08-18T14:47:53Z</time>
      </trkpt>
      <trkpt lat="44.8623" lon="6.55932">
        <ele>1727.9</ele>
        <time>2024-08-18T14:47:53Z</time>
      </trkpt>
      <trkpt lat="44.86232" lon="6.55927">
        <ele>1730.2</ele>
        <time>2024-08-18T14:47:53Z</time>
      </trkpt>
      <trkpt lat="44.86234" lon="6.55921">
        <ele>1733.1</ele>
        <time>2024-08-18T14:47:53Z</time>
      </trkpt>
      <trkpt lat="44.86238" lon="6.55917">
        <ele>1733.9</ele>
        <time>2024-08-18T14:47:53Z</time>
      </trkpt>
      <trkpt lat="44.8624" lon="6.55913">
        <ele>1736.2</ele>
        <time>2024-08-18T14:47:53Z</time>
      </trkpt>
      <trkpt lat="44.86244" lon="6.5591">
        <ele>1734.8</ele>
        <time>2024-08-18T14:47:53Z</time>
      </trkpt>
      <trkpt lat="44.86249" lon="6.55908">
        <ele>1735.8</ele>
        <time>2024-08-18T14:47:53Z</time>
      </trkpt>
      <trkpt lat="44.86254" lon="6.55906">
        <ele>1734.6</ele>
        <time>2024-08-18T14:47:53Z</time>
      </trkpt>
      <trkpt lat="44.86258" lon="6.55904">
        <ele>1735.8</ele>
        <time>2024-08-18T14:47:53Z</time>
      </trkpt>
      <trkpt lat="44.86263" lon="6.55903">
        <ele>1733.9</ele>
        <time>2024-08-18T14:47:53Z</time>
      </trkpt>
      <trkpt lat="44.86266" lon="6.55903">
        <ele>1733.9</ele>
        <time>2024-08-18T14:47:53Z</time>
      </trkpt>
      <trkpt lat="44.86273" lon="6.55903">
        <ele>1732.3</ele>
        <time>2024-08-18T14:47:53Z</time>
      </trkpt>
      <trkpt lat="44.86278" lon="6.55903">
        <ele>1731.6</ele>
        <time>2024-08-18T14:47:53Z</time>
      </trkpt>
      <trkpt lat="44.86285" lon="6.55902">
        <ele>1730.4</ele>
        <time>2024-08-18T14:47:53Z</time>
      </trkpt>
      <trkpt lat="44.86292" lon="6.55901">
        <ele>1729.9</ele>
        <time>2024-08-18T14:47:53Z</time>
      </trkpt>
      <trkpt lat="44.863" lon="6.55898">
        <ele>1731.3</ele>
        <time>2024-08-18T14:47:53Z</time>
      </trkpt>
      <trkpt lat="44.86307" lon="6.55897">
        <ele>1730.8</ele>
        <time>2024-08-18T14:47:53Z</time>
      </trkpt>
      <trkpt lat="44.86318" lon="6.55896">
        <ele>1732.6</ele>
        <time>2024-08-18T14:47:53Z</time>
      </trkpt>
      <trkpt lat="44.86326" lon="6.55895">
        <ele>1732.5</ele>
        <time>2024-08-18T14:47:53Z</time>
      </trkpt>
      <trkpt lat="44.86335" lon="6.55893">
        <ele>1732.6</ele>
        <time>2024-08-18T14:47:53Z</time>
      </trkpt>
      <trkpt lat="44.8634" lon="6.55891">
        <ele>1734.8</ele>
        <time>2024-08-18T14:47:53Z</time>
      </trkpt>
      <trkpt lat="44.86348" lon="6.55889">
        <ele>1735.4</ele>
        <time>2024-08-18T14:47:53Z</time>
      </trkpt>
      <trkpt lat="44.86353" lon="6.55889">
        <ele>1736.1</ele>
        <time>2024-08-18T14:47:53Z</time>
      </trkpt>
      <trkpt lat="44.86357" lon="6.55889">
        <ele>1736.1</ele>
        <time>2024-08-18T14:47:53Z</time>
      </trkpt>
      <trkpt lat="44.86363" lon="6.55892">
        <ele>1737</ele>
        <time>2024-08-18T14:47:53Z</time>
      </trkpt>
      <trkpt lat="44.8637" lon="6.55896">
        <ele>1735.4</ele>
        <time>2024-08-18T14:47:53Z</time>
      </trkpt>
      <trkpt lat="44.86378" lon="6.559">
        <ele>1734.1</ele>
        <time>2024-08-18T14:47:53Z</time>
      </trkpt>
      <trkpt lat="44.86385" lon="6.55902">
        <ele>1732.7</ele>
        <time>2024-08-18T14:47:53Z</time>
      </trkpt>
      <trkpt lat="44.86391" lon="6.55903">
        <ele>1732.9</ele>
        <time>2024-08-18T14:47:53Z</time>
      </trkpt>
      <trkpt lat="44.86398" lon="6.55904">
        <ele>1733.3</ele>
        <time>2024-08-18T14:47:53Z</time>
      </trkpt>
      <trkpt lat="44.86405" lon="6.55904">
        <ele>1733.4</ele>
        <time>2024-08-18T14:47:53Z</time>
      </trkpt>
      <trkpt lat="44.8641" lon="6.55903">
        <ele>1733.4</ele>
        <time>2024-08-18T14:47:53Z</time>
      </trkpt>
      <trkpt lat="44.86417" lon="6.55901">
        <ele>1733.3</ele>
        <time>2024-08-18T14:47:53Z</time>
      </trkpt>
      <trkpt lat="44.86425" lon="6.559">
        <ele>1735.5</ele>
        <time>2024-08-18T14:47:53Z</time>
      </trkpt>
      <trkpt lat="44.86433" lon="6.55899">
        <ele>1735.3</ele>
        <time>2024-08-18T14:47:53Z</time>
      </trkpt>
      <trkpt lat="44.86439" lon="6.559">
        <ele>1735.1</ele>
        <time>2024-08-18T14:47:53Z</time>
      </trkpt>
      <trkpt lat="44.86445" lon="6.55902">
        <ele>1732.9</ele>
        <time>2024-08-18T14:47:53Z</time>
      </trkpt>
      <trkpt lat="44.86452" lon="6.55903">
        <ele>1733</ele>
        <time>2024-08-18T14:47:53Z</time>
      </trkpt>
      <trkpt lat="44.86456" lon="6.55904">
        <ele>1733</ele>
        <time>2024-08-18T14:47:53Z</time>
      </trkpt>
      <trkpt lat="44.8646" lon="6.55903">
        <ele>1733</ele>
        <time>2024-08-18T14:47:53Z</time>
      </trkpt>
      <trkpt lat="44.86464" lon="6.55901">
        <ele>1733.1</ele>
        <time>2024-08-18T14:47:53Z</time>
      </trkpt>
      <trkpt lat="44.8647" lon="6.55898">
        <ele>1734.9</ele>
        <time>2024-08-18T14:47:53Z</time>
      </trkpt>
      <trkpt lat="44.86476" lon="6.55895">
        <ele>1736.5</ele>
        <time>2024-08-18T14:47:53Z</time>
      </trkpt>
      <trkpt lat="44.86481" lon="6.55892">
        <ele>1737.9</ele>
        <time>2024-08-18T14:47:53Z</time>
      </trkpt>
      <trkpt lat="44.86485" lon="6.55889">
        <ele>1737.7</ele>
        <time>2024-08-18T14:47:53Z</time>
      </trkpt>
      <trkpt lat="44.86491" lon="6.55884">
        <ele>1738.5</ele>
        <time>2024-08-18T14:47:53Z</time>
      </trkpt>
      <trkpt lat="44.86498" lon="6.55878">
        <ele>1741</ele>
        <time>2024-08-18T14:47:53Z</time>
      </trkpt>
      <trkpt lat="44.86503" lon="6.55874">
        <ele>1742</ele>
        <time>2024-08-18T14:47:53Z</time>
      </trkpt>
      <trkpt lat="44.8651" lon="6.5587">
        <ele>1742.4</ele>
        <time>2024-08-18T14:47:53Z</time>
      </trkpt>
      <trkpt lat="44.86517" lon="6.55866">
        <ele>1742.9</ele>
        <time>2024-08-18T14:47:53Z</time>
      </trkpt>
      <trkpt lat="44.86524" lon="6.55862">
        <ele>1743.9</ele>
        <time>2024-08-18T14:47:53Z</time>
      </trkpt>
      <trkpt lat="44.86533" lon="6.55857">
        <ele>1744.6</ele>
        <time>2024-08-18T14:47:53Z</time>
      </trkpt>
      <trkpt lat="44.86543" lon="6.5585">
        <ele>1745.3</ele>
        <time>2024-08-18T14:47:53Z</time>
      </trkpt>
      <trkpt lat="44.86551" lon="6.55846">
        <ele>1746.5</ele>
        <time>2024-08-18T14:47:53Z</time>
      </trkpt>
      <trkpt lat="44.8656" lon="6.55843">
        <ele>1747.6</ele>
        <time>2024-08-18T14:47:53Z</time>
      </trkpt>
      <trkpt lat="44.86574" lon="6.55838">
        <ele>1747.7</ele>
        <time>2024-08-18T14:47:53Z</time>
      </trkpt>
      <trkpt lat="44.86586" lon="6.55835">
        <ele>1747.1</ele>
        <time>2024-08-18T14:47:53Z</time>
      </trkpt>
      <trkpt lat="44.86595" lon="6.55834">
        <ele>1745.3</ele>
        <time>2024-08-18T14:47:53Z</time>
      </trkpt>
      <trkpt lat="44.86603" lon="6.55834">
        <ele>1743.2</ele>
        <time>2024-08-18T14:47:53Z</time>
      </trkpt>
      <trkpt lat="44.86612" lon="6.55834">
        <ele>1740.8</ele>
        <time>2024-08-18T14:47:53Z</time>
      </trkpt>
      <trkpt lat="44.86618" lon="6.55834">
        <ele>1739.5</ele>
        <time>2024-08-18T14:47:53Z</time>
      </trkpt>
      <trkpt lat="44.86621" lon="6.55833">
        <ele>1738.2</ele>
        <time>2024-08-18T14:47:53Z</time>
      </trkpt>
      <trkpt lat="44.86624" lon="6.5583">
        <ele>1738.7</ele>
        <time>2024-08-18T14:47:53Z</time>
      </trkpt>
      <trkpt lat="44.86629" lon="6.55826">
        <ele>1739.1</ele>
        <time>2024-08-18T14:47:53Z</time>
      </trkpt>
      <trkpt lat="44.86632" lon="6.55822">
        <ele>1739.6</ele>
        <time>2024-08-18T14:47:53Z</time>
      </trkpt>
      <trkpt lat="44.86637" lon="6.55816">
        <ele>1740.1</ele>
        <time>2024-08-18T14:47:53Z</time>
      </trkpt>
      <trkpt lat="44.86641" lon="6.55809">
        <ele>1742.6</ele>
        <time>2024-08-18T14:47:53Z</time>
      </trkpt>
      <trkpt lat="44.86649" lon="6.55796">
        <ele>1747</ele>
        <time>2024-08-18T14:47:53Z</time>
      </trkpt>
      <trkpt lat="44.86656" lon="6.55782">
        <ele>1749.2</ele>
        <time>2024-08-18T14:47:53Z</time>
      </trkpt>
      <trkpt lat="44.86664" lon="6.55768">
        <ele>1751</ele>
        <time>2024-08-18T14:47:53Z</time>
      </trkpt>
      <trkpt lat="44.86669" lon="6.5576">
        <ele>1752.7</ele>
        <time>2024-08-18T14:47:53Z</time>
      </trkpt>
      <trkpt lat="44.86671" lon="6.55757">
        <ele>1752.8</ele>
        <time>2024-08-18T14:47:53Z</time>
      </trkpt>
      <trkpt lat="44.86676" lon="6.55753">
        <ele>1753.1</ele>
        <time>2024-08-18T14:47:53Z</time>
      </trkpt>
      <trkpt lat="44.86679" lon="6.55751">
        <ele>1753.1</ele>
        <time>2024-08-18T14:47:53Z</time>
      </trkpt>
      <trkpt lat="44.86684" lon="6.55747">
        <ele>1752.8</ele>
        <time>2024-08-18T14:47:53Z</time>
      </trkpt>
      <trkpt lat="44.86688" lon="6.55744">
        <ele>1753.8</ele>
        <time>2024-08-18T14:47:53Z</time>
      </trkpt>
      <trkpt lat="44.86692" lon="6.5574">
        <ele>1755</ele>
        <time>2024-08-18T14:47:53Z</time>
      </trkpt>
      <trkpt lat="44.86696" lon="6.55737">
        <ele>1756.2</ele>
        <time>2024-08-18T14:47:53Z</time>
      </trkpt>
      <trkpt lat="44.86699" lon="6.55735">
        <ele>1756.5</ele>
        <time>2024-08-18T14:47:53Z</time>
      </trkpt>
      <trkpt lat="44.86702" lon="6.55736">
        <ele>1757.2</ele>
        <time>2024-08-18T14:47:53Z</time>
      </trkpt>
      <trkpt lat="44.86705" lon="6.55736">
        <ele>1758.2</ele>
        <time>2024-08-18T14:47:53Z</time>
      </trkpt>
      <trkpt lat="44.86707" lon="6.5574">
        <ele>1757.3</ele>
        <time>2024-08-18T14:47:53Z</time>
      </trkpt>
      <trkpt lat="44.86708" lon="6.55742">
        <ele>1757.3</ele>
        <time>2024-08-18T14:47:53Z</time>
      </trkpt>
      <trkpt lat="44.86709" lon="6.55748">
        <ele>1755.8</ele>
        <time>2024-08-18T14:47:53Z</time>
      </trkpt>
      <trkpt lat="44.86712" lon="6.55754">
        <ele>1756.5</ele>
        <time>2024-08-18T14:47:53Z</time>
      </trkpt>
      <trkpt lat="44.86714" lon="6.55759">
        <ele>1757.4</ele>
        <time>2024-08-18T14:47:53Z</time>
      </trkpt>
      <trkpt lat="44.86718" lon="6.55767">
        <ele>1757.7</ele>
        <time>2024-08-18T14:47:53Z</time>
      </trkpt>
      <trkpt lat="44.86721" lon="6.55773">
        <ele>1756.6</ele>
        <time>2024-08-18T14:47:53Z</time>
      </trkpt>
      <trkpt lat="44.86728" lon="6.55781">
        <ele>1757.7</ele>
        <time>2024-08-18T14:47:53Z</time>
      </trkpt>
      <trkpt lat="44.86733" lon="6.55785">
        <ele>1758.9</ele>
        <time>2024-08-18T14:47:53Z</time>
      </trkpt>
      <trkpt lat="44.86741" lon="6.55788">
        <ele>1760.6</ele>
        <time>2024-08-18T14:47:53Z</time>
      </trkpt>
      <trkpt lat="44.86746" lon="6.55791">
        <ele>1761</ele>
        <time>2024-08-18T14:47:53Z</time>
      </trkpt>
      <trkpt lat="44.8675" lon="6.55794">
        <ele>1761</ele>
        <time>2024-08-18T14:47:53Z</time>
      </trkpt>
      <trkpt lat="44.86755" lon="6.55798">
        <ele>1760.7</ele>
        <time>2024-08-18T14:47:53Z</time>
      </trkpt>
      <trkpt lat="44.86762" lon="6.55804">
        <ele>1760.5</ele>
        <time>2024-08-18T14:47:53Z</time>
      </trkpt>
      <trkpt lat="44.86769" lon="6.5581">
        <ele>1759.6</ele>
        <time>2024-08-18T14:47:53Z</time>
      </trkpt>
      <trkpt lat="44.86774" lon="6.55811">
        <ele>1758.5</ele>
        <time>2024-08-18T14:47:53Z</time>
      </trkpt>
      <trkpt lat="44.86776" lon="6.5581">
        <ele>1760</ele>
        <time>2024-08-18T14:47:53Z</time>
      </trkpt>
      <trkpt lat="44.86777" lon="6.55807">
        <ele>1760</ele>
        <time>2024-08-18T14:47:53Z</time>
      </trkpt>
      <trkpt lat="44.86778" lon="6.55805">
        <ele>1761.6</ele>
        <time>2024-08-18T14:47:53Z</time>
      </trkpt>
      <trkpt lat="44.86779" lon="6.55801">
        <ele>1763.1</ele>
        <time>2024-08-18T14:47:53Z</time>
      </trkpt>
      <trkpt lat="44.86779" lon="6.55799">
        <ele>1763.1</ele>
        <time>2024-08-18T14:47:53Z</time>
      </trkpt>
      <trkpt lat="44.86778" lon="6.55796">
        <ele>1764.5</ele>
        <time>2024-08-18T14:47:53Z</time>
      </trkpt>
      <trkpt lat="44.86776" lon="6.55794">
        <ele>1764.2</ele>
        <time>2024-08-18T14:47:53Z</time>
      </trkpt>
      <trkpt lat="44.86774" lon="6.55791">
        <ele>1765.5</ele>
        <time>2024-08-18T14:47:53Z</time>
      </trkpt>
      <trkpt lat="44.8677" lon="6.55787">
        <ele>1766.6</ele>
        <time>2024-08-18T14:47:53Z</time>
      </trkpt>
      <trkpt lat="44.86768" lon="6.55785">
        <ele>1767.3</ele>
        <time>2024-08-18T14:47:53Z</time>
      </trkpt>
      <trkpt lat="44.86765" lon="6.55779">
        <ele>1768.3</ele>
        <time>2024-08-18T14:47:53Z</time>
      </trkpt>
      <trkpt lat="44.86763" lon="6.55771">
        <ele>1769</ele>
        <time>2024-08-18T14:47:53Z</time>
      </trkpt>
      <trkpt lat="44.86759" lon="6.55756">
        <ele>1770.3</ele>
        <time>2024-08-18T14:47:53Z</time>
      </trkpt>
      <trkpt lat="44.86755" lon="6.5574">
        <ele>1772</ele>
        <time>2024-08-18T14:47:53Z</time>
      </trkpt>
      <trkpt lat="44.8675" lon="6.55717">
        <ele>1774.2</ele>
        <time>2024-08-18T14:47:53Z</time>
      </trkpt>
      <trkpt lat="44.86747" lon="6.55695">
        <ele>1775.8</ele>
        <time>2024-08-18T14:47:53Z</time>
      </trkpt>
      <trkpt lat="44.86745" lon="6.55675">
        <ele>1778.9</ele>
        <time>2024-08-18T14:47:53Z</time>
      </trkpt>
      <trkpt lat="44.86744" lon="6.55658">
        <ele>1781</ele>
        <time>2024-08-18T14:47:53Z</time>
      </trkpt>
      <trkpt lat="44.86743" lon="6.55651">
        <ele>1780.1</ele>
        <time>2024-08-18T14:47:53Z</time>
      </trkpt>
      <trkpt lat="44.86741" lon="6.55645">
        <ele>1780.6</ele>
        <time>2024-08-18T14:47:53Z</time>
      </trkpt>
      <trkpt lat="44.86741" lon="6.5564">
        <ele>1781.2</ele>
        <time>2024-08-18T14:47:53Z</time>
      </trkpt>
      <trkpt lat="44.86741" lon="6.55637">
        <ele>1781.8</ele>
        <time>2024-08-18T14:47:53Z</time>
      </trkpt>
      <trkpt lat="44.86742" lon="6.55633">
        <ele>1782.4</ele>
        <time>2024-08-18T14:47:53Z</time>
      </trkpt>
      <trkpt lat="44.86743" lon="6.55632">
        <ele>1782.4</ele>
        <time>2024-08-18T14:47:53Z</time>
      </trkpt>
      <trkpt lat="44.86745" lon="6.55632">
        <ele>1784.2</ele>
        <time>2024-08-18T14:47:53Z</time>
      </trkpt>
      <trkpt lat="44.86748" lon="6.55632">
        <ele>1786.3</ele>
        <time>2024-08-18T14:47:53Z</time>
      </trkpt>
      <trkpt lat="44.86749" lon="6.55633">
        <ele>1786.3</ele>
        <time>2024-08-18T14:47:53Z</time>
      </trkpt>
      <trkpt lat="44.8675" lon="6.55635">
        <ele>1785.9</ele>
        <time>2024-08-18T14:47:53Z</time>
      </trkpt>
      <trkpt lat="44.86751" lon="6.55639">
        <ele>1785.9</ele>
        <time>2024-08-18T14:47:53Z</time>
      </trkpt>
      <trkpt lat="44.86751" lon="6.55644">
        <ele>1784.9</ele>
        <time>2024-08-18T14:47:53Z</time>
      </trkpt>
      <trkpt lat="44.86752" lon="6.55651">
        <ele>1784.3</ele>
        <time>2024-08-18T14:47:53Z</time>
      </trkpt>
      <trkpt lat="44.86753" lon="6.55658">
        <ele>1785.6</ele>
        <time>2024-08-18T14:47:53Z</time>
      </trkpt>
      <trkpt lat="44.86755" lon="6.55665">
        <ele>1784.3</ele>
        <time>2024-08-18T14:47:53Z</time>
      </trkpt>
      <trkpt lat="44.8676" lon="6.55677">
        <ele>1785.2</ele>
        <time>2024-08-18T14:47:53Z</time>
      </trkpt>
      <trkpt lat="44.86765" lon="6.55687">
        <ele>1786.9</ele>
        <time>2024-08-18T14:47:53Z</time>
      </trkpt>
      <trkpt lat="44.86768" lon="6.55694">
        <ele>1786.1</ele>
        <time>2024-08-18T14:47:53Z</time>
      </trkpt>
      <trkpt lat="44.86772" lon="6.557">
        <ele>1785.9</ele>
        <time>2024-08-18T14:47:53Z</time>
      </trkpt>
      <trkpt lat="44.86775" lon="6.55703">
        <ele>1787.2</ele>
        <time>2024-08-18T14:47:53Z</time>
      </trkpt>
      <trkpt lat="44.86778" lon="6.55704">
        <ele>1787.4</ele>
        <time>2024-08-18T14:47:53Z</time>
      </trkpt>
      <trkpt lat="44.86782" lon="6.55705">
        <ele>1787.4</ele>
        <time>2024-08-18T14:47:53Z</time>
      </trkpt>
      <trkpt lat="44.86786" lon="6.55705">
        <ele>1788.5</ele>
        <time>2024-08-18T14:47:53Z</time>
      </trkpt>
      <trkpt lat="44.86792" lon="6.55706">
        <ele>1790.4</ele>
        <time>2024-08-18T14:47:53Z</time>
      </trkpt>
      <trkpt lat="44.868" lon="6.55707">
        <ele>1791.9</ele>
        <time>2024-08-18T14:47:53Z</time>
      </trkpt>
      <trkpt lat="44.8681" lon="6.5571">
        <ele>1791.8</ele>
        <time>2024-08-18T14:47:53Z</time>
      </trkpt>
      <trkpt lat="44.86818" lon="6.55713">
        <ele>1791.5</ele>
        <time>2024-08-18T14:47:53Z</time>
      </trkpt>
      <trkpt lat="44.86822" lon="6.55714">
        <ele>1791.8</ele>
        <time>2024-08-18T14:47:53Z</time>
      </trkpt>
      <trkpt lat="44.86826" lon="6.55712">
        <ele>1793.1</ele>
        <time>2024-08-18T14:47:53Z</time>
      </trkpt>
      <trkpt lat="44.86828" lon="6.5571">
        <ele>1793.1</ele>
        <time>2024-08-18T14:47:53Z</time>
      </trkpt>
      <trkpt lat="44.86829" lon="6.55708">
        <ele>1793.1</ele>
        <time>2024-08-18T14:47:53Z</time>
      </trkpt>
      <trkpt lat="44.86829" lon="6.55704">
        <ele>1794.2</ele>
        <time>2024-08-18T14:47:53Z</time>
      </trkpt>
      <trkpt lat="44.86828" lon="6.55701">
        <ele>1795.3</ele>
        <time>2024-08-18T14:47:53Z</time>
      </trkpt>
      <trkpt lat="44.86827" lon="6.55699">
        <ele>1796.3</ele>
        <time>2024-08-18T14:47:53Z</time>
      </trkpt>
      <trkpt lat="44.86825" lon="6.55697">
        <ele>1796.3</ele>
        <time>2024-08-18T14:47:53Z</time>
      </trkpt>
      <trkpt lat="44.86822" lon="6.55696">
        <ele>1796.1</ele>
        <time>2024-08-18T14:47:53Z</time>
      </trkpt>
      <trkpt lat="44.86818" lon="6.55694">
        <ele>1797</ele>
        <time>2024-08-18T14:47:53Z</time>
      </trkpt>
      <trkpt lat="44.86811" lon="6.55691">
        <ele>1796.4</ele>
        <time>2024-08-18T14:47:53Z</time>
      </trkpt>
      <trkpt lat="44.86803" lon="6.55687">
        <ele>1796.6</ele>
        <time>2024-08-18T14:47:53Z</time>
      </trkpt>
      <trkpt lat="44.86796" lon="6.55684">
        <ele>1797.1</ele>
        <time>2024-08-18T14:47:53Z</time>
      </trkpt>
      <trkpt lat="44.86792" lon="6.55681">
        <ele>1797.4</ele>
        <time>2024-08-18T14:47:53Z</time>
      </trkpt>
      <trkpt lat="44.8679" lon="6.55679">
        <ele>1796.3</ele>
        <time>2024-08-18T14:47:53Z</time>
      </trkpt>
      <trkpt lat="44.86788" lon="6.55675">
        <ele>1797.4</ele>
        <time>2024-08-18T14:47:53Z</time>
      </trkpt>
      <trkpt lat="44.86788" lon="6.55671">
        <ele>1798.5</ele>
        <time>2024-08-18T14:47:53Z</time>
      </trkpt>
      <trkpt lat="44.86786" lon="6.55665">
        <ele>1798.2</ele>
        <time>2024-08-18T14:47:53Z</time>
      </trkpt>
      <trkpt lat="44.86786" lon="6.55655">
        <ele>1801.2</ele>
        <time>2024-08-18T14:47:53Z</time>
      </trkpt>
      <trkpt lat="44.86785" lon="6.55645">
        <ele>1803</ele>
        <time>2024-08-18T14:47:53Z</time>
      </trkpt>
      <trkpt lat="44.86784" lon="6.55633">
        <ele>1805.3</ele>
        <time>2024-08-18T14:47:53Z</time>
      </trkpt>
      <trkpt lat="44.86784" lon="6.55627">
        <ele>1805.9</ele>
        <time>2024-08-18T14:47:53Z</time>
      </trkpt>
      <trkpt lat="44.86785" lon="6.55618">
        <ele>1806.9</ele>
        <time>2024-08-18T14:47:53Z</time>
      </trkpt>
      <trkpt lat="44.86786" lon="6.55606">
        <ele>1808</ele>
        <time>2024-08-18T14:47:53Z</time>
      </trkpt>
      <trkpt lat="44.86788" lon="6.55591">
        <ele>1811.6</ele>
        <time>2024-08-18T14:47:53Z</time>
      </trkpt>
      <trkpt lat="44.86788" lon="6.55577">
        <ele>1812.3</ele>
        <time>2024-08-18T14:47:53Z</time>
      </trkpt>
      <trkpt lat="44.86788" lon="6.55561">
        <ele>1813.2</ele>
        <time>2024-08-18T14:47:53Z</time>
      </trkpt>
      <trkpt lat="44.86787" lon="6.55544">
        <ele>1814.3</ele>
        <time>2024-08-18T14:47:53Z</time>
      </trkpt>
      <trkpt lat="44.86787" lon="6.55529">
        <ele>1815.7</ele>
        <time>2024-08-18T14:47:53Z</time>
      </trkpt>
      <trkpt lat="44.86786" lon="6.55518">
        <ele>1814.6</ele>
        <time>2024-08-18T14:47:53Z</time>
      </trkpt>
      <trkpt lat="44.86785" lon="6.55509">
        <ele>1816.1</ele>
        <time>2024-08-18T14:47:53Z</time>
      </trkpt>
      <trkpt lat="44.86783" lon="6.55502">
        <ele>1816.9</ele>
        <time>2024-08-18T14:47:53Z</time>
      </trkpt>
      <trkpt lat="44.86781" lon="6.55497">
        <ele>1816.3</ele>
        <time>2024-08-18T14:47:53Z</time>
      </trkpt>
      <trkpt lat="44.8678" lon="6.55493">
        <ele>1817.2</ele>
        <time>2024-08-18T14:47:53Z</time>
      </trkpt>
      <trkpt lat="44.86779" lon="6.55488">
        <ele>1818.2</ele>
        <time>2024-08-18T14:47:53Z</time>
      </trkpt>
      <trkpt lat="44.86779" lon="6.55485">
        <ele>1818.2</ele>
        <time>2024-08-18T14:47:53Z</time>
      </trkpt>
      <trkpt lat="44.86781" lon="6.55481">
        <ele>1819.1</ele>
        <time>2024-08-18T14:47:53Z</time>
      </trkpt>
      <trkpt lat="44.86782" lon="6.5548">
        <ele>1820</ele>
        <time>2024-08-18T14:47:53Z</time>
      </trkpt>
      <trkpt lat="44.86784" lon="6.5548">
        <ele>1821.9</ele>
        <time>2024-08-18T14:47:53Z</time>
      </trkpt>
      <trkpt lat="44.86786" lon="6.55481">
        <ele>1821</ele>
        <time>2024-08-18T14:47:53Z</time>
      </trkpt>
      <trkpt lat="44.86787" lon="6.55482">
        <ele>1823.2</ele>
        <time>2024-08-18T14:47:53Z</time>
      </trkpt>
      <trkpt lat="44.86788" lon="6.55486">
        <ele>1822.4</ele>
        <time>2024-08-18T14:47:53Z</time>
      </trkpt>
      <trkpt lat="44.86789" lon="6.55491">
        <ele>1821.6</ele>
        <time>2024-08-18T14:47:53Z</time>
      </trkpt>
      <trkpt lat="44.86792" lon="6.55504">
        <ele>1822</ele>
        <time>2024-08-18T14:47:53Z</time>
      </trkpt>
      <trkpt lat="44.86796" lon="6.55518">
        <ele>1823</ele>
        <time>2024-08-18T14:47:53Z</time>
      </trkpt>
      <trkpt lat="44.868" lon="6.55532">
        <ele>1824.4</ele>
        <time>2024-08-18T14:47:53Z</time>
      </trkpt>
      <trkpt lat="44.86804" lon="6.55546">
        <ele>1826.6</ele>
        <time>2024-08-18T14:47:53Z</time>
      </trkpt>
      <trkpt lat="44.86806" lon="6.55556">
        <ele>1825.8</ele>
        <time>2024-08-18T14:47:53Z</time>
      </trkpt>
      <trkpt lat="44.86808" lon="6.55567">
        <ele>1827.4</ele>
        <time>2024-08-18T14:47:53Z</time>
      </trkpt>
      <trkpt lat="44.8681" lon="6.55578">
        <ele>1826.2</ele>
        <time>2024-08-18T14:47:53Z</time>
      </trkpt>
      <trkpt lat="44.86811" lon="6.55589">
        <ele>1824.3</ele>
        <time>2024-08-18T14:47:53Z</time>
      </trkpt>
      <trkpt lat="44.86814" lon="6.55598">
        <ele>1824.7</ele>
        <time>2024-08-18T14:47:53Z</time>
      </trkpt>
      <trkpt lat="44.86815" lon="6.55602">
        <ele>1823.8</ele>
        <time>2024-08-18T14:47:53Z</time>
      </trkpt>
      <trkpt lat="44.86818" lon="6.55605">
        <ele>1824</ele>
        <time>2024-08-18T14:47:53Z</time>
      </trkpt>
      <trkpt lat="44.86821" lon="6.55607">
        <ele>1824.9</ele>
        <time>2024-08-18T14:47:53Z</time>
      </trkpt>
      <trkpt lat="44.86823" lon="6.55606">
        <ele>1824.9</ele>
        <time>2024-08-18T14:47:53Z</time>
      </trkpt>
      <trkpt lat="44.86825" lon="6.55606">
        <ele>1825.5</ele>
        <time>2024-08-18T14:47:53Z</time>
      </trkpt>
      <trkpt lat="44.86827" lon="6.55604">
        <ele>1826.9</ele>
        <time>2024-08-18T14:47:53Z</time>
      </trkpt>
      <trkpt lat="44.86829" lon="6.55602">
        <ele>1826.9</ele>
        <time>2024-08-18T14:47:53Z</time>
      </trkpt>
      <trkpt lat="44.86833" lon="6.55598">
        <ele>1828.9</ele>
        <time>2024-08-18T14:47:53Z</time>
      </trkpt>
      <trkpt lat="44.86838" lon="6.55594">
        <ele>1831.2</ele>
        <time>2024-08-18T14:47:53Z</time>
      </trkpt>
      <trkpt lat="44.86847" lon="6.55588">
        <ele>1833.3</ele>
        <time>2024-08-18T14:47:53Z</time>
      </trkpt>
      <trkpt lat="44.86859" lon="6.55583">
        <ele>1836.9</ele>
        <time>2024-08-18T14:47:53Z</time>
      </trkpt>
      <trkpt lat="44.86869" lon="6.55579">
        <ele>1838.5</ele>
        <time>2024-08-18T14:47:53Z</time>
      </trkpt>
      <trkpt lat="44.86874" lon="6.55578">
        <ele>1838.4</ele>
        <time>2024-08-18T14:47:53Z</time>
      </trkpt>
      <trkpt lat="44.8688" lon="6.55578">
        <ele>1838.3</ele>
        <time>2024-08-18T14:47:53Z</time>
      </trkpt>
      <trkpt lat="44.86887" lon="6.55579">
        <ele>1838.2</ele>
        <time>2024-08-18T14:47:53Z</time>
      </trkpt>
      <trkpt lat="44.86896" lon="6.5558">
        <ele>1836.5</ele>
        <time>2024-08-18T14:47:53Z</time>
      </trkpt>
      <trkpt lat="44.86901" lon="6.5558">
        <ele>1836.5</ele>
        <time>2024-08-18T14:47:53Z</time>
      </trkpt>
      <trkpt lat="44.86907" lon="6.55579">
        <ele>1838.6</ele>
        <time>2024-08-18T14:47:53Z</time>
      </trkpt>
      <trkpt lat="44.86913" lon="6.55578">
        <ele>1838.8</ele>
        <time>2024-08-18T14:47:53Z</time>
      </trkpt>
      <trkpt lat="44.86919" lon="6.55577">
        <ele>1839.2</ele>
        <time>2024-08-18T14:47:53Z</time>
      </trkpt>
      <trkpt lat="44.86924" lon="6.55576">
        <ele>1840.1</ele>
        <time>2024-08-18T14:47:53Z</time>
      </trkpt>
      <trkpt lat="44.8693" lon="6.55577">
        <ele>1840.7</ele>
        <time>2024-08-18T14:47:53Z</time>
      </trkpt>
      <trkpt lat="44.86934" lon="6.55577">
        <ele>1841.4</ele>
        <time>2024-08-18T14:47:53Z</time>
      </trkpt>
      <trkpt lat="44.86939" lon="6.55579">
        <ele>1842.4</ele>
        <time>2024-08-18T14:47:53Z</time>
      </trkpt>
      <trkpt lat="44.86942" lon="6.55582">
        <ele>1842.2</ele>
        <time>2024-08-18T14:47:53Z</time>
      </trkpt>
      <trkpt lat="44.86945" lon="6.55584">
        <ele>1841.1</ele>
        <time>2024-08-18T14:47:53Z</time>
      </trkpt>
      <trkpt lat="44.86947" lon="6.55588">
        <ele>1841.9</ele>
        <time>2024-08-18T14:47:53Z</time>
      </trkpt>
      <trkpt lat="44.86949" lon="6.55596">
        <ele>1841.4</ele>
        <time>2024-08-18T14:47:53Z</time>
      </trkpt>
      <trkpt lat="44.86952" lon="6.55608">
        <ele>1843.1</ele>
        <time>2024-08-18T14:47:53Z</time>
      </trkpt>
      <trkpt lat="44.86954" lon="6.55617">
        <ele>1845.7</ele>
        <time>2024-08-18T14:47:53Z</time>
      </trkpt>
      <trkpt lat="44.86953" lon="6.55625">
        <ele>1844.4</ele>
        <time>2024-08-18T14:47:53Z</time>
      </trkpt>
      <trkpt lat="44.86952" lon="6.55632">
        <ele>1845.6</ele>
        <time>2024-08-18T14:47:53Z</time>
      </trkpt>
      <trkpt lat="44.86949" lon="6.55641">
        <ele>1844.8</ele>
        <time>2024-08-18T14:47:53Z</time>
      </trkpt>
      <trkpt lat="44.86947" lon="6.55651">
        <ele>1845.9</ele>
        <time>2024-08-18T14:47:53Z</time>
      </trkpt>
      <trkpt lat="44.86946" lon="6.55656">
        <ele>1846.3</ele>
        <time>2024-08-18T14:47:53Z</time>
      </trkpt>
      <trkpt lat="44.86946" lon="6.55661">
        <ele>1846.6</ele>
        <time>2024-08-18T14:47:53Z</time>
      </trkpt>
      <trkpt lat="44.86948" lon="6.55669">
        <ele>1846.6</ele>
        <time>2024-08-18T14:47:53Z</time>
      </trkpt>
      <trkpt lat="44.8695" lon="6.55677">
        <ele>1848</ele>
        <time>2024-08-18T14:47:53Z</time>
      </trkpt>
      <trkpt lat="44.86954" lon="6.55687">
        <ele>1848.3</ele>
        <time>2024-08-18T14:47:53Z</time>
      </trkpt>
      <trkpt lat="44.86959" lon="6.55693">
        <ele>1849.3</ele>
        <time>2024-08-18T14:47:53Z</time>
      </trkpt>
      <trkpt lat="44.86965" lon="6.55698">
        <ele>1849.9</ele>
        <time>2024-08-18T14:47:53Z</time>
      </trkpt>
      <trkpt lat="44.8697" lon="6.55702">
        <ele>1850.4</ele>
        <time>2024-08-18T14:47:53Z</time>
      </trkpt>
      <trkpt lat="44.86977" lon="6.55707">
        <ele>1852.2</ele>
        <time>2024-08-18T14:47:53Z</time>
      </trkpt>
      <trkpt lat="44.86985" lon="6.55714">
        <ele>1852.5</ele>
        <time>2024-08-18T14:47:53Z</time>
      </trkpt>
      <trkpt lat="44.86995" lon="6.55723">
        <ele>1853</ele>
        <time>2024-08-18T14:47:53Z</time>
      </trkpt>
      <trkpt lat="44.87004" lon="6.55729">
        <ele>1854.5</ele>
        <time>2024-08-18T14:47:53Z</time>
      </trkpt>
      <trkpt lat="44.87013" lon="6.55737">
        <ele>1854.9</ele>
        <time>2024-08-18T14:47:53Z</time>
      </trkpt>
      <trkpt lat="44.87021" lon="6.55743">
        <ele>1854.9</ele>
        <time>2024-08-18T14:47:53Z</time>
      </trkpt>
      <trkpt lat="44.87031" lon="6.55748">
        <ele>1856.6</ele>
        <time>2024-08-18T14:47:53Z</time>
      </trkpt>
      <trkpt lat="44.87039" lon="6.5575">
        <ele>1857.5</ele>
        <time>2024-08-18T14:47:53Z</time>
      </trkpt>
      <trkpt lat="44.87047" lon="6.55753">
        <ele>1858.3</ele>
        <time>2024-08-18T14:47:53Z</time>
      </trkpt>
      <trkpt lat="44.87054" lon="6.55756">
        <ele>1859.2</ele>
        <time>2024-08-18T14:47:53Z</time>
      </trkpt>
      <trkpt lat="44.87063" lon="6.55762">
        <ele>1860</ele>
        <time>2024-08-18T14:47:53Z</time>
      </trkpt>
      <trkpt lat="44.8707" lon="6.55765">
        <ele>1860.6</ele>
        <time>2024-08-18T14:47:53Z</time>
      </trkpt>
      <trkpt lat="44.87075" lon="6.55767">
        <ele>1861.3</ele>
        <time>2024-08-18T14:47:53Z</time>
      </trkpt>
      <trkpt lat="44.87084" lon="6.55768">
        <ele>1861.4</ele>
        <time>2024-08-18T14:47:53Z</time>
      </trkpt>
      <trkpt lat="44.87096" lon="6.55769">
        <ele>1863.2</ele>
        <time>2024-08-18T14:47:53Z</time>
      </trkpt>
      <trkpt lat="44.87107" lon="6.55769">
        <ele>1864.2</ele>
        <time>2024-08-18T14:47:53Z</time>
      </trkpt>
      <trkpt lat="44.87113" lon="6.5577">
        <ele>1865.3</ele>
        <time>2024-08-18T14:47:53Z</time>
      </trkpt>
      <trkpt lat="44.87118" lon="6.55772">
        <ele>1866</ele>
        <time>2024-08-18T14:47:53Z</time>
      </trkpt>
      <trkpt lat="44.87122" lon="6.55775">
        <ele>1865.8</ele>
        <time>2024-08-18T14:47:53Z</time>
      </trkpt>
      <trkpt lat="44.87125" lon="6.55777">
        <ele>1865.1</ele>
        <time>2024-08-18T14:47:53Z</time>
      </trkpt>
      <trkpt lat="44.87127" lon="6.5578">
        <ele>1866</ele>
        <time>2024-08-18T14:47:53Z</time>
      </trkpt>
      <trkpt lat="44.87127" lon="6.55782">
        <ele>1865.6</ele>
        <time>2024-08-18T14:47:53Z</time>
      </trkpt>
      <trkpt lat="44.87127" lon="6.55784">
        <ele>1865.6</ele>
        <time>2024-08-18T14:47:53Z</time>
      </trkpt>
      <trkpt lat="44.87127" lon="6.55788">
        <ele>1865.6</ele>
        <time>2024-08-18T14:47:53Z</time>
      </trkpt>
      <trkpt lat="44.87126" lon="6.5579">
        <ele>1866.4</ele>
        <time>2024-08-18T14:47:53Z</time>
      </trkpt>
      <trkpt lat="44.87123" lon="6.55793">
        <ele>1865.1</ele>
        <time>2024-08-18T14:47:53Z</time>
      </trkpt>
      <trkpt lat="44.8712" lon="6.55798">
        <ele>1866.3</ele>
        <time>2024-08-18T14:47:53Z</time>
      </trkpt>
      <trkpt lat="44.87115" lon="6.55805">
        <ele>1866.3</ele>
        <time>2024-08-18T14:47:53Z</time>
      </trkpt>
      <trkpt lat="44.87111" lon="6.55814">
        <ele>1867.9</ele>
        <time>2024-08-18T14:47:53Z</time>
      </trkpt>
      <trkpt lat="44.87106" lon="6.55821">
        <ele>1869.7</ele>
        <time>2024-08-18T14:47:53Z</time>
      </trkpt>
      <trkpt lat="44.87102" lon="6.55826">
        <ele>1870.1</ele>
        <time>2024-08-18T14:47:53Z</time>
      </trkpt>
      <trkpt lat="44.87097" lon="6.55831">
        <ele>1870.5</ele>
        <time>2024-08-18T14:47:53Z</time>
      </trkpt>
      <trkpt lat="44.87091" lon="6.55834">
        <ele>1869.6</ele>
        <time>2024-08-18T14:47:53Z</time>
      </trkpt>
      <trkpt lat="44.87086" lon="6.55838">
        <ele>1870.1</ele>
        <time>2024-08-18T14:47:53Z</time>
      </trkpt>
      <trkpt lat="44.8708" lon="6.55842">
        <ele>1870.7</ele>
        <time>2024-08-18T14:47:53Z</time>
      </trkpt>
      <trkpt lat="44.87076" lon="6.5585">
        <ele>1873.2</ele>
        <time>2024-08-18T14:47:53Z</time>
      </trkpt>
      <trkpt lat="44.8707" lon="6.55858">
        <ele>1873.8</ele>
        <time>2024-08-18T14:47:53Z</time>
      </trkpt>
      <trkpt lat="44.87052" lon="6.55873">
        <ele>1874.3</ele>
        <time>2024-08-18T14:47:53Z</time>
      </trkpt>
      <trkpt lat="44.87039" lon="6.55882">
        <ele>1873.7</ele>
        <time>2024-08-18T14:47:53Z</time>
      </trkpt>
      <trkpt lat="44.8703" lon="6.55895">
        <ele>1875.7</ele>
        <time>2024-08-18T14:47:53Z</time>
      </trkpt>
      <trkpt lat="44.8702" lon="6.55919">
        <ele>1881.9</ele>
        <time>2024-08-18T14:47:53Z</time>
      </trkpt>
      <trkpt lat="44.8701" lon="6.5593">
        <ele>1882.2</ele>
        <time>2024-08-18T14:47:53Z</time>
      </trkpt>
      <trkpt lat="44.86984" lon="6.55952">
        <ele>1881.3</ele>
        <time>2024-08-18T14:47:53Z</time>
      </trkpt>
      <trkpt lat="44.8697" lon="6.55973">
        <ele>1882.6</ele>
        <time>2024-08-18T14:47:53Z</time>
      </trkpt>
      <trkpt lat="44.86957" lon="6.55999">
        <ele>1886.1</ele>
        <time>2024-08-18T14:47:53Z</time>
      </trkpt>
      <trkpt lat="44.86951" lon="6.56019">
        <ele>1891.1</ele>
        <time>2024-08-18T14:47:53Z</time>
      </trkpt>
      <trkpt lat="44.86942" lon="6.56038">
        <ele>1892</ele>
        <time>2024-08-18T14:47:53Z</time>
      </trkpt>
      <trkpt lat="44.86933" lon="6.56047">
        <ele>1891.2</ele>
        <time>2024-08-18T14:47:53Z</time>
      </trkpt>
      <trkpt lat="44.86929" lon="6.56054">
        <ele>1890</ele>
        <time>2024-08-18T14:47:53Z</time>
      </trkpt>
      <trkpt lat="44.86926" lon="6.56061">
        <ele>1889.1</ele>
        <time>2024-08-18T14:47:53Z</time>
      </trkpt>
      <trkpt lat="44.86921" lon="6.56082">
        <ele>1890.6</ele>
        <time>2024-08-18T14:47:53Z</time>
      </trkpt>
      <trkpt lat="44.86913" lon="6.56098">
        <ele>1888.8</ele>
        <time>2024-08-18T14:47:53Z</time>
      </trkpt>
      <trkpt lat="44.86905" lon="6.56115">
        <ele>1887.9</ele>
        <time>2024-08-18T14:47:53Z</time>
      </trkpt>
      <trkpt lat="44.86901" lon="6.56124">
        <ele>1887</ele>
        <time>2024-08-18T14:47:53Z</time>
      </trkpt>
      <trkpt lat="44.869" lon="6.56136">
        <ele>1889.2</ele>
        <time>2024-08-18T14:47:53Z</time>
      </trkpt>
      <trkpt lat="44.86899" lon="6.56139">
        <ele>1889.7</ele>
        <time>2024-08-18T14:47:53Z</time>
      </trkpt>
      <trkpt lat="44.86899" lon="6.56157">
        <ele>1890.7</ele>
        <time>2024-08-18T14:47:53Z</time>
      </trkpt>
      <trkpt lat="44.86896" lon="6.56174">
        <ele>1889.5</ele>
        <time>2024-08-18T14:47:53Z</time>
      </trkpt>
      <trkpt lat="44.86889" lon="6.56196">
        <ele>1888.4</ele>
        <time>2024-08-18T14:47:53Z</time>
      </trkpt>
      <trkpt lat="44.86887" lon="6.56202">
        <ele>1889.9</ele>
        <time>2024-08-18T14:47:53Z</time>
      </trkpt>
      <trkpt lat="44.86885" lon="6.5621">
        <ele>1887.9</ele>
        <time>2024-08-18T14:47:53Z</time>
      </trkpt>
      <trkpt lat="44.86885" lon="6.56218">
        <ele>1888.3</ele>
        <time>2024-08-18T14:47:53Z</time>
      </trkpt>
      <trkpt lat="44.86884" lon="6.56226">
        <ele>1889.1</ele>
        <time>2024-08-18T14:47:53Z</time>
      </trkpt>
      <trkpt lat="44.86882" lon="6.56232">
        <ele>1889.9</ele>
        <time>2024-08-18T14:47:53Z</time>
      </trkpt>
      <trkpt lat="44.8688" lon="6.5624">
        <ele>1889.2</ele>
        <time>2024-08-18T14:47:53Z</time>
      </trkpt>
      <trkpt lat="44.86877" lon="6.56247">
        <ele>1890.1</ele>
        <time>2024-08-18T14:47:53Z</time>
      </trkpt>
      <trkpt lat="44.86872" lon="6.56257">
        <ele>1888.4</ele>
        <time>2024-08-18T14:47:53Z</time>
      </trkpt>
      <trkpt lat="44.86869" lon="6.56265">
        <ele>1890.3</ele>
        <time>2024-08-18T14:47:53Z</time>
      </trkpt>
      <trkpt lat="44.86866" lon="6.56273">
        <ele>1889.9</ele>
        <time>2024-08-18T14:47:53Z</time>
      </trkpt>
      <trkpt lat="44.86864" lon="6.56283">
        <ele>1892.3</ele>
        <time>2024-08-18T14:47:53Z</time>
      </trkpt>
      <trkpt lat="44.86863" lon="6.56291">
        <ele>1891.7</ele>
        <time>2024-08-18T14:47:53Z</time>
      </trkpt>
      <trkpt lat="44.86862" lon="6.56294">
        <ele>1892.6</ele>
        <time>2024-08-18T14:47:53Z</time>
      </trkpt>
      <trkpt lat="44.8686" lon="6.56299">
        <ele>1893.5</ele>
        <time>2024-08-18T14:47:53Z</time>
      </trkpt>
      <trkpt lat="44.86857" lon="6.56302">
        <ele>1893.1</ele>
        <time>2024-08-18T14:47:53Z</time>
      </trkpt>
      <trkpt lat="44.86852" lon="6.56306">
        <ele>1892.8</ele>
        <time>2024-08-18T14:47:53Z</time>
      </trkpt>
      <trkpt lat="44.86846" lon="6.56309">
        <ele>1891.3</ele>
        <time>2024-08-18T14:47:53Z</time>
      </trkpt>
      <trkpt lat="44.86841" lon="6.56312">
        <ele>1890.2</ele>
        <time>2024-08-18T14:47:53Z</time>
      </trkpt>
      <trkpt lat="44.86838" lon="6.56314">
        <ele>1890.8</ele>
        <time>2024-08-18T14:47:53Z</time>
      </trkpt>
      <trkpt lat="44.86835" lon="6.56316">
        <ele>1889.6</ele>
        <time>2024-08-18T14:47:53Z</time>
      </trkpt>
      <trkpt lat="44.86834" lon="6.56322">
        <ele>1890.1</ele>
        <time>2024-08-18T14:47:53Z</time>
      </trkpt>
      <trkpt lat="44.86833" lon="6.56327">
        <ele>1888.6</ele>
        <time>2024-08-18T14:47:53Z</time>
      </trkpt>
      <trkpt lat="44.86833" lon="6.56333">
        <ele>1888.3</ele>
        <time>2024-08-18T14:47:53Z</time>
      </trkpt>
      <trkpt lat="44.86836" lon="6.56339">
        <ele>1889.4</ele>
        <time>2024-08-18T14:47:53Z</time>
      </trkpt>
      <trkpt lat="44.86839" lon="6.56348">
        <ele>1890.6</ele>
        <time>2024-08-18T14:47:53Z</time>
      </trkpt>
      <trkpt lat="44.8684" lon="6.56357">
        <ele>1889.4</ele>
        <time>2024-08-18T14:47:53Z</time>
      </trkpt>
      <trkpt lat="44.86842" lon="6.56365">
        <ele>1887.8</ele>
        <time>2024-08-18T14:47:53Z</time>
      </trkpt>
      <trkpt lat="44.86844" lon="6.56374">
        <ele>1888.5</ele>
        <time>2024-08-18T14:47:53Z</time>
      </trkpt>
      <trkpt lat="44.86846" lon="6.56382">
        <ele>1886.6</ele>
        <time>2024-08-18T14:47:53Z</time>
      </trkpt>
      <trkpt lat="44.8685" lon="6.56392">
        <ele>1887.4</ele>
        <time>2024-08-18T14:47:53Z</time>
      </trkpt>
      <trkpt lat="44.86852" lon="6.56401">
        <ele>1888.8</ele>
        <time>2024-08-18T14:47:53Z</time>
      </trkpt>
      <trkpt lat="44.86853" lon="6.56409">
        <ele>1887.4</ele>
        <time>2024-08-18T14:47:53Z</time>
      </trkpt>
      <trkpt lat="44.86854" lon="6.56419">
        <ele>1886.2</ele>
        <time>2024-08-18T14:47:53Z</time>
      </trkpt>
      <trkpt lat="44.86856" lon="6.56429">
        <ele>1887.1</ele>
        <time>2024-08-18T14:47:53Z</time>
      </trkpt>
      <trkpt lat="44.86859" lon="6.56437">
        <ele>1886.4</ele>
        <time>2024-08-18T14:47:53Z</time>
      </trkpt>
      <trkpt lat="44.86862" lon="6.56444">
        <ele>1887.6</ele>
        <time>2024-08-18T14:47:53Z</time>
      </trkpt>
      <trkpt lat="44.86864" lon="6.56451">
        <ele>1889.1</ele>
        <time>2024-08-18T14:47:53Z</time>
      </trkpt>
      <trkpt lat="44.86864" lon="6.56459">
        <ele>1889.4</ele>
        <time>2024-08-18T14:47:53Z</time>
      </trkpt>
      <trkpt lat="44.86864" lon="6.56463">
        <ele>1889.4</ele>
        <time>2024-08-18T14:47:53Z</time>
      </trkpt>
      <trkpt lat="44.86863" lon="6.5647">
        <ele>1887.7</ele>
        <time>2024-08-18T14:47:53Z</time>
      </trkpt>
      <trkpt lat="44.86861" lon="6.56477">
        <ele>1889.2</ele>
        <time>2024-08-18T14:47:53Z</time>
      </trkpt>
      <trkpt lat="44.86855" lon="6.56488">
        <ele>1885.2</ele>
        <time>2024-08-18T14:47:53Z</time>
      </trkpt>
      <trkpt lat="44.8685" lon="6.565">
        <ele>1885</ele>
        <time>2024-08-18T14:47:53Z</time>
      </trkpt>
      <trkpt lat="44.86845" lon="6.56511">
        <ele>1884.5</ele>
        <time>2024-08-18T14:47:53Z</time>
      </trkpt>
      <trkpt lat="44.86841" lon="6.56519">
        <ele>1882.8</ele>
        <time>2024-08-18T14:47:53Z</time>
      </trkpt>
      <trkpt lat="44.86839" lon="6.56524">
        <ele>1883.3</ele>
        <time>2024-08-18T14:47:53Z</time>
      </trkpt>
      <trkpt lat="44.86837" lon="6.56529">
        <ele>1880.7</ele>
        <time>2024-08-18T14:47:53Z</time>
      </trkpt>
      <trkpt lat="44.86836" lon="6.56536">
        <ele>1881</ele>
        <time>2024-08-18T14:47:53Z</time>
      </trkpt>
      <trkpt lat="44.86837" lon="6.56542">
        <ele>1881.3</ele>
        <time>2024-08-18T14:47:53Z</time>
      </trkpt>
      <trkpt lat="44.86839" lon="6.5655">
        <ele>1884.3</ele>
        <time>2024-08-18T14:47:53Z</time>
      </trkpt>
      <trkpt lat="44.86841" lon="6.56558">
        <ele>1884</ele>
        <time>2024-08-18T14:47:53Z</time>
      </trkpt>
      <trkpt lat="44.86843" lon="6.56564">
        <ele>1887.1</ele>
        <time>2024-08-18T14:47:53Z</time>
      </trkpt>
      <trkpt lat="44.86844" lon="6.5657">
        <ele>1887</ele>
        <time>2024-08-18T14:47:53Z</time>
      </trkpt>
      <trkpt lat="44.86845" lon="6.56575">
        <ele>1886.9</ele>
        <time>2024-08-18T14:47:53Z</time>
      </trkpt>
      <trkpt lat="44.86844" lon="6.56582">
        <ele>1886.9</ele>
        <time>2024-08-18T14:47:53Z</time>
      </trkpt>
      <trkpt lat="44.86841" lon="6.56588">
        <ele>1883.5</ele>
        <time>2024-08-18T14:47:53Z</time>
      </trkpt>
      <trkpt lat="44.86838" lon="6.56593">
        <ele>1883.6</ele>
        <time>2024-08-18T14:47:53Z</time>
      </trkpt>
      <trkpt lat="44.86836" lon="6.566">
        <ele>1880.3</ele>
        <time>2024-08-18T14:47:53Z</time>
      </trkpt>
      <trkpt lat="44.86834" lon="6.56606">
        <ele>1880.5</ele>
        <time>2024-08-18T14:47:53Z</time>
      </trkpt>
      <trkpt lat="44.86834" lon="6.56613">
        <ele>1880.7</ele>
        <time>2024-08-18T14:47:53Z</time>
      </trkpt>
      <trkpt lat="44.86833" lon="6.56627">
        <ele>1877.9</ele>
        <time>2024-08-18T14:47:53Z</time>
      </trkpt>
      <trkpt lat="44.86833" lon="6.56639">
        <ele>1877.9</ele>
        <time>2024-08-18T14:47:53Z</time>
      </trkpt>
      <trkpt lat="44.86832" lon="6.5665">
        <ele>1877.7</ele>
        <time>2024-08-18T14:47:53Z</time>
      </trkpt>
      <trkpt lat="44.86832" lon="6.5666">
        <ele>1877.3</ele>
        <time>2024-08-18T14:47:53Z</time>
      </trkpt>
      <trkpt lat="44.86832" lon="6.56665">
        <ele>1876.7</ele>
        <time>2024-08-18T14:47:53Z</time>
      </trkpt>
      <trkpt lat="44.86831" lon="6.56667">
        <ele>1876.7</ele>
        <time>2024-08-18T14:47:53Z</time>
      </trkpt>
      <trkpt lat="44.86831" lon="6.56674">
        <ele>1875.9</ele>
        <time>2024-08-18T14:47:53Z</time>
      </trkpt>
      <trkpt lat="44.86831" lon="6.56681">
        <ele>1875.4</ele>
        <time>2024-08-18T14:47:53Z</time>
      </trkpt>
      <trkpt lat="44.86831" lon="6.56686">
        <ele>1874.8</ele>
        <time>2024-08-18T14:47:53Z</time>
      </trkpt>
      <trkpt lat="44.86833" lon="6.56691">
        <ele>1873.6</ele>
        <time>2024-08-18T14:47:53Z</time>
      </trkpt>
      <trkpt lat="44.86836" lon="6.56699">
        <ele>1875.3</ele>
        <time>2024-08-18T14:47:53Z</time>
      </trkpt>
      <trkpt lat="44.86838" lon="6.56708">
        <ele>1874.6</ele>
        <time>2024-08-18T14:47:53Z</time>
      </trkpt>
      <trkpt lat="44.86841" lon="6.56718">
        <ele>1872.5</ele>
        <time>2024-08-18T14:47:53Z</time>
      </trkpt>
      <trkpt lat="44.86844" lon="6.56726">
        <ele>1872.3</ele>
        <time>2024-08-18T14:47:53Z</time>
      </trkpt>
      <trkpt lat="44.86847" lon="6.56732">
        <ele>1873</ele>
        <time>2024-08-18T14:47:53Z</time>
      </trkpt>
      <trkpt lat="44.86851" lon="6.56739">
        <ele>1872.2</ele>
        <time>2024-08-18T14:47:53Z</time>
      </trkpt>
      <trkpt lat="44.86855" lon="6.56743">
        <ele>1870.9</ele>
        <time>2024-08-18T14:47:53Z</time>
      </trkpt>
      <trkpt lat="44.86862" lon="6.56752">
        <ele>1871</ele>
        <time>2024-08-18T14:47:53Z</time>
      </trkpt>
      <trkpt lat="44.86868" lon="6.56758">
        <ele>1872.2</ele>
        <time>2024-08-18T14:47:53Z</time>
      </trkpt>
      <trkpt lat="44.86874" lon="6.56762">
        <ele>1872</ele>
        <time>2024-08-18T14:47:53Z</time>
      </trkpt>
      <trkpt lat="44.8688" lon="6.56765">
        <ele>1871.8</ele>
        <time>2024-08-18T14:47:53Z</time>
      </trkpt>
      <trkpt lat="44.86887" lon="6.56767">
        <ele>1874.6</ele>
        <time>2024-08-18T14:47:53Z</time>
      </trkpt>
      <trkpt lat="44.86893" lon="6.5677">
        <ele>1874.4</ele>
        <time>2024-08-18T14:47:53Z</time>
      </trkpt>
      <trkpt lat="44.86899" lon="6.56775">
        <ele>1875.8</ele>
        <time>2024-08-18T14:47:53Z</time>
      </trkpt>
      <trkpt lat="44.86904" lon="6.56781">
        <ele>1874.1</ele>
        <time>2024-08-18T14:47:53Z</time>
      </trkpt>
      <trkpt lat="44.86909" lon="6.56792">
        <ele>1872.5</ele>
        <time>2024-08-18T14:47:53Z</time>
      </trkpt>
      <trkpt lat="44.86913" lon="6.568">
        <ele>1871</ele>
        <time>2024-08-18T14:47:53Z</time>
      </trkpt>
      <trkpt lat="44.86916" lon="6.56811">
        <ele>1867.9</ele>
        <time>2024-08-18T14:47:53Z</time>
      </trkpt>
      <trkpt lat="44.86918" lon="6.56816">
        <ele>1866.2</ele>
        <time>2024-08-18T14:47:53Z</time>
      </trkpt>
      <trkpt lat="44.86921" lon="6.56821">
        <ele>1866.6</ele>
        <time>2024-08-18T14:47:53Z</time>
      </trkpt>
      <trkpt lat="44.86926" lon="6.56826">
        <ele>1867.1</ele>
        <time>2024-08-18T14:47:53Z</time>
      </trkpt>
      <trkpt lat="44.86931" lon="6.56832">
        <ele>1867.8</ele>
        <time>2024-08-18T14:47:53Z</time>
      </trkpt>
      <trkpt lat="44.86937" lon="6.56842">
        <ele>1868.2</ele>
        <time>2024-08-18T14:47:53Z</time>
      </trkpt>
      <trkpt lat="44.86941" lon="6.56849">
        <ele>1869.5</ele>
        <time>2024-08-18T14:47:53Z</time>
      </trkpt>
      <trkpt lat="44.86944" lon="6.56857">
        <ele>1867.1</ele>
        <time>2024-08-18T14:47:53Z</time>
      </trkpt>
      <trkpt lat="44.86946" lon="6.56863">
        <ele>1867.6</ele>
        <time>2024-08-18T14:47:53Z</time>
      </trkpt>
      <trkpt lat="44.86947" lon="6.56868">
        <ele>1866.5</ele>
        <time>2024-08-18T14:47:53Z</time>
      </trkpt>
      <trkpt lat="44.86949" lon="6.56877">
        <ele>1864.5</ele>
        <time>2024-08-18T14:47:53Z</time>
      </trkpt>
      <trkpt lat="44.8695" lon="6.56889">
        <ele>1864.7</ele>
        <time>2024-08-18T14:47:53Z</time>
      </trkpt>
      <trkpt lat="44.8695" lon="6.569">
        <ele>1863</ele>
        <time>2024-08-18T14:47:53Z</time>
      </trkpt>
      <trkpt lat="44.86952" lon="6.56914">
        <ele>1860.1</ele>
        <time>2024-08-18T14:47:53Z</time>
      </trkpt>
      <trkpt lat="44.86954" lon="6.56925">
        <ele>1861.1</ele>
        <time>2024-08-18T14:47:53Z</time>
      </trkpt>
      <trkpt lat="44.86956" lon="6.56934">
        <ele>1859.7</ele>
        <time>2024-08-18T14:47:53Z</time>
      </trkpt>
      <trkpt lat="44.86958" lon="6.56941">
        <ele>1858.3</ele>
        <time>2024-08-18T14:47:53Z</time>
      </trkpt>
      <trkpt lat="44.86962" lon="6.56949">
        <ele>1858.7</ele>
        <time>2024-08-18T14:47:53Z</time>
      </trkpt>
      <trkpt lat="44.86966" lon="6.56957">
        <ele>1858.6</ele>
        <time>2024-08-18T14:47:53Z</time>
      </trkpt>
      <trkpt lat="44.86971" lon="6.56967">
        <ele>1859.7</ele>
        <time>2024-08-18T14:47:53Z</time>
      </trkpt>
      <trkpt lat="44.86975" lon="6.56977">
        <ele>1857.5</ele>
        <time>2024-08-18T14:47:53Z</time>
      </trkpt>
      <trkpt lat="44.8698" lon="6.56989">
        <ele>1857.1</ele>
        <time>2024-08-18T14:47:53Z</time>
      </trkpt>
      <trkpt lat="44.86984" lon="6.56999">
        <ele>1856.2</ele>
        <time>2024-08-18T14:47:53Z</time>
      </trkpt>
      <trkpt lat="44.8699" lon="6.57012">
        <ele>1854</ele>
        <time>2024-08-18T14:47:53Z</time>
      </trkpt>
      <trkpt lat="44.86994" lon="6.57023">
        <ele>1851.8</ele>
        <time>2024-08-18T14:47:53Z</time>
      </trkpt>
      <trkpt lat="44.86997" lon="6.57031">
        <ele>1850.7</ele>
        <time>2024-08-18T14:47:53Z</time>
      </trkpt>
      <trkpt lat="44.87001" lon="6.57039">
        <ele>1849.7</ele>
        <time>2024-08-18T14:47:53Z</time>
      </trkpt>
      <trkpt lat="44.87006" lon="6.57048">
        <ele>1848.6</ele>
        <time>2024-08-18T14:47:53Z</time>
      </trkpt>
      <trkpt lat="44.87013" lon="6.57057">
        <ele>1847.5</ele>
        <time>2024-08-18T14:47:53Z</time>
      </trkpt>
      <trkpt lat="44.87021" lon="6.57067">
        <ele>1848</ele>
        <time>2024-08-18T14:47:53Z</time>
      </trkpt>
      <trkpt lat="44.87027" lon="6.57074">
        <ele>1848.7</ele>
        <time>2024-08-18T14:47:53Z</time>
      </trkpt>
      <trkpt lat="44.87035" lon="6.57083">
        <ele>1848</ele>
        <time>2024-08-18T14:47:53Z</time>
      </trkpt>
      <trkpt lat="44.87044" lon="6.57095">
        <ele>1849.5</ele>
        <time>2024-08-18T14:47:53Z</time>
      </trkpt>
      <trkpt lat="44.87051" lon="6.57105">
        <ele>1849.1</ele>
        <time>2024-08-18T14:47:53Z</time>
      </trkpt>
      <trkpt lat="44.87055" lon="6.57111">
        <ele>1849.9</ele>
        <time>2024-08-18T14:47:53Z</time>
      </trkpt>
      <trkpt lat="44.87057" lon="6.57117">
        <ele>1849.9</ele>
        <time>2024-08-18T14:47:53Z</time>
      </trkpt>
      <trkpt lat="44.87059" lon="6.57122">
        <ele>1849.1</ele>
        <time>2024-08-18T14:47:53Z</time>
      </trkpt>
      <trkpt lat="44.87062" lon="6.57134">
        <ele>1848.9</ele>
        <time>2024-08-18T14:47:53Z</time>
      </trkpt>
      <trkpt lat="44.87063" lon="6.57141">
        <ele>1848.4</ele>
        <time>2024-08-18T14:47:53Z</time>
      </trkpt>
      <trkpt lat="44.87063" lon="6.5715">
        <ele>1847</ele>
        <time>2024-08-18T14:47:53Z</time>
      </trkpt>
      <trkpt lat="44.87062" lon="6.57162">
        <ele>1846.3</ele>
        <time>2024-08-18T14:47:53Z</time>
      </trkpt>
      <trkpt lat="44.8706" lon="6.57175">
        <ele>1843.8</ele>
        <time>2024-08-18T14:47:53Z</time>
      </trkpt>
      <trkpt lat="44.87058" lon="6.57191">
        <ele>1842.1</ele>
        <time>2024-08-18T14:47:53Z</time>
      </trkpt>
      <trkpt lat="44.87056" lon="6.57201">
        <ele>1839.9</ele>
        <time>2024-08-18T14:47:53Z</time>
      </trkpt>
      <trkpt lat="44.87056" lon="6.57208">
        <ele>1838.9</ele>
        <time>2024-08-18T14:47:53Z</time>
      </trkpt>
      <trkpt lat="44.87056" lon="6.57215">
        <ele>1837.8</ele>
        <time>2024-08-18T14:47:53Z</time>
      </trkpt>
      <trkpt lat="44.87057" lon="6.57222">
        <ele>1838.4</ele>
        <time>2024-08-18T14:47:53Z</time>
      </trkpt>
      <trkpt lat="44.87058" lon="6.57228">
        <ele>1836.9</ele>
        <time>2024-08-18T14:47:53Z</time>
      </trkpt>
      <trkpt lat="44.87061" lon="6.57233">
        <ele>1836</ele>
        <time>2024-08-18T14:47:53Z</time>
      </trkpt>
      <trkpt lat="44.87063" lon="6.57237">
        <ele>1836.1</ele>
        <time>2024-08-18T14:47:53Z</time>
      </trkpt>
      <trkpt lat="44.87066" lon="6.57241">
        <ele>1836</ele>
        <time>2024-08-18T14:47:53Z</time>
      </trkpt>
      <trkpt lat="44.8707" lon="6.57244">
        <ele>1836.9</ele>
        <time>2024-08-18T14:47:53Z</time>
      </trkpt>
      <trkpt lat="44.87074" lon="6.57246">
        <ele>1836.4</ele>
        <time>2024-08-18T14:47:53Z</time>
      </trkpt>
      <trkpt lat="44.87077" lon="6.57249">
        <ele>1835.2</ele>
        <time>2024-08-18T14:47:53Z</time>
      </trkpt>
      <trkpt lat="44.87079" lon="6.57254">
        <ele>1834.5</ele>
        <time>2024-08-18T14:47:53Z</time>
      </trkpt>
      <trkpt lat="44.8708" lon="6.57258">
        <ele>1833.3</ele>
        <time>2024-08-18T14:47:53Z</time>
      </trkpt>
      <trkpt lat="44.8708" lon="6.5726">
        <ele>1833.3</ele>
        <time>2024-08-18T14:47:53Z</time>
      </trkpt>
      <trkpt lat="44.87078" lon="6.57263">
        <ele>1831.6</ele>
        <time>2024-08-18T14:47:53Z</time>
      </trkpt>
      <trkpt lat="44.87075" lon="6.57265">
        <ele>1831.6</ele>
        <time>2024-08-18T14:47:53Z</time>
      </trkpt>
      <trkpt lat="44.8707" lon="6.57263">
        <ele>1831</ele>
        <time>2024-08-18T14:47:53Z</time>
      </trkpt>
      <trkpt lat="44.87065" lon="6.5726">
        <ele>1830.6</ele>
        <time>2024-08-18T14:47:53Z</time>
      </trkpt>
      <trkpt lat="44.87059" lon="6.57254">
        <ele>1830.8</ele>
        <time>2024-08-18T14:47:53Z</time>
      </trkpt>
      <trkpt lat="44.87054" lon="6.57251">
        <ele>1830.8</ele>
        <time>2024-08-18T14:47:53Z</time>
      </trkpt>
      <trkpt lat="44.87044" lon="6.57247">
        <ele>1829.5</ele>
        <time>2024-08-18T14:47:53Z</time>
      </trkpt>
      <trkpt lat="44.87036" lon="6.57244">
        <ele>1827.8</ele>
        <time>2024-08-18T14:47:53Z</time>
      </trkpt>
      <trkpt lat="44.8703" lon="6.57239">
        <ele>1825.7</ele>
        <time>2024-08-18T14:47:53Z</time>
      </trkpt>
      <trkpt lat="44.87026" lon="6.57231">
        <ele>1825.6</ele>
        <time>2024-08-18T14:47:53Z</time>
      </trkpt>
      <trkpt lat="44.87021" lon="6.5722">
        <ele>1825.3</ele>
        <time>2024-08-18T14:47:53Z</time>
      </trkpt>
      <trkpt lat="44.87018" lon="6.57208">
        <ele>1825.2</ele>
        <time>2024-08-18T14:47:53Z</time>
      </trkpt>
      <trkpt lat="44.87015" lon="6.57195">
        <ele>1826.6</ele>
        <time>2024-08-18T14:47:53Z</time>
      </trkpt>
      <trkpt lat="44.87015" lon="6.57184">
        <ele>1827.8</ele>
        <time>2024-08-18T14:47:53Z</time>
      </trkpt>
      <trkpt lat="44.87015" lon="6.57164">
        <ele>1828.6</ele>
        <time>2024-08-18T14:47:53Z</time>
      </trkpt>
      <trkpt lat="44.87014" lon="6.57156">
        <ele>1828.7</ele>
        <time>2024-08-18T14:47:53Z</time>
      </trkpt>
      <trkpt lat="44.87013" lon="6.57151">
        <ele>1827.2</ele>
        <time>2024-08-18T14:47:53Z</time>
      </trkpt>
      <trkpt lat="44.8701" lon="6.57146">
        <ele>1827.5</ele>
        <time>2024-08-18T14:47:53Z</time>
      </trkpt>
      <trkpt lat="44.87005" lon="6.57138">
        <ele>1825.3</ele>
        <time>2024-08-18T14:47:53Z</time>
      </trkpt>
      <trkpt lat="44.86998" lon="6.57128">
        <ele>1826</ele>
        <time>2024-08-18T14:47:53Z</time>
      </trkpt>
      <trkpt lat="44.86994" lon="6.57122">
        <ele>1825.5</ele>
        <time>2024-08-18T14:47:53Z</time>
      </trkpt>
      <trkpt lat="44.86989" lon="6.57113">
        <ele>1826.1</ele>
        <time>2024-08-18T14:47:53Z</time>
      </trkpt>
      <trkpt lat="44.86984" lon="6.57105">
        <ele>1827</ele>
        <time>2024-08-18T14:47:53Z</time>
      </trkpt>
      <trkpt lat="44.8698" lon="6.571">
        <ele>1826.9</ele>
        <time>2024-08-18T14:47:53Z</time>
      </trkpt>
      <trkpt lat="44.86977" lon="6.57098">
        <ele>1826.8</ele>
        <time>2024-08-18T14:47:53Z</time>
      </trkpt>
      <trkpt lat="44.86972" lon="6.57093">
        <ele>1826.8</ele>
        <time>2024-08-18T14:47:53Z</time>
      </trkpt>
      <trkpt lat="44.86968" lon="6.57092">
        <ele>1825.7</ele>
        <time>2024-08-18T14:47:53Z</time>
      </trkpt>
      <trkpt lat="44.8696" lon="6.5709">
        <ele>1823.7</ele>
        <time>2024-08-18T14:47:53Z</time>
      </trkpt>
      <trkpt lat="44.86953" lon="6.57089">
        <ele>1822.9</ele>
        <time>2024-08-18T14:47:53Z</time>
      </trkpt>
      <trkpt lat="44.86946" lon="6.5709">
        <ele>1820.9</ele>
        <time>2024-08-18T14:47:53Z</time>
      </trkpt>
      <trkpt lat="44.86938" lon="6.57092">
        <ele>1819.2</ele>
        <time>2024-08-18T14:47:53Z</time>
      </trkpt>
      <trkpt lat="44.86931" lon="6.57093">
        <ele>1817.4</ele>
        <time>2024-08-18T14:47:53Z</time>
      </trkpt>
      <trkpt lat="44.86926" lon="6.57094">
        <ele>1816.6</ele>
        <time>2024-08-18T14:47:53Z</time>
      </trkpt>
      <trkpt lat="44.86919" lon="6.57093">
        <ele>1814.7</ele>
        <time>2024-08-18T14:47:53Z</time>
      </trkpt>
      <trkpt lat="44.86913" lon="6.5709">
        <ele>1813.7</ele>
        <time>2024-08-18T14:47:53Z</time>
      </trkpt>
      <trkpt lat="44.86908" lon="6.57087">
        <ele>1813.4</ele>
        <time>2024-08-18T14:47:53Z</time>
      </trkpt>
      <trkpt lat="44.86907" lon="6.57085">
        <ele>1814.1</ele>
        <time>2024-08-18T14:47:53Z</time>
      </trkpt>
      <trkpt lat="44.86904" lon="6.57082">
        <ele>1812.9</ele>
        <time>2024-08-18T14:47:53Z</time>
      </trkpt>
      <trkpt lat="44.86899" lon="6.57074">
        <ele>1812.8</ele>
        <time>2024-08-18T14:47:53Z</time>
      </trkpt>
      <trkpt lat="44.86896" lon="6.57066">
        <ele>1812.4</ele>
        <time>2024-08-18T14:47:53Z</time>
      </trkpt>
      <trkpt lat="44.86894" lon="6.57063">
        <ele>1812.9</ele>
        <time>2024-08-18T14:47:53Z</time>
      </trkpt>
      <trkpt lat="44.86892" lon="6.57059">
        <ele>1811.6</ele>
        <time>2024-08-18T14:47:53Z</time>
      </trkpt>
      <trkpt lat="44.86891" lon="6.57058">
        <ele>1811.6</ele>
        <time>2024-08-18T14:47:53Z</time>
      </trkpt>
      <trkpt lat="44.86888" lon="6.57058">
        <ele>1809.7</ele>
        <time>2024-08-18T14:47:53Z</time>
      </trkpt>
      <trkpt lat="44.86886" lon="6.57059">
        <ele>1809.7</ele>
        <time>2024-08-18T14:47:53Z</time>
      </trkpt>
      <trkpt lat="44.86885" lon="6.5706">
        <ele>1807.4</ele>
        <time>2024-08-18T14:47:53Z</time>
      </trkpt>
      <trkpt lat="44.86884" lon="6.57064">
        <ele>1807</ele>
        <time>2024-08-18T14:47:53Z</time>
      </trkpt>
      <trkpt lat="44.86884" lon="6.57068">
        <ele>1807</ele>
        <time>2024-08-18T14:47:53Z</time>
      </trkpt>
      <trkpt lat="44.86885" lon="6.57071">
        <ele>1806.6</ele>
        <time>2024-08-18T14:47:53Z</time>
      </trkpt>
      <trkpt lat="44.86886" lon="6.57072">
        <ele>1808.4</ele>
        <time>2024-08-18T14:47:53Z</time>
      </trkpt>
      <trkpt lat="44.86889" lon="6.5708">
        <ele>1807.5</ele>
        <time>2024-08-18T14:47:53Z</time>
      </trkpt>
      <trkpt lat="44.86893" lon="6.57094">
        <ele>1807.4</ele>
        <time>2024-08-18T14:47:53Z</time>
      </trkpt>
      <trkpt lat="44.86898" lon="6.57111">
        <ele>1807.4</ele>
        <time>2024-08-18T14:47:53Z</time>
      </trkpt>
      <trkpt lat="44.86903" lon="6.57123">
        <ele>1806.1</ele>
        <time>2024-08-18T14:47:53Z</time>
      </trkpt>
      <trkpt lat="44.8691" lon="6.57136">
        <ele>1804.6</ele>
        <time>2024-08-18T14:47:53Z</time>
      </trkpt>
      <trkpt lat="44.86917" lon="6.57146">
        <ele>1802.8</ele>
        <time>2024-08-18T14:47:53Z</time>
      </trkpt>
      <trkpt lat="44.86924" lon="6.57152">
        <ele>1802.6</ele>
        <time>2024-08-18T14:47:53Z</time>
      </trkpt>
      <trkpt lat="44.86927" lon="6.57155">
        <ele>1801.8</ele>
        <time>2024-08-18T14:47:53Z</time>
      </trkpt>
      <trkpt lat="44.86929" lon="6.57158">
        <ele>1802.2</ele>
        <time>2024-08-18T14:47:53Z</time>
      </trkpt>
      <trkpt lat="44.86932" lon="6.57162">
        <ele>1801.4</ele>
        <time>2024-08-18T14:47:53Z</time>
      </trkpt>
      <trkpt lat="44.86933" lon="6.57163">
        <ele>1801.2</ele>
        <time>2024-08-18T14:47:53Z</time>
      </trkpt>
      <trkpt lat="44.86936" lon="6.57169">
        <ele>1800.6</ele>
        <time>2024-08-18T14:47:53Z</time>
      </trkpt>
      <trkpt lat="44.86937" lon="6.57175">
        <ele>1800.8</ele>
        <time>2024-08-18T14:47:53Z</time>
      </trkpt>
      <trkpt lat="44.86937" lon="6.57181">
        <ele>1800</ele>
        <time>2024-08-18T14:47:53Z</time>
      </trkpt>
      <trkpt lat="44.86936" lon="6.57185">
        <ele>1798.9</ele>
        <time>2024-08-18T14:47:53Z</time>
      </trkpt>
      <trkpt lat="44.86934" lon="6.57189">
        <ele>1798.4</ele>
        <time>2024-08-18T14:47:53Z</time>
      </trkpt>
      <trkpt lat="44.86932" lon="6.5719">
        <ele>1797.7</ele>
        <time>2024-08-18T14:47:53Z</time>
      </trkpt>
      <trkpt lat="44.86928" lon="6.57191">
        <ele>1797.7</ele>
        <time>2024-08-18T14:47:53Z</time>
      </trkpt>
      <trkpt lat="44.86922" lon="6.57189">
        <ele>1796.5</ele>
        <time>2024-08-18T14:47:53Z</time>
      </trkpt>
      <trkpt lat="44.86909" lon="6.57185">
        <ele>1795.5</ele>
        <time>2024-08-18T14:47:53Z</time>
      </trkpt>
      <trkpt lat="44.869" lon="6.57184">
        <ele>1795</ele>
        <time>2024-08-18T14:47:53Z</time>
      </trkpt>
      <trkpt lat="44.86894" lon="6.57183">
        <ele>1794.3</ele>
        <time>2024-08-18T14:47:53Z</time>
      </trkpt>
      <trkpt lat="44.86882" lon="6.57178">
        <ele>1792.3</ele>
        <time>2024-08-18T14:47:53Z</time>
      </trkpt>
      <trkpt lat="44.86871" lon="6.57171">
        <ele>1790</ele>
        <time>2024-08-18T14:47:53Z</time>
      </trkpt>
      <trkpt lat="44.86865" lon="6.57166">
        <ele>1789.3</ele>
        <time>2024-08-18T14:47:53Z</time>
      </trkpt>
      <trkpt lat="44.86861" lon="6.57163">
        <ele>1787.9</ele>
        <time>2024-08-18T14:47:53Z</time>
      </trkpt>
      <trkpt lat="44.86858" lon="6.57161">
        <ele>1787</ele>
        <time>2024-08-18T14:47:53Z</time>
      </trkpt>
      <trkpt lat="44.86856" lon="6.57161">
        <ele>1787</ele>
        <time>2024-08-18T14:47:53Z</time>
      </trkpt>
      <trkpt lat="44.86854" lon="6.57162">
        <ele>1785.4</ele>
        <time>2024-08-18T14:47:53Z</time>
      </trkpt>
      <trkpt lat="44.86852" lon="6.57165">
        <ele>1784.9</ele>
        <time>2024-08-18T14:47:53Z</time>
      </trkpt>
      <trkpt lat="44.86851" lon="6.57169">
        <ele>1784.4</ele>
        <time>2024-08-18T14:47:53Z</time>
      </trkpt>
      <trkpt lat="44.86851" lon="6.57172">
        <ele>1783.8</ele>
        <time>2024-08-18T14:47:53Z</time>
      </trkpt>
      <trkpt lat="44.86853" lon="6.57176">
        <ele>1783.3</ele>
        <time>2024-08-18T14:47:53Z</time>
      </trkpt>
      <trkpt lat="44.86857" lon="6.57182">
        <ele>1784.3</ele>
        <time>2024-08-18T14:47:53Z</time>
      </trkpt>
      <trkpt lat="44.86869" lon="6.57199">
        <ele>1786</ele>
        <time>2024-08-18T14:47:53Z</time>
      </trkpt>
      <trkpt lat="44.86883" lon="6.57217">
        <ele>1785.3</ele>
        <time>2024-08-18T14:47:53Z</time>
      </trkpt>
      <trkpt lat="44.86896" lon="6.57235">
        <ele>1783.1</ele>
        <time>2024-08-18T14:47:53Z</time>
      </trkpt>
      <trkpt lat="44.869" lon="6.57244">
        <ele>1782</ele>
        <time>2024-08-18T14:47:53Z</time>
      </trkpt>
      <trkpt lat="44.86906" lon="6.57254">
        <ele>1780.9</ele>
        <time>2024-08-18T14:47:53Z</time>
      </trkpt>
      <trkpt lat="44.8691" lon="6.57262">
        <ele>1780.8</ele>
        <time>2024-08-18T14:47:53Z</time>
      </trkpt>
      <trkpt lat="44.86913" lon="6.57268">
        <ele>1781.5</ele>
        <time>2024-08-18T14:47:53Z</time>
      </trkpt>
      <trkpt lat="44.86915" lon="6.57274">
        <ele>1781</ele>
        <time>2024-08-18T14:47:53Z</time>
      </trkpt>
      <trkpt lat="44.86917" lon="6.57281">
        <ele>1781.3</ele>
        <time>2024-08-18T14:47:53Z</time>
      </trkpt>
      <trkpt lat="44.86918" lon="6.5729">
        <ele>1780.2</ele>
        <time>2024-08-18T14:47:53Z</time>
      </trkpt>
      <trkpt lat="44.86919" lon="6.573">
        <ele>1778.6</ele>
        <time>2024-08-18T14:47:53Z</time>
      </trkpt>
      <trkpt lat="44.8692" lon="6.5731">
        <ele>1779.1</ele>
        <time>2024-08-18T14:47:53Z</time>
      </trkpt>
      <trkpt lat="44.86922" lon="6.57321">
        <ele>1778.1</ele>
        <time>2024-08-18T14:47:53Z</time>
      </trkpt>
      <trkpt lat="44.86922" lon="6.57326">
        <ele>1776.9</ele>
        <time>2024-08-18T14:47:53Z</time>
      </trkpt>
      <trkpt lat="44.86925" lon="6.57332">
        <ele>1777.5</ele>
        <time>2024-08-18T14:47:53Z</time>
      </trkpt>
      <trkpt lat="44.86927" lon="6.57337">
        <ele>1776.5</ele>
        <time>2024-08-18T14:47:53Z</time>
      </trkpt>
      <trkpt lat="44.86931" lon="6.57341">
        <ele>1776.6</ele>
        <time>2024-08-18T14:47:53Z</time>
      </trkpt>
      <trkpt lat="44.86938" lon="6.57347">
        <ele>1777.6</ele>
        <time>2024-08-18T14:47:53Z</time>
      </trkpt>
      <trkpt lat="44.86947" lon="6.57356">
        <ele>1776.7</ele>
        <time>2024-08-18T14:47:53Z</time>
      </trkpt>
      <trkpt lat="44.86953" lon="6.57362">
        <ele>1777</ele>
        <time>2024-08-18T14:47:53Z</time>
      </trkpt>
      <trkpt lat="44.86955" lon="6.57364">
        <ele>1778.3</ele>
        <time>2024-08-18T14:47:53Z</time>
      </trkpt>
      <trkpt lat="44.86957" lon="6.57369">
        <ele>1776.5</ele>
        <time>2024-08-18T14:47:53Z</time>
      </trkpt>
      <trkpt lat="44.86959" lon="6.57374">
        <ele>1776.9</ele>
        <time>2024-08-18T14:47:53Z</time>
      </trkpt>
      <trkpt lat="44.86961" lon="6.5738">
        <ele>1776.1</ele>
        <time>2024-08-18T14:47:53Z</time>
      </trkpt>
      <trkpt lat="44.86963" lon="6.57387">
        <ele>1775.4</ele>
        <time>2024-08-18T14:47:53Z</time>
      </trkpt>
      <trkpt lat="44.86965" lon="6.57392">
        <ele>1774.6</ele>
        <time>2024-08-18T14:47:53Z</time>
      </trkpt>
      <trkpt lat="44.86967" lon="6.57397">
        <ele>1774.5</ele>
        <time>2024-08-18T14:47:53Z</time>
      </trkpt>
      <trkpt lat="44.86968" lon="6.57398">
        <ele>1774.5</ele>
        <time>2024-08-18T14:47:53Z</time>
      </trkpt>
      <trkpt lat="44.86971" lon="6.57401">
        <ele>1774.3</ele>
        <time>2024-08-18T14:47:53Z</time>
      </trkpt>
      <trkpt lat="44.86974" lon="6.57405">
        <ele>1773.4</ele>
        <time>2024-08-18T14:47:53Z</time>
      </trkpt>
      <trkpt lat="44.86978" lon="6.57407">
        <ele>1773.9</ele>
        <time>2024-08-18T14:47:53Z</time>
      </trkpt>
      <trkpt lat="44.86982" lon="6.57409">
        <ele>1773.5</ele>
        <time>2024-08-18T14:47:53Z</time>
      </trkpt>
      <trkpt lat="44.86985" lon="6.57411">
        <ele>1774</ele>
        <time>2024-08-18T14:47:53Z</time>
      </trkpt>
      <trkpt lat="44.86987" lon="6.57412">
        <ele>1773</ele>
        <time>2024-08-18T14:47:53Z</time>
      </trkpt>
      <trkpt lat="44.86991" lon="6.57415">
        <ele>1773.4</ele>
        <time>2024-08-18T14:47:53Z</time>
      </trkpt>
      <trkpt lat="44.86995" lon="6.57419">
        <ele>1772.8</ele>
        <time>2024-08-18T14:47:53Z</time>
      </trkpt>
      <trkpt lat="44.86999" lon="6.57426">
        <ele>1771.7</ele>
        <time>2024-08-18T14:47:53Z</time>
      </trkpt>
      <trkpt lat="44.87003" lon="6.57433">
        <ele>1771.5</ele>
        <time>2024-08-18T14:47:53Z</time>
      </trkpt>
      <trkpt lat="44.87008" lon="6.57441">
        <ele>1770.4</ele>
        <time>2024-08-18T14:47:53Z</time>
      </trkpt>
      <trkpt lat="44.87013" lon="6.5745">
        <ele>1769</ele>
        <time>2024-08-18T14:47:53Z</time>
      </trkpt>
      <trkpt lat="44.8702" lon="6.57458">
        <ele>1767.4</ele>
        <time>2024-08-18T14:47:53Z</time>
      </trkpt>
      <trkpt lat="44.87027" lon="6.57464">
        <ele>1765.5</ele>
        <time>2024-08-18T14:47:53Z</time>
      </trkpt>
      <trkpt lat="44.87033" lon="6.57467">
        <ele>1765.8</ele>
        <time>2024-08-18T14:47:53Z</time>
      </trkpt>
      <trkpt lat="44.87039" lon="6.57469">
        <ele>1764.7</ele>
        <time>2024-08-18T14:47:53Z</time>
      </trkpt>
      <trkpt lat="44.87047" lon="6.5747">
        <ele>1765</ele>
        <time>2024-08-18T14:47:53Z</time>
      </trkpt>
      <trkpt lat="44.87057" lon="6.57474">
        <ele>1764</ele>
        <time>2024-08-18T14:47:53Z</time>
      </trkpt>
      <trkpt lat="44.87069" lon="6.57479">
        <ele>1762.8</ele>
        <time>2024-08-18T14:47:53Z</time>
      </trkpt>
      <trkpt lat="44.87082" lon="6.57486">
        <ele>1759.9</ele>
        <time>2024-08-18T14:47:53Z</time>
      </trkpt>
      <trkpt lat="44.87089" lon="6.5749">
        <ele>1758.1</ele>
        <time>2024-08-18T14:47:53Z</time>
      </trkpt>
      <trkpt lat="44.87093" lon="6.57491">
        <ele>1757.6</ele>
        <time>2024-08-18T14:47:53Z</time>
      </trkpt>
      <trkpt lat="44.87098" lon="6.57492">
        <ele>1757</ele>
        <time>2024-08-18T14:47:53Z</time>
      </trkpt>
      <trkpt lat="44.87104" lon="6.5749">
        <ele>1755.1</ele>
        <time>2024-08-18T14:47:53Z</time>
      </trkpt>
      <trkpt lat="44.87108" lon="6.57489">
        <ele>1755.1</ele>
        <time>2024-08-18T14:47:53Z</time>
      </trkpt>
      <trkpt lat="44.8711" lon="6.5749">
        <ele>1754</ele>
        <time>2024-08-18T14:47:53Z</time>
      </trkpt>
      <trkpt lat="44.87113" lon="6.57492">
        <ele>1752.8</ele>
        <time>2024-08-18T14:47:53Z</time>
      </trkpt>
      <trkpt lat="44.87114" lon="6.57495">
        <ele>1751.6</ele>
        <time>2024-08-18T14:47:53Z</time>
      </trkpt>
      <trkpt lat="44.87114" lon="6.575">
        <ele>1750.3</ele>
        <time>2024-08-18T14:47:53Z</time>
      </trkpt>
      <trkpt lat="44.87113" lon="6.57504">
        <ele>1749.1</ele>
        <time>2024-08-18T14:47:53Z</time>
      </trkpt>
      <trkpt lat="44.87111" lon="6.57506">
        <ele>1749</ele>
        <time>2024-08-18T14:47:53Z</time>
      </trkpt>
      <trkpt lat="44.87109" lon="6.57507">
        <ele>1749</ele>
        <time>2024-08-18T14:47:53Z</time>
      </trkpt>
      <trkpt lat="44.87102" lon="6.57508">
        <ele>1751</ele>
        <time>2024-08-18T14:47:53Z</time>
      </trkpt>
      <trkpt lat="44.87087" lon="6.57509">
        <ele>1752.9</ele>
        <time>2024-08-18T14:47:53Z</time>
      </trkpt>
      <trkpt lat="44.8707" lon="6.57513">
        <ele>1752.3</ele>
        <time>2024-08-18T14:47:53Z</time>
      </trkpt>
      <trkpt lat="44.87057" lon="6.57515">
        <ele>1750.6</ele>
        <time>2024-08-18T14:47:53Z</time>
      </trkpt>
      <trkpt lat="44.87045" lon="6.57516">
        <ele>1750.2</ele>
        <time>2024-08-18T14:47:53Z</time>
      </trkpt>
      <trkpt lat="44.87042" lon="6.57517">
        <ele>1750.2</ele>
        <time>2024-08-18T14:47:53Z</time>
      </trkpt>
      <trkpt lat="44.87032" lon="6.57521">
        <ele>1749</ele>
        <time>2024-08-18T14:47:53Z</time>
      </trkpt>
      <trkpt lat="44.87024" lon="6.57525">
        <ele>1747.9</ele>
        <time>2024-08-18T14:47:53Z</time>
      </trkpt>
      <trkpt lat="44.87019" lon="6.57528">
        <ele>1746.9</ele>
        <time>2024-08-18T14:47:53Z</time>
      </trkpt>
      <trkpt lat="44.87015" lon="6.5753">
        <ele>1747</ele>
        <time>2024-08-18T14:47:53Z</time>
      </trkpt>
      <trkpt lat="44.87006" lon="6.57535">
        <ele>1746.1</ele>
        <time>2024-08-18T14:47:53Z</time>
      </trkpt>
      <trkpt lat="44.87" lon="6.57538">
        <ele>1745.4</ele>
        <time>2024-08-18T14:47:53Z</time>
      </trkpt>
      <trkpt lat="44.86997" lon="6.57539">
        <ele>1745.4</ele>
        <time>2024-08-18T14:47:53Z</time>
      </trkpt>
      <trkpt lat="44.86987" lon="6.57543">
        <ele>1745.1</ele>
        <time>2024-08-18T14:47:53Z</time>
      </trkpt>
      <trkpt lat="44.86972" lon="6.57549">
        <ele>1744.3</ele>
        <time>2024-08-18T14:47:53Z</time>
      </trkpt>
      <trkpt lat="44.86961" lon="6.57553">
        <ele>1745.4</ele>
        <time>2024-08-18T14:47:53Z</time>
      </trkpt>
      <trkpt lat="44.86955" lon="6.57556">
        <ele>1744.9</ele>
        <time>2024-08-18T14:47:53Z</time>
      </trkpt>
      <trkpt lat="44.8695" lon="6.57559">
        <ele>1744.6</ele>
        <time>2024-08-18T14:47:53Z</time>
      </trkpt>
      <trkpt lat="44.86946" lon="6.57562">
        <ele>1744.4</ele>
        <time>2024-08-18T14:47:53Z</time>
      </trkpt>
      <trkpt lat="44.86943" lon="6.57566">
        <ele>1744.8</ele>
        <time>2024-08-18T14:47:53Z</time>
      </trkpt>
      <trkpt lat="44.86941" lon="6.5757">
        <ele>1744.3</ele>
        <time>2024-08-18T14:47:53Z</time>
      </trkpt>
      <trkpt lat="44.86939" lon="6.57574">
        <ele>1744.4</ele>
        <time>2024-08-18T14:47:53Z</time>
      </trkpt>
      <trkpt lat="44.86938" lon="6.57579">
        <ele>1743.5</ele>
        <time>2024-08-18T14:47:53Z</time>
      </trkpt>
      <trkpt lat="44.86937" lon="6.57586">
        <ele>1743.1</ele>
        <time>2024-08-18T14:47:53Z</time>
      </trkpt>
      <trkpt lat="44.86937" lon="6.57595">
        <ele>1742.2</ele>
        <time>2024-08-18T14:47:53Z</time>
      </trkpt>
      <trkpt lat="44.86938" lon="6.57601">
        <ele>1741.3</ele>
        <time>2024-08-18T14:47:53Z</time>
      </trkpt>
      <trkpt lat="44.86939" lon="6.57609">
        <ele>1740.3</ele>
        <time>2024-08-18T14:47:53Z</time>
      </trkpt>
      <trkpt lat="44.86938" lon="6.57617">
        <ele>1739.7</ele>
        <time>2024-08-18T14:47:53Z</time>
      </trkpt>
      <trkpt lat="44.86936" lon="6.57626">
        <ele>1739.6</ele>
        <time>2024-08-18T14:47:53Z</time>
      </trkpt>
      <trkpt lat="44.8693" lon="6.57638">
        <ele>1738.8</ele>
        <time>2024-08-18T14:47:53Z</time>
      </trkpt>
      <trkpt lat="44.86925" lon="6.57647">
        <ele>1738.4</ele>
        <time>2024-08-18T14:47:53Z</time>
      </trkpt>
      <trkpt lat="44.86919" lon="6.57657">
        <ele>1738.1</ele>
        <time>2024-08-18T14:47:53Z</time>
      </trkpt>
      <trkpt lat="44.86911" lon="6.57669">
        <ele>1737.4</ele>
        <time>2024-08-18T14:47:53Z</time>
      </trkpt>
      <trkpt lat="44.86903" lon="6.57679">
        <ele>1736.4</ele>
        <time>2024-08-18T14:47:53Z</time>
      </trkpt>
      <trkpt lat="44.86894" lon="6.57696">
        <ele>1733.9</ele>
        <time>2024-08-18T14:47:53Z</time>
      </trkpt>
      <trkpt lat="44.86887" lon="6.57709">
        <ele>1732.2</ele>
        <time>2024-08-18T14:47:53Z</time>
      </trkpt>
      <trkpt lat="44.86882" lon="6.57721">
        <ele>1729.8</ele>
        <time>2024-08-18T14:47:53Z</time>
      </trkpt>
      <trkpt lat="44.86877" lon="6.57733">
        <ele>1728.5</ele>
        <time>2024-08-18T14:47:53Z</time>
      </trkpt>
      <trkpt lat="44.86873" lon="6.57743">
        <ele>1726.3</ele>
        <time>2024-08-18T14:47:53Z</time>
      </trkpt>
      <trkpt lat="44.8687" lon="6.5775">
        <ele>1726.1</ele>
        <time>2024-08-18T14:47:53Z</time>
      </trkpt>
      <trkpt lat="44.86868" lon="6.57757">
        <ele>1724.3</ele>
        <time>2024-08-18T14:47:53Z</time>
      </trkpt>
      <trkpt lat="44.86864" lon="6.57763">
        <ele>1724.1</ele>
        <time>2024-08-18T14:47:53Z</time>
      </trkpt>
      <trkpt lat="44.86861" lon="6.57766">
        <ele>1723.9</ele>
        <time>2024-08-18T14:47:53Z</time>
      </trkpt>
      <trkpt lat="44.86857" lon="6.5777">
        <ele>1723.6</ele>
        <time>2024-08-18T14:47:53Z</time>
      </trkpt>
      <trkpt lat="44.86856" lon="6.57774">
        <ele>1722.7</ele>
        <time>2024-08-18T14:47:53Z</time>
      </trkpt>
      <trkpt lat="44.86855" lon="6.57777">
        <ele>1722.4</ele>
        <time>2024-08-18T14:47:53Z</time>
      </trkpt>
      <trkpt lat="44.86855" lon="6.57779">
        <ele>1722.4</ele>
        <time>2024-08-18T14:47:53Z</time>
      </trkpt>
      <trkpt lat="44.86855" lon="6.57782">
        <ele>1721.5</ele>
        <time>2024-08-18T14:47:53Z</time>
      </trkpt>
      <trkpt lat="44.86858" lon="6.57784">
        <ele>1720.9</ele>
        <time>2024-08-18T14:47:53Z</time>
      </trkpt>
      <trkpt lat="44.86861" lon="6.57785">
        <ele>1719.3</ele>
        <time>2024-08-18T14:47:53Z</time>
      </trkpt>
      <trkpt lat="44.86865" lon="6.57783">
        <ele>1719.6</ele>
        <time>2024-08-18T14:47:53Z</time>
      </trkpt>
      <trkpt lat="44.86871" lon="6.57779">
        <ele>1719.8</ele>
        <time>2024-08-18T14:47:53Z</time>
      </trkpt>
      <trkpt lat="44.86876" lon="6.57776">
        <ele>1720</ele>
        <time>2024-08-18T14:47:53Z</time>
      </trkpt>
      <trkpt lat="44.86879" lon="6.57775">
        <ele>1719.3</ele>
        <time>2024-08-18T14:47:53Z</time>
      </trkpt>
      <trkpt lat="44.86885" lon="6.57775">
        <ele>1718.7</ele>
        <time>2024-08-18T14:47:53Z</time>
      </trkpt>
      <trkpt lat="44.86896" lon="6.57777">
        <ele>1715.5</ele>
        <time>2024-08-18T14:47:53Z</time>
      </trkpt>
      <trkpt lat="44.86905" lon="6.57777">
        <ele>1713.9</ele>
        <time>2024-08-18T14:47:53Z</time>
      </trkpt>
      <trkpt lat="44.86912" lon="6.57776">
        <ele>1713.4</ele>
        <time>2024-08-18T14:47:53Z</time>
      </trkpt>
      <trkpt lat="44.86924" lon="6.57774">
        <ele>1711.1</ele>
        <time>2024-08-18T14:47:53Z</time>
      </trkpt>
      <trkpt lat="44.86934" lon="6.57773">
        <ele>1709.5</ele>
        <time>2024-08-18T14:47:53Z</time>
      </trkpt>
      <trkpt lat="44.86942" lon="6.5777">
        <ele>1709</ele>
        <time>2024-08-18T14:47:53Z</time>
      </trkpt>
      <trkpt lat="44.86949" lon="6.57767">
        <ele>1709.4</ele>
        <time>2024-08-18T14:47:53Z</time>
      </trkpt>
      <trkpt lat="44.86959" lon="6.5776">
        <ele>1708.3</ele>
        <time>2024-08-18T14:47:53Z</time>
      </trkpt>
      <trkpt lat="44.86968" lon="6.57754">
        <ele>1708.9</ele>
        <time>2024-08-18T14:47:53Z</time>
      </trkpt>
      <trkpt lat="44.86979" lon="6.57747">
        <ele>1708.5</ele>
        <time>2024-08-18T14:47:53Z</time>
      </trkpt>
      <trkpt lat="44.86983" lon="6.57744">
        <ele>1708.8</ele>
        <time>2024-08-18T14:47:53Z</time>
      </trkpt>
      <trkpt lat="44.86986" lon="6.57743">
        <ele>1708</ele>
        <time>2024-08-18T14:47:53Z</time>
      </trkpt>
      <trkpt lat="44.8699" lon="6.57744">
        <ele>1707.1</ele>
        <time>2024-08-18T14:47:53Z</time>
      </trkpt>
      <trkpt lat="44.86991" lon="6.57745">
        <ele>1707.1</ele>
        <time>2024-08-18T14:47:53Z</time>
      </trkpt>
      <trkpt lat="44.86992" lon="6.57749">
        <ele>1705.9</ele>
        <time>2024-08-18T14:47:53Z</time>
      </trkpt>
      <trkpt lat="44.86992" lon="6.57753">
        <ele>1704.6</ele>
        <time>2024-08-18T14:47:53Z</time>
      </trkpt>
      <trkpt lat="44.8699" lon="6.57757">
        <ele>1703.3</ele>
        <time>2024-08-18T14:47:53Z</time>
      </trkpt>
      <trkpt lat="44.86986" lon="6.57761">
        <ele>1703.1</ele>
        <time>2024-08-18T14:47:53Z</time>
      </trkpt>
      <trkpt lat="44.86983" lon="6.57765">
        <ele>1703</ele>
        <time>2024-08-18T14:47:53Z</time>
      </trkpt>
      <trkpt lat="44.8698" lon="6.5777">
        <ele>1701.7</ele>
        <time>2024-08-18T14:47:53Z</time>
      </trkpt>
      <trkpt lat="44.86975" lon="6.57782">
        <ele>1700</ele>
        <time>2024-08-18T14:47:53Z</time>
      </trkpt>
      <trkpt lat="44.86973" lon="6.5779">
        <ele>1697.3</ele>
        <time>2024-08-18T14:47:53Z</time>
      </trkpt>
      <trkpt lat="44.86971" lon="6.57797">
        <ele>1695.9</ele>
        <time>2024-08-18T14:47:53Z</time>
      </trkpt>
      <trkpt lat="44.86967" lon="6.57804">
        <ele>1694.3</ele>
        <time>2024-08-18T14:47:53Z</time>
      </trkpt>
      <trkpt lat="44.86963" lon="6.5781">
        <ele>1694.2</ele>
        <time>2024-08-18T14:47:53Z</time>
      </trkpt>
      <trkpt lat="44.86957" lon="6.57815">
        <ele>1693.8</ele>
        <time>2024-08-18T14:47:53Z</time>
      </trkpt>
      <trkpt lat="44.86949" lon="6.5782">
        <ele>1694.5</ele>
        <time>2024-08-18T14:47:53Z</time>
      </trkpt>
      <trkpt lat="44.8694" lon="6.57826">
        <ele>1694.8</ele>
        <time>2024-08-18T14:47:53Z</time>
      </trkpt>
      <trkpt lat="44.86927" lon="6.57834">
        <ele>1694.2</ele>
        <time>2024-08-18T14:47:53Z</time>
      </trkpt>
      <trkpt lat="44.86916" lon="6.57842">
        <ele>1692.9</ele>
        <time>2024-08-18T14:47:53Z</time>
      </trkpt>
      <trkpt lat="44.86907" lon="6.57848">
        <ele>1692.9</ele>
        <time>2024-08-18T14:47:53Z</time>
      </trkpt>
      <trkpt lat="44.86898" lon="6.57855">
        <ele>1691.6</ele>
        <time>2024-08-18T14:47:53Z</time>
      </trkpt>
      <trkpt lat="44.86889" lon="6.57863">
        <ele>1690.9</ele>
        <time>2024-08-18T14:47:53Z</time>
      </trkpt>
      <trkpt lat="44.86877" lon="6.57872">
        <ele>1689.5</ele>
        <time>2024-08-18T14:47:53Z</time>
      </trkpt>
      <trkpt lat="44.86868" lon="6.57879">
        <ele>1689.4</ele>
        <time>2024-08-18T14:47:53Z</time>
      </trkpt>
      <trkpt lat="44.86863" lon="6.57882">
        <ele>1689.2</ele>
        <time>2024-08-18T14:47:53Z</time>
      </trkpt>
      <trkpt lat="44.86859" lon="6.57886">
        <ele>1688.3</ele>
        <time>2024-08-18T14:47:53Z</time>
      </trkpt>
      <trkpt lat="44.86854" lon="6.57887">
        <ele>1688.9</ele>
        <time>2024-08-18T14:47:53Z</time>
      </trkpt>
      <trkpt lat="44.86849" lon="6.57888">
        <ele>1687.9</ele>
        <time>2024-08-18T14:47:53Z</time>
      </trkpt>
      <trkpt lat="44.86843" lon="6.57887">
        <ele>1690.1</ele>
        <time>2024-08-18T14:47:53Z</time>
      </trkpt>
      <trkpt lat="44.86832" lon="6.57887">
        <ele>1691.9</ele>
        <time>2024-08-18T14:47:53Z</time>
      </trkpt>
      <trkpt lat="44.86828" lon="6.57888">
        <ele>1690.8</ele>
        <time>2024-08-18T14:47:53Z</time>
      </trkpt>
      <trkpt lat="44.86823" lon="6.57889">
        <ele>1691.4</ele>
        <time>2024-08-18T14:47:53Z</time>
      </trkpt>
      <trkpt lat="44.86817" lon="6.57891">
        <ele>1692</ele>
        <time>2024-08-18T14:47:53Z</time>
      </trkpt>
      <trkpt lat="44.86813" lon="6.57895">
        <ele>1691</ele>
        <time>2024-08-18T14:47:53Z</time>
      </trkpt>
      <trkpt lat="44.86809" lon="6.57898">
        <ele>1690</ele>
        <time>2024-08-18T14:47:53Z</time>
      </trkpt>
      <trkpt lat="44.86806" lon="6.57903">
        <ele>1689</ele>
        <time>2024-08-18T14:47:53Z</time>
      </trkpt>
      <trkpt lat="44.86802" lon="6.57909">
        <ele>1688.1</ele>
        <time>2024-08-18T14:47:53Z</time>
      </trkpt>
      <trkpt lat="44.86797" lon="6.57916">
        <ele>1685.6</ele>
        <time>2024-08-18T14:47:53Z</time>
      </trkpt>
      <trkpt lat="44.86794" lon="6.5792">
        <ele>1684.8</ele>
        <time>2024-08-18T14:47:53Z</time>
      </trkpt>
      <trkpt lat="44.86791" lon="6.57923">
        <ele>1683.3</ele>
        <time>2024-08-18T14:47:53Z</time>
      </trkpt>
      <trkpt lat="44.86787" lon="6.57926">
        <ele>1683.9</ele>
        <time>2024-08-18T14:47:53Z</time>
      </trkpt>
      <trkpt lat="44.86783" lon="6.57929">
        <ele>1682.9</ele>
        <time>2024-08-18T14:47:53Z</time>
      </trkpt>
      <trkpt lat="44.86779" lon="6.5793">
        <ele>1683.4</ele>
        <time>2024-08-18T14:47:53Z</time>
      </trkpt>
      <trkpt lat="44.86777" lon="6.57931">
        <ele>1682.1</ele>
        <time>2024-08-18T14:47:53Z</time>
      </trkpt>
      <trkpt lat="44.86775" lon="6.57933">
        <ele>1682.1</ele>
        <time>2024-08-18T14:47:53Z</time>
      </trkpt>
      <trkpt lat="44.86774" lon="6.57937">
        <ele>1680.5</ele>
        <time>2024-08-18T14:47:53Z</time>
      </trkpt>
      <trkpt lat="44.86775" lon="6.57941">
        <ele>1678.9</ele>
        <time>2024-08-18T14:47:53Z</time>
      </trkpt>
      <trkpt lat="44.86776" lon="6.57943">
        <ele>1678.9</ele>
        <time>2024-08-18T14:47:53Z</time>
      </trkpt>
      <trkpt lat="44.86779" lon="6.57944">
        <ele>1677.2</ele>
        <time>2024-08-18T14:47:53Z</time>
      </trkpt>
      <trkpt lat="44.86783" lon="6.57943">
        <ele>1678.4</ele>
        <time>2024-08-18T14:47:53Z</time>
      </trkpt>
      <trkpt lat="44.86791" lon="6.57938">
        <ele>1679.1</ele>
        <time>2024-08-18T14:47:53Z</time>
      </trkpt>
      <trkpt lat="44.86801" lon="6.57931">
        <ele>1679.3</ele>
        <time>2024-08-18T14:47:53Z</time>
      </trkpt>
      <trkpt lat="44.86809" lon="6.57925">
        <ele>1680.5</ele>
        <time>2024-08-18T14:47:53Z</time>
      </trkpt>
      <trkpt lat="44.86816" lon="6.57923">
        <ele>1679.8</ele>
        <time>2024-08-18T14:47:53Z</time>
      </trkpt>
      <trkpt lat="44.86823" lon="6.57923">
        <ele>1678.7</ele>
        <time>2024-08-18T14:47:53Z</time>
      </trkpt>
      <trkpt lat="44.86828" lon="6.57925">
        <ele>1678.2</ele>
        <time>2024-08-18T14:47:53Z</time>
      </trkpt>
      <trkpt lat="44.86829" lon="6.57925">
        <ele>1678.2</ele>
        <time>2024-08-18T14:47:53Z</time>
      </trkpt>
      <trkpt lat="44.86835" lon="6.57928">
        <ele>1676.4</ele>
        <time>2024-08-18T14:47:53Z</time>
      </trkpt>
      <trkpt lat="44.8684" lon="6.57933">
        <ele>1675.1</ele>
        <time>2024-08-18T14:47:53Z</time>
      </trkpt>
      <trkpt lat="44.86842" lon="6.57937">
        <ele>1674.2</ele>
        <time>2024-08-18T14:47:53Z</time>
      </trkpt>
      <trkpt lat="44.86843" lon="6.57942">
        <ele>1672.9</ele>
        <time>2024-08-18T14:47:53Z</time>
      </trkpt>
      <trkpt lat="44.86843" lon="6.57947">
        <ele>1671.9</ele>
        <time>2024-08-18T14:47:53Z</time>
      </trkpt>
      <trkpt lat="44.86842" lon="6.57954">
        <ele>1670.1</ele>
        <time>2024-08-18T14:47:53Z</time>
      </trkpt>
      <trkpt lat="44.86838" lon="6.57962">
        <ele>1667.8</ele>
        <time>2024-08-18T14:47:53Z</time>
      </trkpt>
      <trkpt lat="44.86833" lon="6.57969">
        <ele>1667.4</ele>
        <time>2024-08-18T14:47:53Z</time>
      </trkpt>
      <trkpt lat="44.86827" lon="6.57979">
        <ele>1663.9</ele>
        <time>2024-08-18T14:47:53Z</time>
      </trkpt>
      <trkpt lat="44.86821" lon="6.57985">
        <ele>1662.9</ele>
        <time>2024-08-18T14:47:53Z</time>
      </trkpt>
      <trkpt lat="44.86817" lon="6.5799">
        <ele>1661.8</ele>
        <time>2024-08-18T14:47:53Z</time>
      </trkpt>
      <trkpt lat="44.86814" lon="6.57993">
        <ele>1660.7</ele>
        <time>2024-08-18T14:47:53Z</time>
      </trkpt>
      <trkpt lat="44.8681" lon="6.57995">
        <ele>1660.8</ele>
        <time>2024-08-18T14:47:53Z</time>
      </trkpt>
      <trkpt lat="44.86805" lon="6.57996">
        <ele>1659.5</ele>
        <time>2024-08-18T14:47:53Z</time>
      </trkpt>
      <trkpt lat="44.868" lon="6.57994">
        <ele>1660.9</ele>
        <time>2024-08-18T14:47:53Z</time>
      </trkpt>
      <trkpt lat="44.86794" lon="6.57991">
        <ele>1660.9</ele>
        <time>2024-08-18T14:47:53Z</time>
      </trkpt>
      <trkpt lat="44.8679" lon="6.57986">
        <ele>1664</ele>
        <time>2024-08-18T14:47:53Z</time>
      </trkpt>
      <trkpt lat="44.86785" lon="6.57981">
        <ele>1665.5</ele>
        <time>2024-08-18T14:47:53Z</time>
      </trkpt>
      <trkpt lat="44.86782" lon="6.57981">
        <ele>1665.4</ele>
        <time>2024-08-18T14:47:53Z</time>
      </trkpt>
      <trkpt lat="44.86779" lon="6.57982">
        <ele>1665.4</ele>
        <time>2024-08-18T14:47:53Z</time>
      </trkpt>
      <trkpt lat="44.86777" lon="6.57984">
        <ele>1663.6</ele>
        <time>2024-08-18T14:47:53Z</time>
      </trkpt>
      <trkpt lat="44.86776" lon="6.57987">
        <ele>1661.9</ele>
        <time>2024-08-18T14:47:53Z</time>
      </trkpt>
      <trkpt lat="44.86776" lon="6.5799">
        <ele>1661.9</ele>
        <time>2024-08-18T14:47:53Z</time>
      </trkpt>
      <trkpt lat="44.86778" lon="6.57994">
        <ele>1660.5</ele>
        <time>2024-08-18T14:47:53Z</time>
      </trkpt>
      <trkpt lat="44.86781" lon="6.57998">
        <ele>1658.8</ele>
        <time>2024-08-18T14:47:53Z</time>
      </trkpt>
      <trkpt lat="44.86794" lon="6.58005">
        <ele>1656.3</ele>
        <time>2024-08-18T14:47:53Z</time>
      </trkpt>
      <trkpt lat="44.86811" lon="6.58014">
        <ele>1654.1</ele>
        <time>2024-08-18T14:47:53Z</time>
      </trkpt>
      <trkpt lat="44.86827" lon="6.58021">
        <ele>1652.1</ele>
        <time>2024-08-18T14:47:53Z</time>
      </trkpt>
      <trkpt lat="44.86836" lon="6.58026">
        <ele>1651.2</ele>
        <time>2024-08-18T14:47:53Z</time>
      </trkpt>
      <trkpt lat="44.86843" lon="6.58031">
        <ele>1650.1</ele>
        <time>2024-08-18T14:47:53Z</time>
      </trkpt>
      <trkpt lat="44.86847" lon="6.58032">
        <ele>1650</ele>
        <time>2024-08-18T14:47:53Z</time>
      </trkpt>
      <trkpt lat="44.86852" lon="6.58033">
        <ele>1649.8</ele>
        <time>2024-08-18T14:47:53Z</time>
      </trkpt>
      <trkpt lat="44.86856" lon="6.58032">
        <ele>1649.5</ele>
        <time>2024-08-18T14:47:53Z</time>
      </trkpt>
      <trkpt lat="44.8686" lon="6.58029">
        <ele>1650.3</ele>
        <time>2024-08-18T14:47:53Z</time>
      </trkpt>
      <trkpt lat="44.86863" lon="6.58025">
        <ele>1651.4</ele>
        <time>2024-08-18T14:47:53Z</time>
      </trkpt>
      <trkpt lat="44.86866" lon="6.5802">
        <ele>1652.1</ele>
        <time>2024-08-18T14:47:53Z</time>
      </trkpt>
      <trkpt lat="44.86875" lon="6.58006">
        <ele>1654.4</ele>
        <time>2024-08-18T14:47:53Z</time>
      </trkpt>
      <trkpt lat="44.86883" lon="6.57991">
        <ele>1656.5</ele>
        <time>2024-08-18T14:47:53Z</time>
      </trkpt>
      <trkpt lat="44.86896" lon="6.57974">
        <ele>1658.6</ele>
        <time>2024-08-18T14:47:53Z</time>
      </trkpt>
      <trkpt lat="44.86909" lon="6.57961">
        <ele>1659.4</ele>
        <time>2024-08-18T14:47:53Z</time>
      </trkpt>
      <trkpt lat="44.86918" lon="6.57951">
        <ele>1661.2</ele>
        <time>2024-08-18T14:47:53Z</time>
      </trkpt>
      <trkpt lat="44.86922" lon="6.57947">
        <ele>1661.5</ele>
        <time>2024-08-18T14:47:53Z</time>
      </trkpt>
      <trkpt lat="44.86925" lon="6.57946">
        <ele>1660.6</ele>
        <time>2024-08-18T14:47:53Z</time>
      </trkpt>
      <trkpt lat="44.86928" lon="6.57947">
        <ele>1659.7</ele>
        <time>2024-08-18T14:47:53Z</time>
      </trkpt>
      <trkpt lat="44.86929" lon="6.57949">
        <ele>1658.5</ele>
        <time>2024-08-18T14:47:53Z</time>
      </trkpt>
      <trkpt lat="44.8693" lon="6.57953">
        <ele>1657.2</ele>
        <time>2024-08-18T14:47:53Z</time>
      </trkpt>
      <trkpt lat="44.86929" lon="6.57957">
        <ele>1656</ele>
        <time>2024-08-18T14:47:53Z</time>
      </trkpt>
      <trkpt lat="44.86927" lon="6.57961">
        <ele>1655.7</ele>
        <time>2024-08-18T14:47:53Z</time>
      </trkpt>
      <trkpt lat="44.86924" lon="6.57964">
        <ele>1655.7</ele>
        <time>2024-08-18T14:47:53Z</time>
      </trkpt>
      <trkpt lat="44.86918" lon="6.57967">
        <ele>1656.4</ele>
        <time>2024-08-18T14:47:53Z</time>
      </trkpt>
      <trkpt lat="44.86914" lon="6.57971">
        <ele>1656.2</ele>
        <time>2024-08-18T14:47:53Z</time>
      </trkpt>
      <trkpt lat="44.86911" lon="6.57975">
        <ele>1655.1</ele>
        <time>2024-08-18T14:47:53Z</time>
      </trkpt>
      <trkpt lat="44.86907" lon="6.57983">
        <ele>1653.9</ele>
        <time>2024-08-18T14:47:53Z</time>
      </trkpt>
      <trkpt lat="44.86905" lon="6.57991">
        <ele>1652.7</ele>
        <time>2024-08-18T14:47:53Z</time>
      </trkpt>
      <trkpt lat="44.86902" lon="6.57999">
        <ele>1652.5</ele>
        <time>2024-08-18T14:47:53Z</time>
      </trkpt>
      <trkpt lat="44.86897" lon="6.58007">
        <ele>1651.3</ele>
        <time>2024-08-18T14:47:53Z</time>
      </trkpt>
      <trkpt lat="44.86893" lon="6.58015">
        <ele>1649.9</ele>
        <time>2024-08-18T14:47:53Z</time>
      </trkpt>
      <trkpt lat="44.8689" lon="6.58022">
        <ele>1647.7</ele>
        <time>2024-08-18T14:47:53Z</time>
      </trkpt>
      <trkpt lat="44.86886" lon="6.5803">
        <ele>1645.8</ele>
        <time>2024-08-18T14:47:53Z</time>
      </trkpt>
      <trkpt lat="44.86882" lon="6.5804">
        <ele>1644</ele>
        <time>2024-08-18T14:47:53Z</time>
      </trkpt>
      <trkpt lat="44.86879" lon="6.58047">
        <ele>1642.1</ele>
        <time>2024-08-18T14:47:53Z</time>
      </trkpt>
      <trkpt lat="44.86876" lon="6.58053">
        <ele>1641.4</ele>
        <time>2024-08-18T14:47:53Z</time>
      </trkpt>
      <trkpt lat="44.86873" lon="6.58059">
        <ele>1640.1</ele>
        <time>2024-08-18T14:47:53Z</time>
      </trkpt>
      <trkpt lat="44.8687" lon="6.58066">
        <ele>1638.1</ele>
        <time>2024-08-18T14:47:53Z</time>
      </trkpt>
      <trkpt lat="44.86866" lon="6.58072">
        <ele>1637.3</ele>
        <time>2024-08-18T14:47:53Z</time>
      </trkpt>
      <trkpt lat="44.86864" lon="6.58076">
        <ele>1635.9</ele>
        <time>2024-08-18T14:47:53Z</time>
      </trkpt>
      <trkpt lat="44.86861" lon="6.58078">
        <ele>1634.9</ele>
        <time>2024-08-18T14:47:53Z</time>
      </trkpt>
      <trkpt lat="44.86859" lon="6.58079">
        <ele>1635.3</ele>
        <time>2024-08-18T14:47:53Z</time>
      </trkpt>
      <trkpt lat="44.86855" lon="6.5808">
        <ele>1635.6</ele>
        <time>2024-08-18T14:47:53Z</time>
      </trkpt>
      <trkpt lat="44.86852" lon="6.58081">
        <ele>1635.6</ele>
        <time>2024-08-18T14:47:53Z</time>
      </trkpt>
      <trkpt lat="44.86847" lon="6.58081">
        <ele>1635.8</ele>
        <time>2024-08-18T14:47:53Z</time>
      </trkpt>
      <trkpt lat="44.86842" lon="6.58079">
        <ele>1635.9</ele>
        <time>2024-08-18T14:47:53Z</time>
      </trkpt>
      <trkpt lat="44.86834" lon="6.58075">
        <ele>1637.3</ele>
        <time>2024-08-18T14:47:53Z</time>
      </trkpt>
      <trkpt lat="44.8683" lon="6.58073">
        <ele>1637.1</ele>
        <time>2024-08-18T14:47:53Z</time>
      </trkpt>
      <trkpt lat="44.86827" lon="6.58072">
        <ele>1638.3</ele>
        <time>2024-08-18T14:47:53Z</time>
      </trkpt>
      <trkpt lat="44.86824" lon="6.58072">
        <ele>1637.9</ele>
        <time>2024-08-18T14:47:53Z</time>
      </trkpt>
      <trkpt lat="44.86822" lon="6.58073">
        <ele>1636.5</ele>
        <time>2024-08-18T14:47:53Z</time>
      </trkpt>
      <trkpt lat="44.86821" lon="6.58074">
        <ele>1636.5</ele>
        <time>2024-08-18T14:47:53Z</time>
      </trkpt>
      <trkpt lat="44.8682" lon="6.58077">
        <ele>1634.6</ele>
        <time>2024-08-18T14:47:53Z</time>
      </trkpt>
      <trkpt lat="44.8682" lon="6.58079">
        <ele>1634.6</ele>
        <time>2024-08-18T14:47:53Z</time>
      </trkpt>
      <trkpt lat="44.86821" lon="6.5808">
        <ele>1635</ele>
        <time>2024-08-18T14:47:53Z</time>
      </trkpt>
      <trkpt lat="44.86823" lon="6.58084">
        <ele>1633.5</ele>
        <time>2024-08-18T14:47:53Z</time>
      </trkpt>
      <trkpt lat="44.86828" lon="6.58087">
        <ele>1632.3</ele>
        <time>2024-08-18T14:47:53Z</time>
      </trkpt>
      <trkpt lat="44.86839" lon="6.58091">
        <ele>1631.3</ele>
        <time>2024-08-18T14:47:53Z</time>
      </trkpt>
      <trkpt lat="44.86847" lon="6.58096">
        <ele>1629.6</ele>
        <time>2024-08-18T14:47:53Z</time>
      </trkpt>
      <trkpt lat="44.86852" lon="6.58099">
        <ele>1627.8</ele>
        <time>2024-08-18T14:47:53Z</time>
      </trkpt>
      <trkpt lat="44.86857" lon="6.58101">
        <ele>1627.6</ele>
        <time>2024-08-18T14:47:53Z</time>
      </trkpt>
      <trkpt lat="44.86863" lon="6.58101">
        <ele>1627.3</ele>
        <time>2024-08-18T14:47:53Z</time>
      </trkpt>
      <trkpt lat="44.8687" lon="6.58101">
        <ele>1626.6</ele>
        <time>2024-08-18T14:47:53Z</time>
      </trkpt>
      <trkpt lat="44.86881" lon="6.58099">
        <ele>1625.2</ele>
        <time>2024-08-18T14:47:53Z</time>
      </trkpt>
      <trkpt lat="44.86899" lon="6.58094">
        <ele>1624.3</ele>
        <time>2024-08-18T14:47:53Z</time>
      </trkpt>
      <trkpt lat="44.86907" lon="6.58093">
        <ele>1624.3</ele>
        <time>2024-08-18T14:47:53Z</time>
      </trkpt>
      <trkpt lat="44.86914" lon="6.58092">
        <ele>1623.6</ele>
        <time>2024-08-18T14:47:53Z</time>
      </trkpt>
      <trkpt lat="44.86922" lon="6.58093">
        <ele>1622.4</ele>
        <time>2024-08-18T14:47:53Z</time>
      </trkpt>
      <trkpt lat="44.86934" lon="6.58096">
        <ele>1619.5</ele>
        <time>2024-08-18T14:47:53Z</time>
      </trkpt>
      <trkpt lat="44.86945" lon="6.58099">
        <ele>1617.3</ele>
        <time>2024-08-18T14:47:53Z</time>
      </trkpt>
      <trkpt lat="44.86953" lon="6.58101">
        <ele>1616.5</ele>
        <time>2024-08-18T14:47:53Z</time>
      </trkpt>
      <trkpt lat="44.86966" lon="6.58104">
        <ele>1613.8</ele>
        <time>2024-08-18T14:47:53Z</time>
      </trkpt>
      <trkpt lat="44.86972" lon="6.58106">
        <ele>1612.8</ele>
        <time>2024-08-18T14:47:53Z</time>
      </trkpt>
      <trkpt lat="44.86978" lon="6.58106">
        <ele>1612.4</ele>
        <time>2024-08-18T14:47:53Z</time>
      </trkpt>
      <trkpt lat="44.86984" lon="6.58106">
        <ele>1611.6</ele>
        <time>2024-08-18T14:47:53Z</time>
      </trkpt>
      <trkpt lat="44.8699" lon="6.58105">
        <ele>1611.2</ele>
        <time>2024-08-18T14:47:53Z</time>
      </trkpt>
      <trkpt lat="44.86997" lon="6.58105">
        <ele>1610.4</ele>
        <time>2024-08-18T14:47:53Z</time>
      </trkpt>
      <trkpt lat="44.87002" lon="6.58104">
        <ele>1610</ele>
        <time>2024-08-18T14:47:53Z</time>
      </trkpt>
      <trkpt lat="44.8701" lon="6.58102">
        <ele>1610.7</ele>
        <time>2024-08-18T14:47:53Z</time>
      </trkpt>
      <trkpt lat="44.87018" lon="6.58096">
        <ele>1611.8</ele>
        <time>2024-08-18T14:47:53Z</time>
      </trkpt>
      <trkpt lat="44.87027" lon="6.58091">
        <ele>1611.9</ele>
        <time>2024-08-18T14:47:53Z</time>
      </trkpt>
      <trkpt lat="44.87036" lon="6.58087">
        <ele>1612.5</ele>
        <time>2024-08-18T14:47:53Z</time>
      </trkpt>
      <trkpt lat="44.87042" lon="6.58084">
        <ele>1613.6</ele>
        <time>2024-08-18T14:47:53Z</time>
      </trkpt>
      <trkpt lat="44.87047" lon="6.58083">
        <ele>1613</ele>
        <time>2024-08-18T14:47:53Z</time>
      </trkpt>
      <trkpt lat="44.87056" lon="6.58082">
        <ele>1611.8</ele>
        <time>2024-08-18T14:47:53Z</time>
      </trkpt>
      <trkpt lat="44.87067" lon="6.58082">
        <ele>1609.7</ele>
        <time>2024-08-18T14:47:53Z</time>
      </trkpt>
      <trkpt lat="44.8708" lon="6.5808">
        <ele>1609.1</ele>
        <time>2024-08-18T14:47:53Z</time>
      </trkpt>
      <trkpt lat="44.8709" lon="6.58079">
        <ele>1607.7</ele>
        <time>2024-08-18T14:47:53Z</time>
      </trkpt>
      <trkpt lat="44.87096" lon="6.58077">
        <ele>1606.2</ele>
        <time>2024-08-18T14:47:53Z</time>
      </trkpt>
      <trkpt lat="44.87102" lon="6.58075">
        <ele>1607.1</ele>
        <time>2024-08-18T14:47:53Z</time>
      </trkpt>
      <trkpt lat="44.87108" lon="6.58074">
        <ele>1606.4</ele>
        <time>2024-08-18T14:47:53Z</time>
      </trkpt>
      <trkpt lat="44.87114" lon="6.58074">
        <ele>1604.8</ele>
        <time>2024-08-18T14:47:53Z</time>
      </trkpt>
      <trkpt lat="44.87121" lon="6.58076">
        <ele>1603.9</ele>
        <time>2024-08-18T14:47:53Z</time>
      </trkpt>
      <trkpt lat="44.87128" lon="6.58079">
        <ele>1600.5</ele>
        <time>2024-08-18T14:47:53Z</time>
      </trkpt>
      <trkpt lat="44.87129" lon="6.58079">
        <ele>1600.5</ele>
        <time>2024-08-18T14:47:53Z</time>
      </trkpt>
      <trkpt lat="44.87134" lon="6.5808">
        <ele>1598.7</ele>
        <time>2024-08-18T14:47:53Z</time>
      </trkpt>
      <trkpt lat="44.87141" lon="6.5808">
        <ele>1597.7</ele>
        <time>2024-08-18T14:47:53Z</time>
      </trkpt>
      <trkpt lat="44.87146" lon="6.58079">
        <ele>1596.8</ele>
        <time>2024-08-18T14:47:53Z</time>
      </trkpt>
      <trkpt lat="44.87152" lon="6.58077">
        <ele>1594.9</ele>
        <time>2024-08-18T14:47:53Z</time>
      </trkpt>
      <trkpt lat="44.87156" lon="6.58074">
        <ele>1595.7</ele>
        <time>2024-08-18T14:47:53Z</time>
      </trkpt>
      <trkpt lat="44.8716" lon="6.58071">
        <ele>1596.4</ele>
        <time>2024-08-18T14:47:53Z</time>
      </trkpt>
      <trkpt lat="44.87164" lon="6.58069">
        <ele>1596.4</ele>
        <time>2024-08-18T14:47:53Z</time>
      </trkpt>
      <trkpt lat="44.87167" lon="6.58069">
        <ele>1595.4</ele>
        <time>2024-08-18T14:47:53Z</time>
      </trkpt>
      <trkpt lat="44.8717" lon="6.58071">
        <ele>1594.5</ele>
        <time>2024-08-18T14:47:53Z</time>
      </trkpt>
      <trkpt lat="44.87171" lon="6.58073">
        <ele>1592.8</ele>
        <time>2024-08-18T14:47:53Z</time>
      </trkpt>
      <trkpt lat="44.87171" lon="6.58079">
        <ele>1591.2</ele>
        <time>2024-08-18T14:47:53Z</time>
      </trkpt>
      <trkpt lat="44.87169" lon="6.58082">
        <ele>1589.6</ele>
        <time>2024-08-18T14:47:53Z</time>
      </trkpt>
      <trkpt lat="44.87166" lon="6.58085">
        <ele>1590.5</ele>
        <time>2024-08-18T14:47:53Z</time>
      </trkpt>
      <trkpt lat="44.87159" lon="6.58088">
        <ele>1590.7</ele>
        <time>2024-08-18T14:47:53Z</time>
      </trkpt>
      <trkpt lat="44.87147" lon="6.58094">
        <ele>1589.4</ele>
        <time>2024-08-18T14:47:53Z</time>
      </trkpt>
      <trkpt lat="44.87134" lon="6.58099">
        <ele>1590.5</ele>
        <time>2024-08-18T14:47:53Z</time>
      </trkpt>
      <trkpt lat="44.87123" lon="6.58104">
        <ele>1591.6</ele>
        <time>2024-08-18T14:47:53Z</time>
      </trkpt>
      <trkpt lat="44.87113" lon="6.58109">
        <ele>1591.7</ele>
        <time>2024-08-18T14:47:53Z</time>
      </trkpt>
      <trkpt lat="44.87103" lon="6.58115">
        <ele>1592.9</ele>
        <time>2024-08-18T14:47:53Z</time>
      </trkpt>
      <trkpt lat="44.87093" lon="6.58122">
        <ele>1591.7</ele>
        <time>2024-08-18T14:47:53Z</time>
      </trkpt>
      <trkpt lat="44.87089" lon="6.58126">
        <ele>1591</ele>
        <time>2024-08-18T14:47:53Z</time>
      </trkpt>
      <trkpt lat="44.87086" lon="6.5813">
        <ele>1590.2</ele>
        <time>2024-08-18T14:47:53Z</time>
      </trkpt>
      <trkpt lat="44.87077" lon="6.58139">
        <ele>1588.2</ele>
        <time>2024-08-18T14:47:53Z</time>
      </trkpt>
      <trkpt lat="44.87066" lon="6.5815">
        <ele>1584.4</ele>
        <time>2024-08-18T14:47:53Z</time>
      </trkpt>
      <trkpt lat="44.87056" lon="6.5816">
        <ele>1583.2</ele>
        <time>2024-08-18T14:47:53Z</time>
      </trkpt>
      <trkpt lat="44.87048" lon="6.58169">
        <ele>1581.4</ele>
        <time>2024-08-18T14:47:53Z</time>
      </trkpt>
      <trkpt lat="44.87042" lon="6.58179">
        <ele>1579</ele>
        <time>2024-08-18T14:47:53Z</time>
      </trkpt>
      <trkpt lat="44.87037" lon="6.58185">
        <ele>1576.7</ele>
        <time>2024-08-18T14:47:53Z</time>
      </trkpt>
      <trkpt lat="44.87032" lon="6.58189">
        <ele>1575.9</ele>
        <time>2024-08-18T14:47:53Z</time>
      </trkpt>
      <trkpt lat="44.87027" lon="6.58195">
        <ele>1575.2</ele>
        <time>2024-08-18T14:47:53Z</time>
      </trkpt>
      <trkpt lat="44.87019" lon="6.58199">
        <ele>1575.1</ele>
        <time>2024-08-18T14:47:53Z</time>
      </trkpt>
      <trkpt lat="44.87014" lon="6.58203">
        <ele>1574.3</ele>
        <time>2024-08-18T14:47:53Z</time>
      </trkpt>
      <trkpt lat="44.87008" lon="6.58207">
        <ele>1574.1</ele>
        <time>2024-08-18T14:47:53Z</time>
      </trkpt>
      <trkpt lat="44.87004" lon="6.58212">
        <ele>1573.4</ele>
        <time>2024-08-18T14:47:53Z</time>
      </trkpt>
      <trkpt lat="44.86999" lon="6.58218">
        <ele>1572.8</ele>
        <time>2024-08-18T14:47:53Z</time>
      </trkpt>
      <trkpt lat="44.86995" lon="6.58224">
        <ele>1571</ele>
        <time>2024-08-18T14:47:53Z</time>
      </trkpt>
      <trkpt lat="44.86992" lon="6.58229">
        <ele>1570.5</ele>
        <time>2024-08-18T14:47:53Z</time>
      </trkpt>
      <trkpt lat="44.86987" lon="6.58234">
        <ele>1570</ele>
        <time>2024-08-18T14:47:53Z</time>
      </trkpt>
      <trkpt lat="44.86982" lon="6.58235">
        <ele>1570.7</ele>
        <time>2024-08-18T14:47:53Z</time>
      </trkpt>
      <trkpt lat="44.86975" lon="6.58238">
        <ele>1570.5</ele>
        <time>2024-08-18T14:47:53Z</time>
      </trkpt>
      <trkpt lat="44.86971" lon="6.58241">
        <ele>1569</ele>
        <time>2024-08-18T14:47:53Z</time>
      </trkpt>
      <trkpt lat="44.86966" lon="6.58244">
        <ele>1569.9</ele>
        <time>2024-08-18T14:47:53Z</time>
      </trkpt>
      <trkpt lat="44.8696" lon="6.58246">
        <ele>1568.5</ele>
        <time>2024-08-18T14:47:53Z</time>
      </trkpt>
      <trkpt lat="44.86955" lon="6.58248">
        <ele>1568.7</ele>
        <time>2024-08-18T14:47:53Z</time>
      </trkpt>
      <trkpt lat="44.86952" lon="6.58249">
        <ele>1567.1</ele>
        <time>2024-08-18T14:47:53Z</time>
      </trkpt>
      <trkpt lat="44.86948" lon="6.58249">
        <ele>1567.2</ele>
        <time>2024-08-18T14:47:53Z</time>
      </trkpt>
      <trkpt lat="44.86944" lon="6.58248">
        <ele>1569</ele>
        <time>2024-08-18T14:47:53Z</time>
      </trkpt>
      <trkpt lat="44.86937" lon="6.58246">
        <ele>1569</ele>
        <time>2024-08-18T14:47:53Z</time>
      </trkpt>
      <trkpt lat="44.86931" lon="6.58244">
        <ele>1570.7</ele>
        <time>2024-08-18T14:47:53Z</time>
      </trkpt>
      <trkpt lat="44.86925" lon="6.58242">
        <ele>1570.6</ele>
        <time>2024-08-18T14:47:53Z</time>
      </trkpt>
      <trkpt lat="44.86919" lon="6.58241">
        <ele>1570.3</ele>
        <time>2024-08-18T14:47:53Z</time>
      </trkpt>
      <trkpt lat="44.86914" lon="6.58241">
        <ele>1570.1</ele>
        <time>2024-08-18T14:47:53Z</time>
      </trkpt>
      <trkpt lat="44.86906" lon="6.58242">
        <ele>1569.6</ele>
        <time>2024-08-18T14:47:53Z</time>
      </trkpt>
      <trkpt lat="44.869" lon="6.58243">
        <ele>1569.3</ele>
        <time>2024-08-18T14:47:53Z</time>
      </trkpt>
      <trkpt lat="44.86894" lon="6.58246">
        <ele>1567.1</ele>
        <time>2024-08-18T14:47:53Z</time>
      </trkpt>
      <trkpt lat="44.8689" lon="6.58247">
        <ele>1566.8</ele>
        <time>2024-08-18T14:47:53Z</time>
      </trkpt>
      <trkpt lat="44.86884" lon="6.58249">
        <ele>1564.3</ele>
        <time>2024-08-18T14:47:53Z</time>
      </trkpt>
      <trkpt lat="44.8688" lon="6.58248">
        <ele>1565.9</ele>
        <time>2024-08-18T14:47:53Z</time>
      </trkpt>
      <trkpt lat="44.86877" lon="6.58247">
        <ele>1565.9</ele>
        <time>2024-08-18T14:47:53Z</time>
      </trkpt>
      <trkpt lat="44.86874" lon="6.58245">
        <ele>1565.6</ele>
        <time>2024-08-18T14:47:53Z</time>
      </trkpt>
      <trkpt lat="44.8687" lon="6.58242">
        <ele>1567.2</ele>
        <time>2024-08-18T14:47:53Z</time>
      </trkpt>
      <trkpt lat="44.86867" lon="6.58238">
        <ele>1568.9</ele>
        <time>2024-08-18T14:47:53Z</time>
      </trkpt>
      <trkpt lat="44.86864" lon="6.58236">
        <ele>1568.9</ele>
        <time>2024-08-18T14:47:53Z</time>
      </trkpt>
      <trkpt lat="44.86861" lon="6.58233">
        <ele>1570.6</ele>
        <time>2024-08-18T14:47:53Z</time>
      </trkpt>
      <trkpt lat="44.86858" lon="6.58233">
        <ele>1570.3</ele>
        <time>2024-08-18T14:47:53Z</time>
      </trkpt>
      <trkpt lat="44.86855" lon="6.58233">
        <ele>1570.1</ele>
        <time>2024-08-18T14:47:53Z</time>
      </trkpt>
      <trkpt lat="44.86851" lon="6.58235">
        <ele>1570.1</ele>
        <time>2024-08-18T14:47:53Z</time>
      </trkpt>
      <trkpt lat="44.86848" lon="6.58237">
        <ele>1567.7</ele>
        <time>2024-08-18T14:47:53Z</time>
      </trkpt>
      <trkpt lat="44.86844" lon="6.5824">
        <ele>1565.4</ele>
        <time>2024-08-18T14:47:53Z</time>
      </trkpt>
      <trkpt lat="44.86841" lon="6.58242">
        <ele>1565</ele>
        <time>2024-08-18T14:47:53Z</time>
      </trkpt>
      <trkpt lat="44.86836" lon="6.58244">
        <ele>1564.5</ele>
        <time>2024-08-18T14:47:53Z</time>
      </trkpt>
      <trkpt lat="44.86831" lon="6.58245">
        <ele>1562</ele>
        <time>2024-08-18T14:47:53Z</time>
      </trkpt>
      <trkpt lat="44.86824" lon="6.58247">
        <ele>1561</ele>
        <time>2024-08-18T14:47:53Z</time>
      </trkpt>
      <trkpt lat="44.86818" lon="6.58247">
        <ele>1560.4</ele>
        <time>2024-08-18T14:47:53Z</time>
      </trkpt>
      <trkpt lat="44.86813" lon="6.58248">
        <ele>1559.7</ele>
        <time>2024-08-18T14:47:53Z</time>
      </trkpt>
      <trkpt lat="44.86806" lon="6.58248">
        <ele>1558.3</ele>
        <time>2024-08-18T14:47:53Z</time>
      </trkpt>
      <trkpt lat="44.86798" lon="6.58246">
        <ele>1556.7</ele>
        <time>2024-08-18T14:47:53Z</time>
      </trkpt>
      <trkpt lat="44.86792" lon="6.58244">
        <ele>1557.8</ele>
        <time>2024-08-18T14:47:53Z</time>
      </trkpt>
      <trkpt lat="44.86786" lon="6.5824">
        <ele>1555.9</ele>
        <time>2024-08-18T14:47:53Z</time>
      </trkpt>
      <trkpt lat="44.86781" lon="6.58238">
        <ele>1556.9</ele>
        <time>2024-08-18T14:47:53Z</time>
      </trkpt>
      <trkpt lat="44.86773" lon="6.58235">
        <ele>1556.9</ele>
        <time>2024-08-18T14:47:53Z</time>
      </trkpt>
      <trkpt lat="44.86766" lon="6.58232">
        <ele>1555.8</ele>
        <time>2024-08-18T14:47:53Z</time>
      </trkpt>
      <trkpt lat="44.86758" lon="6.58229">
        <ele>1555.6</ele>
        <time>2024-08-18T14:47:53Z</time>
      </trkpt>
      <trkpt lat="44.8675" lon="6.58226">
        <ele>1555.2</ele>
        <time>2024-08-18T14:47:53Z</time>
      </trkpt>
      <trkpt lat="44.86742" lon="6.58222">
        <ele>1554.8</ele>
        <time>2024-08-18T14:47:53Z</time>
      </trkpt>
      <trkpt lat="44.86735" lon="6.58219">
        <ele>1553.6</ele>
        <time>2024-08-18T14:47:53Z</time>
      </trkpt>
      <trkpt lat="44.86727" lon="6.58217">
        <ele>1553.1</ele>
        <time>2024-08-18T14:47:53Z</time>
      </trkpt>
      <trkpt lat="44.86719" lon="6.58213">
        <ele>1552.5</ele>
        <time>2024-08-18T14:47:53Z</time>
      </trkpt>
      <trkpt lat="44.86711" lon="6.58209">
        <ele>1552</ele>
        <time>2024-08-18T14:47:53Z</time>
      </trkpt>
      <trkpt lat="44.86704" lon="6.58205">
        <ele>1551.4</ele>
        <time>2024-08-18T14:47:53Z</time>
      </trkpt>
      <trkpt lat="44.86697" lon="6.58201">
        <ele>1552.1</ele>
        <time>2024-08-18T14:47:53Z</time>
      </trkpt>
      <trkpt lat="44.8669" lon="6.58197">
        <ele>1549.7</ele>
        <time>2024-08-18T14:47:53Z</time>
      </trkpt>
      <trkpt lat="44.86682" lon="6.58192">
        <ele>1551.1</ele>
        <time>2024-08-18T14:47:53Z</time>
      </trkpt>
      <trkpt lat="44.86679" lon="6.5819">
        <ele>1550</ele>
        <time>2024-08-18T14:47:53Z</time>
      </trkpt>
      <trkpt lat="44.86675" lon="6.58188">
        <ele>1551.8</ele>
        <time>2024-08-18T14:47:53Z</time>
      </trkpt>
      <trkpt lat="44.86666" lon="6.58186">
        <ele>1548.4</ele>
        <time>2024-08-18T14:47:53Z</time>
      </trkpt>
      <trkpt lat="44.8666" lon="6.58183">
        <ele>1549</ele>
        <time>2024-08-18T14:47:53Z</time>
      </trkpt>
      <trkpt lat="44.86652" lon="6.58179">
        <ele>1548.4</ele>
        <time>2024-08-18T14:47:53Z</time>
      </trkpt>
      <trkpt lat="44.86646" lon="6.58177">
        <ele>1547.1</ele>
        <time>2024-08-18T14:47:53Z</time>
      </trkpt>
      <trkpt lat="44.86639" lon="6.58173">
        <ele>1546.2</ele>
        <time>2024-08-18T14:47:53Z</time>
      </trkpt>
      <trkpt lat="44.86632" lon="6.5817">
        <ele>1546.6</ele>
        <time>2024-08-18T14:47:53Z</time>
      </trkpt>
      <trkpt lat="44.86622" lon="6.58166">
        <ele>1544.1</ele>
        <time>2024-08-18T14:47:53Z</time>
      </trkpt>
      <trkpt lat="44.86614" lon="6.5816">
        <ele>1542.9</ele>
        <time>2024-08-18T14:47:53Z</time>
      </trkpt>
      <trkpt lat="44.86594" lon="6.58149">
        <ele>1542.2</ele>
        <time>2024-08-18T14:47:53Z</time>
      </trkpt>
      <trkpt lat="44.8658" lon="6.5814">
        <ele>1539.7</ele>
        <time>2024-08-18T14:47:53Z</time>
      </trkpt>
      <trkpt lat="44.86569" lon="6.58132">
        <ele>1540.2</ele>
        <time>2024-08-18T14:47:53Z</time>
      </trkpt>
      <trkpt lat="44.86556" lon="6.58123">
        <ele>1539.2</ele>
        <time>2024-08-18T14:47:53Z</time>
      </trkpt>
      <trkpt lat="44.86545" lon="6.58114">
        <ele>1538.3</ele>
        <time>2024-08-18T14:47:53Z</time>
      </trkpt>
      <trkpt lat="44.86533" lon="6.58105">
        <ele>1537.3</ele>
        <time>2024-08-18T14:47:53Z</time>
      </trkpt>
      <trkpt lat="44.86521" lon="6.58096">
        <ele>1537.8</ele>
        <time>2024-08-18T14:47:53Z</time>
      </trkpt>
      <trkpt lat="44.86511" lon="6.58089">
        <ele>1536.7</ele>
        <time>2024-08-18T14:47:53Z</time>
      </trkpt>
      <trkpt lat="44.865" lon="6.58083">
        <ele>1535.4</ele>
        <time>2024-08-18T14:47:53Z</time>
      </trkpt>
      <trkpt lat="44.86483" lon="6.58073">
        <ele>1532.7</ele>
        <time>2024-08-18T14:47:53Z</time>
      </trkpt>
      <trkpt lat="44.86466" lon="6.58064">
        <ele>1529.7</ele>
        <time>2024-08-18T14:47:53Z</time>
      </trkpt>
      <trkpt lat="44.86456" lon="6.58058">
        <ele>1529.8</ele>
        <time>2024-08-18T14:47:53Z</time>
      </trkpt>
      <trkpt lat="44.86444" lon="6.58051">
        <ele>1528.2</ele>
        <time>2024-08-18T14:47:53Z</time>
      </trkpt>
      <trkpt lat="44.86432" lon="6.58042">
        <ele>1526.5</ele>
        <time>2024-08-18T14:47:53Z</time>
      </trkpt>
      <trkpt lat="44.86417" lon="6.58029">
        <ele>1524.3</ele>
        <time>2024-08-18T14:47:53Z</time>
      </trkpt>
      <trkpt lat="44.86409" lon="6.58019">
        <ele>1525.4</ele>
        <time>2024-08-18T14:47:53Z</time>
      </trkpt>
      <trkpt lat="44.86403" lon="6.58011">
        <ele>1524.7</ele>
        <time>2024-08-18T14:47:53Z</time>
      </trkpt>
      <trkpt lat="44.864" lon="6.58005">
        <ele>1524.2</ele>
        <time>2024-08-18T14:47:53Z</time>
      </trkpt>
      <trkpt lat="44.86397" lon="6.58">
        <ele>1525.4</ele>
        <time>2024-08-18T14:47:53Z</time>
      </trkpt>
      <trkpt lat="44.86395" lon="6.57999">
        <ele>1524.8</ele>
        <time>2024-08-18T14:47:53Z</time>
      </trkpt>
      <trkpt lat="44.86393" lon="6.57999">
        <ele>1524.8</ele>
        <time>2024-08-18T14:47:53Z</time>
      </trkpt>
      <trkpt lat="44.86391" lon="6.57999">
        <ele>1523</ele>
        <time>2024-08-18T14:47:53Z</time>
      </trkpt>
      <trkpt lat="44.86389" lon="6.58">
        <ele>1521.8</ele>
        <time>2024-08-18T14:47:53Z</time>
      </trkpt>
      <trkpt lat="44.86389" lon="6.58003">
        <ele>1521.8</ele>
        <time>2024-08-18T14:47:53Z</time>
      </trkpt>
      <trkpt lat="44.86389" lon="6.58005">
        <ele>1520.6</ele>
        <time>2024-08-18T14:47:53Z</time>
      </trkpt>
      <trkpt lat="44.8639" lon="6.58009">
        <ele>1519.4</ele>
        <time>2024-08-18T14:47:53Z</time>
      </trkpt>
      <trkpt lat="44.86392" lon="6.58013">
        <ele>1519.9</ele>
        <time>2024-08-18T14:47:53Z</time>
      </trkpt>
      <trkpt lat="44.86398" lon="6.58021">
        <ele>1519</ele>
        <time>2024-08-18T14:47:53Z</time>
      </trkpt>
      <trkpt lat="44.86405" lon="6.5803">
        <ele>1519.7</ele>
        <time>2024-08-18T14:47:53Z</time>
      </trkpt>
      <trkpt lat="44.86413" lon="6.58041">
        <ele>1518.5</ele>
        <time>2024-08-18T14:47:53Z</time>
      </trkpt>
      <trkpt lat="44.86419" lon="6.5805">
        <ele>1518.8</ele>
        <time>2024-08-18T14:47:53Z</time>
      </trkpt>
      <trkpt lat="44.86423" lon="6.58058">
        <ele>1517.3</ele>
        <time>2024-08-18T14:47:53Z</time>
      </trkpt>
      <trkpt lat="44.86429" lon="6.58065">
        <ele>1515.8</ele>
        <time>2024-08-18T14:47:53Z</time>
      </trkpt>
      <trkpt lat="44.86439" lon="6.58076">
        <ele>1517.2</ele>
        <time>2024-08-18T14:47:53Z</time>
      </trkpt>
      <trkpt lat="44.86448" lon="6.58085">
        <ele>1517.1</ele>
        <time>2024-08-18T14:47:53Z</time>
      </trkpt>
      <trkpt lat="44.86456" lon="6.58094">
        <ele>1515.5</ele>
        <time>2024-08-18T14:47:53Z</time>
      </trkpt>
      <trkpt lat="44.86464" lon="6.58103">
        <ele>1513.9</ele>
        <time>2024-08-18T14:47:53Z</time>
      </trkpt>
      <trkpt lat="44.86473" lon="6.58113">
        <ele>1513.6</ele>
        <time>2024-08-18T14:47:53Z</time>
      </trkpt>
      <trkpt lat="44.86488" lon="6.58129">
        <ele>1512.7</ele>
        <time>2024-08-18T14:47:53Z</time>
      </trkpt>
      <trkpt lat="44.86502" lon="6.58145">
        <ele>1511.9</ele>
        <time>2024-08-18T14:47:53Z</time>
      </trkpt>
      <trkpt lat="44.86513" lon="6.5816">
        <ele>1509.1</ele>
        <time>2024-08-18T14:47:53Z</time>
      </trkpt>
      <trkpt lat="44.86522" lon="6.58172">
        <ele>1506.7</ele>
        <time>2024-08-18T14:47:53Z</time>
      </trkpt>
      <trkpt lat="44.86528" lon="6.5818">
        <ele>1504.7</ele>
        <time>2024-08-18T14:47:53Z</time>
      </trkpt>
      <trkpt lat="44.86536" lon="6.58189">
        <ele>1504.1</ele>
        <time>2024-08-18T14:47:53Z</time>
      </trkpt>
      <trkpt lat="44.86544" lon="6.582">
        <ele>1503.5</ele>
        <time>2024-08-18T14:47:53Z</time>
      </trkpt>
      <trkpt lat="44.86549" lon="6.58207">
        <ele>1501.3</ele>
        <time>2024-08-18T14:47:53Z</time>
      </trkpt>
      <trkpt lat="44.86553" lon="6.58213">
        <ele>1500.9</ele>
        <time>2024-08-18T14:47:53Z</time>
      </trkpt>
      <trkpt lat="44.86559" lon="6.58219">
        <ele>1500.1</ele>
        <time>2024-08-18T14:47:53Z</time>
      </trkpt>
      <trkpt lat="44.86567" lon="6.58225">
        <ele>1499.7</ele>
        <time>2024-08-18T14:47:53Z</time>
      </trkpt>
      <trkpt lat="44.86577" lon="6.58232">
        <ele>1500.5</ele>
        <time>2024-08-18T14:47:53Z</time>
      </trkpt>
      <trkpt lat="44.86586" lon="6.5824">
        <ele>1499.8</ele>
        <time>2024-08-18T14:47:53Z</time>
      </trkpt>
      <trkpt lat="44.86595" lon="6.58246">
        <ele>1501</ele>
        <time>2024-08-18T14:47:53Z</time>
      </trkpt>
      <trkpt lat="44.86604" lon="6.58253">
        <ele>1500.4</ele>
        <time>2024-08-18T14:47:53Z</time>
      </trkpt>
      <trkpt lat="44.86612" lon="6.58264">
        <ele>1499.9</ele>
        <time>2024-08-18T14:47:53Z</time>
      </trkpt>
      <trkpt lat="44.86623" lon="6.58275">
        <ele>1497.9</ele>
        <time>2024-08-18T14:47:53Z</time>
      </trkpt>
      <trkpt lat="44.86629" lon="6.58285">
        <ele>1497.6</ele>
        <time>2024-08-18T14:47:53Z</time>
      </trkpt>
      <trkpt lat="44.86633" lon="6.58292">
        <ele>1495.7</ele>
        <time>2024-08-18T14:47:53Z</time>
      </trkpt>
      <trkpt lat="44.86635" lon="6.58298">
        <ele>1493.9</ele>
        <time>2024-08-18T14:47:53Z</time>
      </trkpt>
      <trkpt lat="44.86636" lon="6.58299">
        <ele>1493.9</ele>
        <time>2024-08-18T14:47:53Z</time>
      </trkpt>
      <trkpt lat="44.86639" lon="6.58307">
        <ele>1492.1</ele>
        <time>2024-08-18T14:47:53Z</time>
      </trkpt>
      <trkpt lat="44.86642" lon="6.58315">
        <ele>1490.2</ele>
        <time>2024-08-18T14:47:53Z</time>
      </trkpt>
      <trkpt lat="44.86647" lon="6.58326">
        <ele>1486.7</ele>
        <time>2024-08-18T14:47:53Z</time>
      </trkpt>
      <trkpt lat="44.86652" lon="6.58334">
        <ele>1486.6</ele>
        <time>2024-08-18T14:47:53Z</time>
      </trkpt>
      <trkpt lat="44.86658" lon="6.58342">
        <ele>1486.1</ele>
        <time>2024-08-18T14:47:53Z</time>
      </trkpt>
      <trkpt lat="44.86664" lon="6.58349">
        <ele>1484.2</ele>
        <time>2024-08-18T14:47:53Z</time>
      </trkpt>
      <trkpt lat="44.86671" lon="6.58355">
        <ele>1485.1</ele>
        <time>2024-08-18T14:47:53Z</time>
      </trkpt>
      <trkpt lat="44.86681" lon="6.58364">
        <ele>1484.2</ele>
        <time>2024-08-18T14:47:53Z</time>
      </trkpt>
      <trkpt lat="44.86689" lon="6.58372">
        <ele>1482.9</ele>
        <time>2024-08-18T14:47:53Z</time>
      </trkpt>
      <trkpt lat="44.86698" lon="6.58379">
        <ele>1481.5</ele>
        <time>2024-08-18T14:47:53Z</time>
      </trkpt>
      <trkpt lat="44.86705" lon="6.58385">
        <ele>1481.7</ele>
        <time>2024-08-18T14:47:53Z</time>
      </trkpt>
      <trkpt lat="44.86713" lon="6.58391">
        <ele>1479.2</ele>
        <time>2024-08-18T14:47:53Z</time>
      </trkpt>
      <trkpt lat="44.86721" lon="6.58397">
        <ele>1479.4</ele>
        <time>2024-08-18T14:47:53Z</time>
      </trkpt>
      <trkpt lat="44.86733" lon="6.58404">
        <ele>1479</ele>
        <time>2024-08-18T14:47:53Z</time>
      </trkpt>
      <trkpt lat="44.86745" lon="6.58413">
        <ele>1478.8</ele>
        <time>2024-08-18T14:47:53Z</time>
      </trkpt>
      <trkpt lat="44.86758" lon="6.58423">
        <ele>1478.6</ele>
        <time>2024-08-18T14:47:53Z</time>
      </trkpt>
      <trkpt lat="44.86771" lon="6.58434">
        <ele>1477.2</ele>
        <time>2024-08-18T14:47:53Z</time>
      </trkpt>
      <trkpt lat="44.86785" lon="6.58445">
        <ele>1477</ele>
        <time>2024-08-18T14:47:53Z</time>
      </trkpt>
      <trkpt lat="44.86795" lon="6.58454">
        <ele>1476.8</ele>
        <time>2024-08-18T14:47:53Z</time>
      </trkpt>
      <trkpt lat="44.86804" lon="6.58464">
        <ele>1474.4</ele>
        <time>2024-08-18T14:47:53Z</time>
      </trkpt>
      <trkpt lat="44.86813" lon="6.58472">
        <ele>1473.2</ele>
        <time>2024-08-18T14:47:53Z</time>
      </trkpt>
      <trkpt lat="44.86822" lon="6.58479">
        <ele>1473.2</ele>
        <time>2024-08-18T14:47:53Z</time>
      </trkpt>
      <trkpt lat="44.8683" lon="6.58485">
        <ele>1471.6</ele>
        <time>2024-08-18T14:47:53Z</time>
      </trkpt>
      <trkpt lat="44.86836" lon="6.58488">
        <ele>1472.1</ele>
        <time>2024-08-18T14:47:53Z</time>
      </trkpt>
      <trkpt lat="44.86841" lon="6.5849">
        <ele>1471.2</ele>
        <time>2024-08-18T14:47:53Z</time>
      </trkpt>
      <trkpt lat="44.86856" lon="6.58498">
        <ele>1469.9</ele>
        <time>2024-08-18T14:47:53Z</time>
      </trkpt>
      <trkpt lat="44.86866" lon="6.58501">
        <ele>1470.4</ele>
        <time>2024-08-18T14:47:53Z</time>
      </trkpt>
      <trkpt lat="44.86876" lon="6.58503">
        <ele>1469.3</ele>
        <time>2024-08-18T14:47:53Z</time>
      </trkpt>
      <trkpt lat="44.86888" lon="6.58505">
        <ele>1469.1</ele>
        <time>2024-08-18T14:47:53Z</time>
      </trkpt>
      <trkpt lat="44.86899" lon="6.58509">
        <ele>1466.7</ele>
        <time>2024-08-18T14:47:53Z</time>
      </trkpt>
      <trkpt lat="44.86903" lon="6.5851">
        <ele>1466.2</ele>
        <time>2024-08-18T14:47:53Z</time>
      </trkpt>
      <trkpt lat="44.86899" lon="6.58509">
        <ele>1466.7</ele>
        <time>2024-08-18T14:47:53Z</time>
      </trkpt>
      <trkpt lat="44.86888" lon="6.58505">
        <ele>1469.1</ele>
        <time>2024-08-18T14:47:53Z</time>
      </trkpt>
      <trkpt lat="44.86876" lon="6.58503">
        <ele>1469.3</ele>
        <time>2024-08-18T14:47:53Z</time>
      </trkpt>
      <trkpt lat="44.86866" lon="6.58501">
        <ele>1470.4</ele>
        <time>2024-08-18T14:47:53Z</time>
      </trkpt>
      <trkpt lat="44.86856" lon="6.58498">
        <ele>1469.9</ele>
        <time>2024-08-18T14:47:53Z</time>
      </trkpt>
      <trkpt lat="44.86841" lon="6.5849">
        <ele>1471.2</ele>
        <time>2024-08-18T14:47:53Z</time>
      </trkpt>
      <trkpt lat="44.86836" lon="6.58488">
        <ele>1472.1</ele>
        <time>2024-08-18T14:47:53Z</time>
      </trkpt>
      <trkpt lat="44.8683" lon="6.58485">
        <ele>1471.6</ele>
        <time>2024-08-18T14:47:53Z</time>
      </trkpt>
      <trkpt lat="44.86822" lon="6.58479">
        <ele>1473.2</ele>
        <time>2024-08-18T14:47:53Z</time>
      </trkpt>
      <trkpt lat="44.86813" lon="6.58472">
        <ele>1473.2</ele>
        <time>2024-08-18T14:47:53Z</time>
      </trkpt>
      <trkpt lat="44.86804" lon="6.58464">
        <ele>1474.4</ele>
        <time>2024-08-18T14:47:53Z</time>
      </trkpt>
      <trkpt lat="44.86795" lon="6.58454">
        <ele>1476.8</ele>
        <time>2024-08-18T14:47:53Z</time>
      </trkpt>
      <trkpt lat="44.86785" lon="6.58445">
        <ele>1477</ele>
        <time>2024-08-18T14:47:53Z</time>
      </trkpt>
      <trkpt lat="44.86771" lon="6.58434">
        <ele>1477.2</ele>
        <time>2024-08-18T14:47:53Z</time>
      </trkpt>
      <trkpt lat="44.86758" lon="6.58423">
        <ele>1478.6</ele>
        <time>2024-08-18T14:47:53Z</time>
      </trkpt>
      <trkpt lat="44.86745" lon="6.58413">
        <ele>1478.8</ele>
        <time>2024-08-18T14:47:53Z</time>
      </trkpt>
      <trkpt lat="44.86733" lon="6.58404">
        <ele>1479</ele>
        <time>2024-08-18T14:47:53Z</time>
      </trkpt>
      <trkpt lat="44.86721" lon="6.58397">
        <ele>1479.4</ele>
        <time>2024-08-18T14:47:53Z</time>
      </trkpt>
      <trkpt lat="44.86713" lon="6.58391">
        <ele>1479.2</ele>
        <time>2024-08-18T14:47:53Z</time>
      </trkpt>
      <trkpt lat="44.86705" lon="6.58385">
        <ele>1481.7</ele>
        <time>2024-08-18T14:47:53Z</time>
      </trkpt>
      <trkpt lat="44.86698" lon="6.58379">
        <ele>1481.5</ele>
        <time>2024-08-18T14:47:53Z</time>
      </trkpt>
      <trkpt lat="44.86689" lon="6.58372">
        <ele>1482.9</ele>
        <time>2024-08-18T14:47:53Z</time>
      </trkpt>
      <trkpt lat="44.86681" lon="6.58364">
        <ele>1484.2</ele>
        <time>2024-08-18T14:47:53Z</time>
      </trkpt>
      <trkpt lat="44.86671" lon="6.58355">
        <ele>1485.1</ele>
        <time>2024-08-18T14:47:53Z</time>
      </trkpt>
      <trkpt lat="44.86664" lon="6.58349">
        <ele>1484.2</ele>
        <time>2024-08-18T14:47:53Z</time>
      </trkpt>
      <trkpt lat="44.86658" lon="6.58342">
        <ele>1486.1</ele>
        <time>2024-08-18T14:47:53Z</time>
      </trkpt>
      <trkpt lat="44.86652" lon="6.58334">
        <ele>1486.6</ele>
        <time>2024-08-18T14:47:53Z</time>
      </trkpt>
      <trkpt lat="44.86647" lon="6.58326">
        <ele>1486.7</ele>
        <time>2024-08-18T14:47:53Z</time>
      </trkpt>
      <trkpt lat="44.86642" lon="6.58315">
        <ele>1490.2</ele>
        <time>2024-08-18T14:47:53Z</time>
      </trkpt>
      <trkpt lat="44.86639" lon="6.58307">
        <ele>1492.1</ele>
        <time>2024-08-18T14:47:53Z</time>
      </trkpt>
      <trkpt lat="44.86636" lon="6.58299">
        <ele>1493.9</ele>
        <time>2024-08-18T14:47:53Z</time>
      </trkpt>
      <trkpt lat="44.86635" lon="6.58298">
        <ele>1493.9</ele>
        <time>2024-08-18T14:47:53Z</time>
      </trkpt>
      <trkpt lat="44.86633" lon="6.58297">
        <ele>1493.9</ele>
        <time>2024-08-18T14:47:53Z</time>
      </trkpt>
      <trkpt lat="44.8663" lon="6.58297">
        <ele>1492.4</ele>
        <time>2024-08-18T14:47:53Z</time>
      </trkpt>
      <trkpt lat="44.86625" lon="6.58296">
        <ele>1490.9</ele>
        <time>2024-08-18T14:47:53Z</time>
      </trkpt>
      <trkpt lat="44.86623" lon="6.58294">
        <ele>1491</ele>
        <time>2024-08-18T14:47:53Z</time>
      </trkpt>
      <trkpt lat="44.86617" lon="6.5829">
        <ele>1491.1</ele>
        <time>2024-08-18T14:47:53Z</time>
      </trkpt>
      <trkpt lat="44.86612" lon="6.58287">
        <ele>1491.2</ele>
        <time>2024-08-18T14:47:53Z</time>
      </trkpt>
      <trkpt lat="44.86608" lon="6.58286">
        <ele>1489.6</ele>
        <time>2024-08-18T14:47:53Z</time>
      </trkpt>
      <trkpt lat="44.86602" lon="6.58285">
        <ele>1487.9</ele>
        <time>2024-08-18T14:47:53Z</time>
      </trkpt>
      <trkpt lat="44.86596" lon="6.58284">
        <ele>1484.6</ele>
        <time>2024-08-18T14:47:53Z</time>
      </trkpt>
      <trkpt lat="44.8659" lon="6.58283">
        <ele>1483</ele>
        <time>2024-08-18T14:47:53Z</time>
      </trkpt>
      <trkpt lat="44.86584" lon="6.58282">
        <ele>1481.5</ele>
        <time>2024-08-18T14:47:53Z</time>
      </trkpt>
      <trkpt lat="44.86578" lon="6.58281">
        <ele>1479.9</ele>
        <time>2024-08-18T14:47:53Z</time>
      </trkpt>
      <trkpt lat="44.86572" lon="6.58279">
        <ele>1478.4</ele>
        <time>2024-08-18T14:47:53Z</time>
      </trkpt>
      <trkpt lat="44.86567" lon="6.58278">
        <ele>1477.1</ele>
        <time>2024-08-18T14:47:53Z</time>
      </trkpt>
      <trkpt lat="44.86561" lon="6.58276">
        <ele>1475.6</ele>
        <time>2024-08-18T14:47:53Z</time>
      </trkpt>
      <trkpt lat="44.86555" lon="6.58273">
        <ele>1475.9</ele>
        <time>2024-08-18T14:47:53Z</time>
      </trkpt>
      <trkpt lat="44.86549" lon="6.5827">
        <ele>1473.1</ele>
        <time>2024-08-18T14:47:53Z</time>
      </trkpt>
      <trkpt lat="44.86544" lon="6.58267">
        <ele>1473.5</ele>
        <time>2024-08-18T14:47:53Z</time>
      </trkpt>
      <trkpt lat="44.86539" lon="6.58262">
        <ele>1474</ele>
        <time>2024-08-18T14:47:53Z</time>
      </trkpt>
      <trkpt lat="44.86536" lon="6.5826">
        <ele>1474.5</ele>
        <time>2024-08-18T14:47:53Z</time>
      </trkpt>
      <trkpt lat="44.86531" lon="6.58256">
        <ele>1475</ele>
        <time>2024-08-18T14:47:53Z</time>
      </trkpt>
      <trkpt lat="44.86528" lon="6.58255">
        <ele>1473.7</ele>
        <time>2024-08-18T14:47:53Z</time>
      </trkpt>
      <trkpt lat="44.86523" lon="6.58254">
        <ele>1472.5</ele>
        <time>2024-08-18T14:47:53Z</time>
      </trkpt>
      <trkpt lat="44.8652" lon="6.58254">
        <ele>1471.3</ele>
        <time>2024-08-18T14:47:53Z</time>
      </trkpt>
      <trkpt lat="44.86516" lon="6.58255">
        <ele>1471.3</ele>
        <time>2024-08-18T14:47:53Z</time>
      </trkpt>
      <trkpt lat="44.86512" lon="6.58255">
        <ele>1470.1</ele>
        <time>2024-08-18T14:47:53Z</time>
      </trkpt>
      <trkpt lat="44.86505" lon="6.58255">
        <ele>1468</ele>
        <time>2024-08-18T14:47:53Z</time>
      </trkpt>
      <trkpt lat="44.86501" lon="6.58255">
        <ele>1466.9</ele>
        <time>2024-08-18T14:47:53Z</time>
      </trkpt>
      <trkpt lat="44.86496" lon="6.58256">
        <ele>1466</ele>
        <time>2024-08-18T14:47:53Z</time>
      </trkpt>
      <trkpt lat="44.86493" lon="6.58258">
        <ele>1463.4</ele>
        <time>2024-08-18T14:47:53Z</time>
      </trkpt>
      <trkpt lat="44.86488" lon="6.58261">
        <ele>1462.5</ele>
        <time>2024-08-18T14:47:53Z</time>
      </trkpt>
      <trkpt lat="44.86485" lon="6.58262">
        <ele>1460.1</ele>
        <time>2024-08-18T14:47:53Z</time>
      </trkpt>
      <trkpt lat="44.86481" lon="6.58265">
        <ele>1459.2</ele>
        <time>2024-08-18T14:47:53Z</time>
      </trkpt>
      <trkpt lat="44.86476" lon="6.58268">
        <ele>1457</ele>
        <time>2024-08-18T14:47:53Z</time>
      </trkpt>
      <trkpt lat="44.86472" lon="6.5827">
        <ele>1454.8</ele>
        <time>2024-08-18T14:47:53Z</time>
      </trkpt>
      <trkpt lat="44.86469" lon="6.5827">
        <ele>1454.8</ele>
        <time>2024-08-18T14:47:53Z</time>
      </trkpt>
      <trkpt lat="44.86464" lon="6.58271">
        <ele>1453.4</ele>
        <time>2024-08-18T14:47:53Z</time>
      </trkpt>
      <trkpt lat="44.8646" lon="6.58271">
        <ele>1452.7</ele>
        <time>2024-08-18T14:47:53Z</time>
      </trkpt>
      <trkpt lat="44.86456" lon="6.58271">
        <ele>1452.7</ele>
        <time>2024-08-18T14:47:53Z</time>
      </trkpt>
      <trkpt lat="44.86449" lon="6.58271">
        <ele>1451.4</ele>
        <time>2024-08-18T14:47:53Z</time>
      </trkpt>
      <trkpt lat="44.86444" lon="6.58269">
        <ele>1452.1</ele>
        <time>2024-08-18T14:47:53Z</time>
      </trkpt>
      <trkpt lat="44.86437" lon="6.58268">
        <ele>1450.7</ele>
        <time>2024-08-18T14:47:53Z</time>
      </trkpt>
      <trkpt lat="44.86431" lon="6.58267">
        <ele>1450</ele>
        <time>2024-08-18T14:47:53Z</time>
      </trkpt>
      <trkpt lat="44.86424" lon="6.58265">
        <ele>1449.8</ele>
        <time>2024-08-18T14:47:53Z</time>
      </trkpt>
      <trkpt lat="44.86417" lon="6.58264">
        <ele>1448.2</ele>
        <time>2024-08-18T14:47:53Z</time>
      </trkpt>
      <trkpt lat="44.8641" lon="6.58263">
        <ele>1447.3</ele>
        <time>2024-08-18T14:47:53Z</time>
      </trkpt>
      <trkpt lat="44.86403" lon="6.58263">
        <ele>1445.4</ele>
        <time>2024-08-18T14:47:53Z</time>
      </trkpt>
      <trkpt lat="44.86391" lon="6.58262">
        <ele>1442.1</ele>
        <time>2024-08-18T14:47:53Z</time>
      </trkpt>
      <trkpt lat="44.86386" lon="6.58261">
        <ele>1442.3</ele>
        <time>2024-08-18T14:47:53Z</time>
      </trkpt>
      <trkpt lat="44.86383" lon="6.5826">
        <ele>1442.3</ele>
        <time>2024-08-18T14:47:53Z</time>
      </trkpt>
      <trkpt lat="44.8638" lon="6.58259">
        <ele>1441.1</ele>
        <time>2024-08-18T14:47:53Z</time>
      </trkpt>
      <trkpt lat="44.86376" lon="6.58259">
        <ele>1439.9</ele>
        <time>2024-08-18T14:47:53Z</time>
      </trkpt>
      <trkpt lat="44.86373" lon="6.58259">
        <ele>1438.6</ele>
        <time>2024-08-18T14:47:53Z</time>
      </trkpt>
      <trkpt lat="44.86368" lon="6.58258">
        <ele>1437.3</ele>
        <time>2024-08-18T14:47:53Z</time>
      </trkpt>
      <trkpt lat="44.86364" lon="6.58257">
        <ele>1437.6</ele>
        <time>2024-08-18T14:47:53Z</time>
      </trkpt>
      <trkpt lat="44.86361" lon="6.58256">
        <ele>1436.4</ele>
        <time>2024-08-18T14:47:53Z</time>
      </trkpt>
      <trkpt lat="44.86358" lon="6.58254">
        <ele>1436.4</ele>
        <time>2024-08-18T14:47:53Z</time>
      </trkpt>
      <trkpt lat="44.86354" lon="6.58252">
        <ele>1436.5</ele>
        <time>2024-08-18T14:47:53Z</time>
      </trkpt>
      <trkpt lat="44.86349" lon="6.58251">
        <ele>1435.3</ele>
        <time>2024-08-18T14:47:53Z</time>
      </trkpt>
      <trkpt lat="44.86345" lon="6.58249">
        <ele>1434</ele>
        <time>2024-08-18T14:47:53Z</time>
      </trkpt>
      <trkpt lat="44.86342" lon="6.58248">
        <ele>1433.9</ele>
        <time>2024-08-18T14:47:53Z</time>
      </trkpt>
      <trkpt lat="44.86339" lon="6.58247">
        <ele>1432.4</ele>
        <time>2024-08-18T14:47:53Z</time>
      </trkpt>
      <trkpt lat="44.86336" lon="6.58247">
        <ele>1432.4</ele>
        <time>2024-08-18T14:47:53Z</time>
      </trkpt>
      <trkpt lat="44.86334" lon="6.58246">
        <ele>1430.9</ele>
        <time>2024-08-18T14:47:53Z</time>
      </trkpt>
      <trkpt lat="44.8633" lon="6.58245">
        <ele>1429.3</ele>
        <time>2024-08-18T14:47:53Z</time>
      </trkpt>
      <trkpt lat="44.86328" lon="6.58243">
        <ele>1430.4</ele>
        <time>2024-08-18T14:47:53Z</time>
      </trkpt>
      <trkpt lat="44.86326" lon="6.58241">
        <ele>1428.7</ele>
        <time>2024-08-18T14:47:53Z</time>
      </trkpt>
      <trkpt lat="44.86323" lon="6.58238">
        <ele>1429.8</ele>
        <time>2024-08-18T14:47:53Z</time>
      </trkpt>
      <trkpt lat="44.86321" lon="6.58235">
        <ele>1429</ele>
        <time>2024-08-18T14:47:53Z</time>
      </trkpt>
      <trkpt lat="44.86317" lon="6.58233">
        <ele>1427</ele>
        <time>2024-08-18T14:47:53Z</time>
      </trkpt>
      <trkpt lat="44.86314" lon="6.58231">
        <ele>1426</ele>
        <time>2024-08-18T14:47:53Z</time>
      </trkpt>
      <trkpt lat="44.86312" lon="6.58228">
        <ele>1426</ele>
        <time>2024-08-18T14:47:53Z</time>
      </trkpt>
      <trkpt lat="44.86308" lon="6.58225">
        <ele>1424.8</ele>
        <time>2024-08-18T14:47:53Z</time>
      </trkpt>
      <trkpt lat="44.86304" lon="6.58222">
        <ele>1423.6</ele>
        <time>2024-08-18T14:47:53Z</time>
      </trkpt>
      <trkpt lat="44.86302" lon="6.58218">
        <ele>1424.5</ele>
        <time>2024-08-18T14:47:53Z</time>
      </trkpt>
      <trkpt lat="44.86299" lon="6.58215">
        <ele>1422.3</ele>
        <time>2024-08-18T14:47:53Z</time>
      </trkpt>
      <trkpt lat="44.86297" lon="6.58214">
        <ele>1421</ele>
        <time>2024-08-18T14:47:53Z</time>
      </trkpt>
      <trkpt lat="44.86294" lon="6.58211">
        <ele>1421</ele>
        <time>2024-08-18T14:47:53Z</time>
      </trkpt>
      <trkpt lat="44.86293" lon="6.5821">
        <ele>1421</ele>
        <time>2024-08-18T14:47:53Z</time>
      </trkpt>
      <trkpt lat="44.86289" lon="6.58206">
        <ele>1419.7</ele>
        <time>2024-08-18T14:47:53Z</time>
      </trkpt>
      <trkpt lat="44.86287" lon="6.58204">
        <ele>1418.4</ele>
        <time>2024-08-18T14:47:53Z</time>
      </trkpt>
      <trkpt lat="44.86284" lon="6.582">
        <ele>1417</ele>
        <time>2024-08-18T14:47:53Z</time>
      </trkpt>
      <trkpt lat="44.86282" lon="6.58198">
        <ele>1417</ele>
        <time>2024-08-18T14:47:53Z</time>
      </trkpt>
      <trkpt lat="44.86279" lon="6.58193">
        <ele>1415.7</ele>
        <time>2024-08-18T14:47:53Z</time>
      </trkpt>
      <trkpt lat="44.86276" lon="6.5819">
        <ele>1416.6</ele>
        <time>2024-08-18T14:47:53Z</time>
      </trkpt>
      <trkpt lat="44.86274" lon="6.58187">
        <ele>1415.2</ele>
        <time>2024-08-18T14:47:53Z</time>
      </trkpt>
      <trkpt lat="44.8627" lon="6.58183">
        <ele>1413.9</ele>
        <time>2024-08-18T14:47:53Z</time>
      </trkpt>
      <trkpt lat="44.86268" lon="6.5818">
        <ele>1413.9</ele>
        <time>2024-08-18T14:47:53Z</time>
      </trkpt>
      <trkpt lat="44.86266" lon="6.58176">
        <ele>1412.6</ele>
        <time>2024-08-18T14:47:53Z</time>
      </trkpt>
      <trkpt lat="44.86259" lon="6.58168">
        <ele>1412</ele>
        <time>2024-08-18T14:47:53Z</time>
      </trkpt>
      <trkpt lat="44.86254" lon="6.58162">
        <ele>1409.1</ele>
        <time>2024-08-18T14:47:53Z</time>
      </trkpt>
      <trkpt lat="44.86248" lon="6.58154">
        <ele>1408.3</ele>
        <time>2024-08-18T14:47:53Z</time>
      </trkpt>
      <trkpt lat="44.86244" lon="6.58146">
        <ele>1406.8</ele>
        <time>2024-08-18T14:47:53Z</time>
      </trkpt>
      <trkpt lat="44.8624" lon="6.58138">
        <ele>1406</ele>
        <time>2024-08-18T14:47:53Z</time>
      </trkpt>
      <trkpt lat="44.86235" lon="6.58132">
        <ele>1405.1</ele>
        <time>2024-08-18T14:47:53Z</time>
      </trkpt>
      <trkpt lat="44.86231" lon="6.58126">
        <ele>1403.8</ele>
        <time>2024-08-18T14:47:53Z</time>
      </trkpt>
      <trkpt lat="44.86228" lon="6.58121">
        <ele>1402.6</ele>
        <time>2024-08-18T14:47:53Z</time>
      </trkpt>
      <trkpt lat="44.86225" lon="6.58119">
        <ele>1403.3</ele>
        <time>2024-08-18T14:47:53Z</time>
      </trkpt>
      <trkpt lat="44.86221" lon="6.58116">
        <ele>1401.4</ele>
        <time>2024-08-18T14:47:53Z</time>
      </trkpt>
      <trkpt lat="44.86218" lon="6.58115">
        <ele>1400</ele>
        <time>2024-08-18T14:47:53Z</time>
      </trkpt>
      <trkpt lat="44.86214" lon="6.58108">
        <ele>1398.4</ele>
        <time>2024-08-18T14:47:53Z</time>
      </trkpt>
      <trkpt lat="44.8621" lon="6.58101">
        <ele>1397.3</ele>
        <time>2024-08-18T14:47:53Z</time>
      </trkpt>
      <trkpt lat="44.86206" lon="6.58097">
        <ele>1395.4</ele>
        <time>2024-08-18T14:47:53Z</time>
      </trkpt>
      <trkpt lat="44.86202" lon="6.58092">
        <ele>1393.5</ele>
        <time>2024-08-18T14:47:53Z</time>
      </trkpt>
      <trkpt lat="44.86198" lon="6.58088">
        <ele>1391.6</ele>
        <time>2024-08-18T14:47:53Z</time>
      </trkpt>
      <trkpt lat="44.86193" lon="6.58083">
        <ele>1389.6</ele>
        <time>2024-08-18T14:47:53Z</time>
      </trkpt>
      <trkpt lat="44.8619" lon="6.58081">
        <ele>1390.2</ele>
        <time>2024-08-18T14:47:53Z</time>
      </trkpt>
      <trkpt lat="44.86186" lon="6.58077">
        <ele>1387.6</ele>
        <time>2024-08-18T14:47:53Z</time>
      </trkpt>
      <trkpt lat="44.86183" lon="6.58073">
        <ele>1385.5</ele>
        <time>2024-08-18T14:47:53Z</time>
      </trkpt>
      <trkpt lat="44.86179" lon="6.58065">
        <ele>1383.9</ele>
        <time>2024-08-18T14:47:53Z</time>
      </trkpt>
      <trkpt lat="44.86172" lon="6.58059">
        <ele>1379.5</ele>
        <time>2024-08-18T14:47:53Z</time>
      </trkpt>
      <trkpt lat="44.86169" lon="6.58049">
        <ele>1380.4</ele>
        <time>2024-08-18T14:47:53Z</time>
      </trkpt>
      <trkpt lat="44.86167" lon="6.58041">
        <ele>1378.7</ele>
        <time>2024-08-18T14:47:53Z</time>
      </trkpt>
      <trkpt lat="44.86166" lon="6.58038">
        <ele>1379.1</ele>
        <time>2024-08-18T14:47:53Z</time>
      </trkpt>
      <trkpt lat="44.86165" lon="6.58033">
        <ele>1379.6</ele>
        <time>2024-08-18T14:47:53Z</time>
      </trkpt>
      <trkpt lat="44.86163" lon="6.58026">
        <ele>1377.4</ele>
        <time>2024-08-18T14:47:53Z</time>
      </trkpt>
      <trkpt lat="44.86161" lon="6.5802">
        <ele>1378.3</ele>
        <time>2024-08-18T14:47:53Z</time>
      </trkpt>
      <trkpt lat="44.86157" lon="6.58012">
        <ele>1376.6</ele>
        <time>2024-08-18T14:47:53Z</time>
      </trkpt>
      <trkpt lat="44.86153" lon="6.58003">
        <ele>1374.7</ele>
        <time>2024-08-18T14:47:53Z</time>
      </trkpt>
      <trkpt lat="44.86152" lon="6.58001">
        <ele>1374.7</ele>
        <time>2024-08-18T14:47:53Z</time>
      </trkpt>
      <trkpt lat="44.86151" lon="6.57999">
        <ele>1372.4</ele>
        <time>2024-08-18T14:47:53Z</time>
      </trkpt>
      <trkpt lat="44.8615" lon="6.57997">
        <ele>1372.4</ele>
        <time>2024-08-18T14:47:53Z</time>
      </trkpt>
      <trkpt lat="44.86148" lon="6.57994">
        <ele>1372.7</ele>
        <time>2024-08-18T14:47:53Z</time>
      </trkpt>
      <trkpt lat="44.86146" lon="6.5799">
        <ele>1370.3</ele>
        <time>2024-08-18T14:47:53Z</time>
      </trkpt>
      <trkpt lat="44.86144" lon="6.57984">
        <ele>1370.5</ele>
        <time>2024-08-18T14:47:53Z</time>
      </trkpt>
      <trkpt lat="44.86144" lon="6.57979">
        <ele>1370.7</ele>
        <time>2024-08-18T14:47:53Z</time>
      </trkpt>
      <trkpt lat="44.86144" lon="6.57971">
        <ele>1371</ele>
        <time>2024-08-18T14:47:53Z</time>
      </trkpt>
      <trkpt lat="44.86144" lon="6.57965">
        <ele>1371.1</ele>
        <time>2024-08-18T14:47:53Z</time>
      </trkpt>
      <trkpt lat="44.86145" lon="6.57958">
        <ele>1371.2</ele>
        <time>2024-08-18T14:47:53Z</time>
      </trkpt>
      <trkpt lat="44.86146" lon="6.57952">
        <ele>1371.1</ele>
        <time>2024-08-18T14:47:53Z</time>
      </trkpt>
      <trkpt lat="44.86146" lon="6.57946">
        <ele>1371</ele>
        <time>2024-08-18T14:47:53Z</time>
      </trkpt>
      <trkpt lat="44.86145" lon="6.57941">
        <ele>1370.9</ele>
        <time>2024-08-18T14:47:53Z</time>
      </trkpt>
      <trkpt lat="44.86143" lon="6.57934">
        <ele>1370.6</ele>
        <time>2024-08-18T14:47:53Z</time>
      </trkpt>
      <trkpt lat="44.8614" lon="6.57924">
        <ele>1367.1</ele>
        <time>2024-08-18T14:47:53Z</time>
      </trkpt>
      <trkpt lat="44.86138" lon="6.579">
        <ele>1363</ele>
        <time>2024-08-18T14:47:53Z</time>
      </trkpt>
      <trkpt lat="44.86136" lon="6.57881">
        <ele>1362.8</ele>
        <time>2024-08-18T14:47:53Z</time>
      </trkpt>
      <trkpt lat="44.86135" lon="6.57867">
        <ele>1362.8</ele>
        <time>2024-08-18T14:47:53Z</time>
      </trkpt>
      <trkpt lat="44.86135" lon="6.57859">
        <ele>1363.1</ele>
        <time>2024-08-18T14:47:53Z</time>
      </trkpt>
      <trkpt lat="44.86134" lon="6.57853">
        <ele>1361.2</ele>
        <time>2024-08-18T14:47:53Z</time>
      </trkpt>
      <trkpt lat="44.86132" lon="6.57848">
        <ele>1361.9</ele>
        <time>2024-08-18T14:47:53Z</time>
      </trkpt>
      <trkpt lat="44.86129" lon="6.57843">
        <ele>1360.6</ele>
        <time>2024-08-18T14:47:53Z</time>
      </trkpt>
      <trkpt lat="44.86126" lon="6.57841">
        <ele>1360.6</ele>
        <time>2024-08-18T14:47:53Z</time>
      </trkpt>
      <trkpt lat="44.86121" lon="6.57838">
        <ele>1357.6</ele>
        <time>2024-08-18T14:47:53Z</time>
      </trkpt>
      <trkpt lat="44.86116" lon="6.57833">
        <ele>1356.6</ele>
        <time>2024-08-18T14:47:53Z</time>
      </trkpt>
      <trkpt lat="44.8611" lon="6.57827">
        <ele>1356.5</ele>
        <time>2024-08-18T14:47:53Z</time>
      </trkpt>
      <trkpt lat="44.86106" lon="6.57822">
        <ele>1355.3</ele>
        <time>2024-08-18T14:47:53Z</time>
      </trkpt>
      <trkpt lat="44.86102" lon="6.57816">
        <ele>1354.1</ele>
        <time>2024-08-18T14:47:53Z</time>
      </trkpt>
      <trkpt lat="44.861" lon="6.57811">
        <ele>1354.8</ele>
        <time>2024-08-18T14:47:53Z</time>
      </trkpt>
      <trkpt lat="44.86098" lon="6.57803">
        <ele>1353.9</ele>
        <time>2024-08-18T14:47:53Z</time>
      </trkpt>
      <trkpt lat="44.86098" lon="6.57796">
        <ele>1354.7</ele>
        <time>2024-08-18T14:47:53Z</time>
      </trkpt>
      <trkpt lat="44.86098" lon="6.57785">
        <ele>1355.2</ele>
        <time>2024-08-18T14:47:53Z</time>
      </trkpt>
      <trkpt lat="44.86099" lon="6.57776">
        <ele>1355.3</ele>
        <time>2024-08-18T14:47:53Z</time>
      </trkpt>
      <trkpt lat="44.86099" lon="6.57772">
        <ele>1355.2</ele>
        <time>2024-08-18T14:47:53Z</time>
      </trkpt>
      <trkpt lat="44.86098" lon="6.57768">
        <ele>1355.2</ele>
        <time>2024-08-18T14:47:53Z</time>
      </trkpt>
      <trkpt lat="44.86096" lon="6.57766">
        <ele>1355.1</ele>
        <time>2024-08-18T14:47:53Z</time>
      </trkpt>
      <trkpt lat="44.86094" lon="6.57765">
        <ele>1353.3</ele>
        <time>2024-08-18T14:47:53Z</time>
      </trkpt>
      <trkpt lat="44.86092" lon="6.57765">
        <ele>1353.3</ele>
        <time>2024-08-18T14:47:53Z</time>
      </trkpt>
      <trkpt lat="44.8609" lon="6.57766">
        <ele>1351.5</ele>
        <time>2024-08-18T14:47:53Z</time>
      </trkpt>
      <trkpt lat="44.86088" lon="6.5777">
        <ele>1351.5</ele>
        <time>2024-08-18T14:47:53Z</time>
      </trkpt>
      <trkpt lat="44.86087" lon="6.57777">
        <ele>1351.4</ele>
        <time>2024-08-18T14:47:53Z</time>
      </trkpt>
      <trkpt lat="44.86088" lon="6.57784">
        <ele>1351.3</ele>
        <time>2024-08-18T14:47:53Z</time>
      </trkpt>
      <trkpt lat="44.86088" lon="6.57792">
        <ele>1351</ele>
        <time>2024-08-18T14:47:53Z</time>
      </trkpt>
      <trkpt lat="44.86087" lon="6.57801">
        <ele>1350.3</ele>
        <time>2024-08-18T14:47:53Z</time>
      </trkpt>
      <trkpt lat="44.86086" lon="6.57808">
        <ele>1347.4</ele>
        <time>2024-08-18T14:47:53Z</time>
      </trkpt>
      <trkpt lat="44.86085" lon="6.57815">
        <ele>1346.2</ele>
        <time>2024-08-18T14:47:53Z</time>
      </trkpt>
      <trkpt lat="44.86086" lon="6.5782">
        <ele>1345.5</ele>
        <time>2024-08-18T14:47:53Z</time>
      </trkpt>
      <trkpt lat="44.86088" lon="6.57825">
        <ele>1346.6</ele>
        <time>2024-08-18T14:47:53Z</time>
      </trkpt>
      <trkpt lat="44.8609" lon="6.5783">
        <ele>1345.8</ele>
        <time>2024-08-18T14:47:53Z</time>
      </trkpt>
      <trkpt lat="44.86092" lon="6.57836">
        <ele>1346.9</ele>
        <time>2024-08-18T14:47:53Z</time>
      </trkpt>
      <trkpt lat="44.86093" lon="6.57841">
        <ele>1345.2</ele>
        <time>2024-08-18T14:47:53Z</time>
      </trkpt>
      <trkpt lat="44.86093" lon="6.57848">
        <ele>1344.3</ele>
        <time>2024-08-18T14:47:53Z</time>
      </trkpt>
      <trkpt lat="44.86095" lon="6.57852">
        <ele>1343.4</ele>
        <time>2024-08-18T14:47:53Z</time>
      </trkpt>
      <trkpt lat="44.86097" lon="6.57855">
        <ele>1344.4</ele>
        <time>2024-08-18T14:47:53Z</time>
      </trkpt>
      <trkpt lat="44.86101" lon="6.57859">
        <ele>1345.3</ele>
        <time>2024-08-18T14:47:53Z</time>
      </trkpt>
      <trkpt lat="44.86104" lon="6.57864">
        <ele>1344.5</ele>
        <time>2024-08-18T14:47:53Z</time>
      </trkpt>
      <trkpt lat="44.86106" lon="6.57868">
        <ele>1345.6</ele>
        <time>2024-08-18T14:47:53Z</time>
      </trkpt>
      <trkpt lat="44.86106" lon="6.57876">
        <ele>1344.1</ele>
        <time>2024-08-18T14:47:53Z</time>
      </trkpt>
      <trkpt lat="44.86107" lon="6.57886">
        <ele>1342.9</ele>
        <time>2024-08-18T14:47:53Z</time>
      </trkpt>
      <trkpt lat="44.86106" lon="6.57905">
        <ele>1341.5</ele>
        <time>2024-08-18T14:47:53Z</time>
      </trkpt>
      <trkpt lat="44.86107" lon="6.57911">
        <ele>1341.4</ele>
        <time>2024-08-18T14:47:53Z</time>
      </trkpt>
      <trkpt lat="44.86107" lon="6.57919">
        <ele>1341.6</ele>
        <time>2024-08-18T14:47:53Z</time>
      </trkpt>
      <trkpt lat="44.86107" lon="6.57928">
        <ele>1342.2</ele>
        <time>2024-08-18T14:47:53Z</time>
      </trkpt>
      <trkpt lat="44.86106" lon="6.57936">
        <ele>1343.1</ele>
        <time>2024-08-18T14:47:53Z</time>
      </trkpt>
      <trkpt lat="44.86104" lon="6.57945">
        <ele>1341.1</ele>
        <time>2024-08-18T14:47:53Z</time>
      </trkpt>
      <trkpt lat="44.861" lon="6.57958">
        <ele>1342.5</ele>
        <time>2024-08-18T14:47:53Z</time>
      </trkpt>
      <trkpt lat="44.86096" lon="6.57974">
        <ele>1341.8</ele>
        <time>2024-08-18T14:47:53Z</time>
      </trkpt>
      <trkpt lat="44.86091" lon="6.5799">
        <ele>1338.1</ele>
        <time>2024-08-18T14:47:53Z</time>
      </trkpt>
      <trkpt lat="44.86087" lon="6.58007">
        <ele>1338.7</ele>
        <time>2024-08-18T14:47:53Z</time>
      </trkpt>
      <trkpt lat="44.86086" lon="6.58015">
        <ele>1336.1</ele>
        <time>2024-08-18T14:47:53Z</time>
      </trkpt>
      <trkpt lat="44.86086" lon="6.5802">
        <ele>1335.8</ele>
        <time>2024-08-18T14:47:53Z</time>
      </trkpt>
      <trkpt lat="44.86087" lon="6.58025">
        <ele>1337.3</ele>
        <time>2024-08-18T14:47:53Z</time>
      </trkpt>
      <trkpt lat="44.86089" lon="6.5803">
        <ele>1335.6</ele>
        <time>2024-08-18T14:47:53Z</time>
      </trkpt>
      <trkpt lat="44.86093" lon="6.58034">
        <ele>1336.4</ele>
        <time>2024-08-18T14:47:53Z</time>
      </trkpt>
      <trkpt lat="44.86097" lon="6.58036">
        <ele>1338.4</ele>
        <time>2024-08-18T14:47:53Z</time>
      </trkpt>
      <trkpt lat="44.861" lon="6.58039">
        <ele>1339.7</ele>
        <time>2024-08-18T14:47:53Z</time>
      </trkpt>
      <trkpt lat="44.86102" lon="6.58042">
        <ele>1339.7</ele>
        <time>2024-08-18T14:47:53Z</time>
      </trkpt>
      <trkpt lat="44.86104" lon="6.58046">
        <ele>1338.7</ele>
        <time>2024-08-18T14:47:53Z</time>
      </trkpt>
      <trkpt lat="44.86104" lon="6.58052">
        <ele>1336.7</ele>
        <time>2024-08-18T14:47:53Z</time>
      </trkpt>
      <trkpt lat="44.86105" lon="6.58057">
        <ele>1338</ele>
        <time>2024-08-18T14:47:53Z</time>
      </trkpt>
      <trkpt lat="44.86106" lon="6.58064">
        <ele>1335.9</ele>
        <time>2024-08-18T14:47:53Z</time>
      </trkpt>
      <trkpt lat="44.86107" lon="6.58073">
        <ele>1334.1</ele>
        <time>2024-08-18T14:47:53Z</time>
      </trkpt>
      <trkpt lat="44.86109" lon="6.58084">
        <ele>1335.4</ele>
        <time>2024-08-18T14:47:53Z</time>
      </trkpt>
      <trkpt lat="44.8611" lon="6.58099">
        <ele>1333.6</ele>
        <time>2024-08-18T14:47:53Z</time>
      </trkpt>
      <trkpt lat="44.86111" lon="6.5811">
        <ele>1333</ele>
        <time>2024-08-18T14:47:53Z</time>
      </trkpt>
      <trkpt lat="44.86111" lon="6.58125">
        <ele>1331.5</ele>
        <time>2024-08-18T14:47:53Z</time>
      </trkpt>
      <trkpt lat="44.86112" lon="6.58138">
        <ele>1329.8</ele>
        <time>2024-08-18T14:47:53Z</time>
      </trkpt>
      <trkpt lat="44.86113" lon="6.5815">
        <ele>1330.4</ele>
        <time>2024-08-18T14:47:53Z</time>
      </trkpt>
      <trkpt lat="44.86115" lon="6.58161">
        <ele>1328.8</ele>
        <time>2024-08-18T14:47:53Z</time>
      </trkpt>
      <trkpt lat="44.86117" lon="6.58168">
        <ele>1329.8</ele>
        <time>2024-08-18T14:47:53Z</time>
      </trkpt>
      <trkpt lat="44.8612" lon="6.58175">
        <ele>1328.6</ele>
        <time>2024-08-18T14:47:53Z</time>
      </trkpt>
      <trkpt lat="44.86123" lon="6.58184">
        <ele>1329.1</ele>
        <time>2024-08-18T14:47:53Z</time>
      </trkpt>
      <trkpt lat="44.86128" lon="6.58197">
        <ele>1327.2</ele>
        <time>2024-08-18T14:47:53Z</time>
      </trkpt>
      <trkpt lat="44.86134" lon="6.58215">
        <ele>1324.7</ele>
        <time>2024-08-18T14:47:53Z</time>
      </trkpt>
      <trkpt lat="44.86139" lon="6.58232">
        <ele>1324.9</ele>
        <time>2024-08-18T14:47:53Z</time>
      </trkpt>
      <trkpt lat="44.86143" lon="6.58246">
        <ele>1323.5</ele>
        <time>2024-08-18T14:47:53Z</time>
      </trkpt>
      <trkpt lat="44.86148" lon="6.58255">
        <ele>1323.3</ele>
        <time>2024-08-18T14:47:53Z</time>
      </trkpt>
      <trkpt lat="44.86152" lon="6.5826">
        <ele>1324.5</ele>
        <time>2024-08-18T14:47:53Z</time>
      </trkpt>
      <trkpt lat="44.86155" lon="6.58263">
        <ele>1323.3</ele>
        <time>2024-08-18T14:47:53Z</time>
      </trkpt>
      <trkpt lat="44.86157" lon="6.58268">
        <ele>1324.9</ele>
        <time>2024-08-18T14:47:53Z</time>
      </trkpt>
      <trkpt lat="44.86158" lon="6.58274">
        <ele>1324</ele>
        <time>2024-08-18T14:47:53Z</time>
      </trkpt>
      <trkpt lat="44.86158" lon="6.58279">
        <ele>1322.5</ele>
        <time>2024-08-18T14:47:53Z</time>
      </trkpt>
      <trkpt lat="44.86157" lon="6.58286">
        <ele>1322</ele>
        <time>2024-08-18T14:47:53Z</time>
      </trkpt>
      <trkpt lat="44.86156" lon="6.58294">
        <ele>1320.9</ele>
        <time>2024-08-18T14:47:53Z</time>
      </trkpt>
      <trkpt lat="44.86157" lon="6.58303">
        <ele>1320</ele>
        <time>2024-08-18T14:47:53Z</time>
      </trkpt>
      <trkpt lat="44.86159" lon="6.58317">
        <ele>1318.4</ele>
        <time>2024-08-18T14:47:53Z</time>
      </trkpt>
      <trkpt lat="44.86161" lon="6.58329">
        <ele>1319.2</ele>
        <time>2024-08-18T14:47:53Z</time>
      </trkpt>
      <trkpt lat="44.86162" lon="6.58341">
        <ele>1318.6</ele>
        <time>2024-08-18T14:47:53Z</time>
      </trkpt>
      <trkpt lat="44.86162" lon="6.5835">
        <ele>1319</ele>
        <time>2024-08-18T14:47:53Z</time>
      </trkpt>
      <trkpt lat="44.86162" lon="6.58356">
        <ele>1320.2</ele>
        <time>2024-08-18T14:47:53Z</time>
      </trkpt>
      <trkpt lat="44.8616" lon="6.58361">
        <ele>1320.9</ele>
        <time>2024-08-18T14:47:53Z</time>
      </trkpt>
      <trkpt lat="44.86157" lon="6.58364">
        <ele>1319.8</ele>
        <time>2024-08-18T14:47:53Z</time>
      </trkpt>
      <trkpt lat="44.86153" lon="6.58366">
        <ele>1319.5</ele>
        <time>2024-08-18T14:47:53Z</time>
      </trkpt>
      <trkpt lat="44.86149" lon="6.58366">
        <ele>1318.1</ele>
        <time>2024-08-18T14:47:53Z</time>
      </trkpt>
      <trkpt lat="44.86142" lon="6.58366">
        <ele>1315.2</ele>
        <time>2024-08-18T14:47:53Z</time>
      </trkpt>
      <trkpt lat="44.86139" lon="6.58368">
        <ele>1315.2</ele>
        <time>2024-08-18T14:47:53Z</time>
      </trkpt>
      <trkpt lat="44.86136" lon="6.58371">
        <ele>1315</ele>
        <time>2024-08-18T14:47:53Z</time>
      </trkpt>
      <trkpt lat="44.86128" lon="6.58379">
        <ele>1314.7</ele>
        <time>2024-08-18T14:47:53Z</time>
      </trkpt>
      <trkpt lat="44.86119" lon="6.58391">
        <ele>1315.3</ele>
        <time>2024-08-18T14:47:53Z</time>
      </trkpt>
      <trkpt lat="44.86113" lon="6.58402">
        <ele>1315.3</ele>
        <time>2024-08-18T14:47:53Z</time>
      </trkpt>
      <trkpt lat="44.86108" lon="6.58413">
        <ele>1312.5</ele>
        <time>2024-08-18T14:47:53Z</time>
      </trkpt>
      <trkpt lat="44.86106" lon="6.58421">
        <ele>1312.7</ele>
        <time>2024-08-18T14:47:53Z</time>
      </trkpt>
      <trkpt lat="44.86105" lon="6.58426">
        <ele>1312.8</ele>
        <time>2024-08-18T14:47:53Z</time>
      </trkpt>
      <trkpt lat="44.86102" lon="6.5843">
        <ele>1310.8</ele>
        <time>2024-08-18T14:47:53Z</time>
      </trkpt>
      <trkpt lat="44.86099" lon="6.58432">
        <ele>1309.2</ele>
        <time>2024-08-18T14:47:53Z</time>
      </trkpt>
      <trkpt lat="44.86097" lon="6.58433">
        <ele>1309.2</ele>
        <time>2024-08-18T14:47:53Z</time>
      </trkpt>
      <trkpt lat="44.86093" lon="6.58432">
        <ele>1307.8</ele>
        <time>2024-08-18T14:47:53Z</time>
      </trkpt>
      <trkpt lat="44.8609" lon="6.58429">
        <ele>1306.7</ele>
        <time>2024-08-18T14:47:53Z</time>
      </trkpt>
      <trkpt lat="44.86088" lon="6.58424">
        <ele>1307.3</ele>
        <time>2024-08-18T14:47:53Z</time>
      </trkpt>
      <trkpt lat="44.86087" lon="6.58418">
        <ele>1307.4</ele>
        <time>2024-08-18T14:47:53Z</time>
      </trkpt>
      <trkpt lat="44.86088" lon="6.58413">
        <ele>1307.3</ele>
        <time>2024-08-18T14:47:53Z</time>
      </trkpt>
      <trkpt lat="44.86089" lon="6.5841">
        <ele>1307.1</ele>
        <time>2024-08-18T14:47:53Z</time>
      </trkpt>
      <trkpt lat="44.86091" lon="6.58406">
        <ele>1306.6</ele>
        <time>2024-08-18T14:47:53Z</time>
      </trkpt>
      <trkpt lat="44.86093" lon="6.58404">
        <ele>1307.7</ele>
        <time>2024-08-18T14:47:53Z</time>
      </trkpt>
      <trkpt lat="44.86096" lon="6.584">
        <ele>1308.4</ele>
        <time>2024-08-18T14:47:53Z</time>
      </trkpt>
      <trkpt lat="44.86102" lon="6.58391">
        <ele>1308.7</ele>
        <time>2024-08-18T14:47:53Z</time>
      </trkpt>
      <trkpt lat="44.86108" lon="6.5838">
        <ele>1306.9</ele>
        <time>2024-08-18T14:47:53Z</time>
      </trkpt>
      <trkpt lat="44.86113" lon="6.58368">
        <ele>1305.2</ele>
        <time>2024-08-18T14:47:53Z</time>
      </trkpt>
      <trkpt lat="44.86118" lon="6.5836">
        <ele>1304.4</ele>
        <time>2024-08-18T14:47:53Z</time>
      </trkpt>
      <trkpt lat="44.86123" lon="6.58354">
        <ele>1305.2</ele>
        <time>2024-08-18T14:47:53Z</time>
      </trkpt>
      <trkpt lat="44.86127" lon="6.58348">
        <ele>1306.2</ele>
        <time>2024-08-18T14:47:53Z</time>
      </trkpt>
      <trkpt lat="44.86129" lon="6.58345">
        <ele>1305.4</ele>
        <time>2024-08-18T14:47:53Z</time>
      </trkpt>
      <trkpt lat="44.8613" lon="6.58341">
        <ele>1306.6</ele>
        <time>2024-08-18T14:47:53Z</time>
      </trkpt>
      <trkpt lat="44.8613" lon="6.58338">
        <ele>1306.1</ele>
        <time>2024-08-18T14:47:53Z</time>
      </trkpt>
      <trkpt lat="44.86129" lon="6.58335">
        <ele>1304.2</ele>
        <time>2024-08-18T14:47:53Z</time>
      </trkpt>
      <trkpt lat="44.86128" lon="6.58332">
        <ele>1303.7</ele>
        <time>2024-08-18T14:47:53Z</time>
      </trkpt>
      <trkpt lat="44.86126" lon="6.58328">
        <ele>1303.4</ele>
        <time>2024-08-18T14:47:53Z</time>
      </trkpt>
      <trkpt lat="44.86124" lon="6.58323">
        <ele>1301.4</ele>
        <time>2024-08-18T14:47:53Z</time>
      </trkpt>
      <trkpt lat="44.86122" lon="6.58318">
        <ele>1301.3</ele>
        <time>2024-08-18T14:47:53Z</time>
      </trkpt>
      <trkpt lat="44.86121" lon="6.58313">
        <ele>1299.1</ele>
        <time>2024-08-18T14:47:53Z</time>
      </trkpt>
      <trkpt lat="44.86122" lon="6.58307">
        <ele>1301.3</ele>
        <time>2024-08-18T14:47:53Z</time>
      </trkpt>
      <trkpt lat="44.86122" lon="6.58303">
        <ele>1301.4</ele>
        <time>2024-08-18T14:47:53Z</time>
      </trkpt>
      <trkpt lat="44.86122" lon="6.58299">
        <ele>1301.5</ele>
        <time>2024-08-18T14:47:53Z</time>
      </trkpt>
      <trkpt lat="44.86121" lon="6.58294">
        <ele>1299.6</ele>
        <time>2024-08-18T14:47:53Z</time>
      </trkpt>
      <trkpt lat="44.86119" lon="6.58291">
        <ele>1300.1</ele>
        <time>2024-08-18T14:47:53Z</time>
      </trkpt>
      <trkpt lat="44.86117" lon="6.58286">
        <ele>1300.6</ele>
        <time>2024-08-18T14:47:53Z</time>
      </trkpt>
      <trkpt lat="44.86113" lon="6.5828">
        <ele>1299.1</ele>
        <time>2024-08-18T14:47:53Z</time>
      </trkpt>
      <trkpt lat="44.86109" lon="6.58275">
        <ele>1297.6</ele>
        <time>2024-08-18T14:47:53Z</time>
      </trkpt>
      <trkpt lat="44.86105" lon="6.58268">
        <ele>1296.9</ele>
        <time>2024-08-18T14:47:53Z</time>
      </trkpt>
      <trkpt lat="44.86101" lon="6.58261">
        <ele>1296.2</ele>
        <time>2024-08-18T14:47:53Z</time>
      </trkpt>
      <trkpt lat="44.86097" lon="6.58252">
        <ele>1295.4</ele>
        <time>2024-08-18T14:47:53Z</time>
      </trkpt>
      <trkpt lat="44.86094" lon="6.58243">
        <ele>1294.5</ele>
        <time>2024-08-18T14:47:53Z</time>
      </trkpt>
      <trkpt lat="44.8609" lon="6.58233">
        <ele>1293.5</ele>
        <time>2024-08-18T14:47:53Z</time>
      </trkpt>
      <trkpt lat="44.86088" lon="6.58226">
        <ele>1295.3</ele>
        <time>2024-08-18T14:47:53Z</time>
      </trkpt>
      <trkpt lat="44.86086" lon="6.58222">
        <ele>1293.8</ele>
        <time>2024-08-18T14:47:53Z</time>
      </trkpt>
      <trkpt lat="44.86083" lon="6.58219">
        <ele>1293.8</ele>
        <time>2024-08-18T14:47:53Z</time>
      </trkpt>
      <trkpt lat="44.86079" lon="6.58214">
        <ele>1293.7</ele>
        <time>2024-08-18T14:47:53Z</time>
      </trkpt>
      <trkpt lat="44.86071" lon="6.58206">
        <ele>1290.4</ele>
        <time>2024-08-18T14:47:53Z</time>
      </trkpt>
      <trkpt lat="44.86065" lon="6.58201">
        <ele>1288</ele>
        <time>2024-08-18T14:47:53Z</time>
      </trkpt>
      <trkpt lat="44.86062" lon="6.58195">
        <ele>1289.2</ele>
        <time>2024-08-18T14:47:53Z</time>
      </trkpt>
      <trkpt lat="44.86059" lon="6.58191">
        <ele>1287.3</ele>
        <time>2024-08-18T14:47:53Z</time>
      </trkpt>
      <trkpt lat="44.86057" lon="6.58185">
        <ele>1288.2</ele>
        <time>2024-08-18T14:47:53Z</time>
      </trkpt>
      <trkpt lat="44.86055" lon="6.58178">
        <ele>1286.7</ele>
        <time>2024-08-18T14:47:53Z</time>
      </trkpt>
      <trkpt lat="44.86053" lon="6.58168">
        <ele>1287.7</ele>
        <time>2024-08-18T14:47:53Z</time>
      </trkpt>
      <trkpt lat="44.86048" lon="6.58155">
        <ele>1284.6</ele>
        <time>2024-08-18T14:47:53Z</time>
      </trkpt>
      <trkpt lat="44.86044" lon="6.58144">
        <ele>1287.5</ele>
        <time>2024-08-18T14:47:53Z</time>
      </trkpt>
      <trkpt lat="44.8604" lon="6.58137">
        <ele>1285.9</ele>
        <time>2024-08-18T14:47:53Z</time>
      </trkpt>
      <trkpt lat="44.86037" lon="6.58133">
        <ele>1284.2</ele>
        <time>2024-08-18T14:47:53Z</time>
      </trkpt>
      <trkpt lat="44.86035" lon="6.5813">
        <ele>1283.5</ele>
        <time>2024-08-18T14:47:53Z</time>
      </trkpt>
      <trkpt lat="44.86032" lon="6.58129">
        <ele>1283.5</ele>
        <time>2024-08-18T14:47:53Z</time>
      </trkpt>
      <trkpt lat="44.8603" lon="6.58127">
        <ele>1283.7</ele>
        <time>2024-08-18T14:47:53Z</time>
      </trkpt>
      <trkpt lat="44.86026" lon="6.58127">
        <ele>1282.5</ele>
        <time>2024-08-18T14:47:53Z</time>
      </trkpt>
      <trkpt lat="44.86019" lon="6.58126">
        <ele>1281.2</ele>
        <time>2024-08-18T14:47:53Z</time>
      </trkpt>
      <trkpt lat="44.86013" lon="6.58124">
        <ele>1278.6</ele>
        <time>2024-08-18T14:47:53Z</time>
      </trkpt>
      <trkpt lat="44.86006" lon="6.58122">
        <ele>1279</ele>
        <time>2024-08-18T14:47:53Z</time>
      </trkpt>
      <trkpt lat="44.86" lon="6.58119">
        <ele>1277.5</ele>
        <time>2024-08-18T14:47:53Z</time>
      </trkpt>
      <trkpt lat="44.85996" lon="6.58116">
        <ele>1275.8</ele>
        <time>2024-08-18T14:47:53Z</time>
      </trkpt>
      <trkpt lat="44.85993" lon="6.58112">
        <ele>1276.9</ele>
        <time>2024-08-18T14:47:53Z</time>
      </trkpt>
      <trkpt lat="44.85991" lon="6.58107">
        <ele>1275.5</ele>
        <time>2024-08-18T14:47:53Z</time>
      </trkpt>
      <trkpt lat="44.8599" lon="6.58102">
        <ele>1276.2</ele>
        <time>2024-08-18T14:47:53Z</time>
      </trkpt>
      <trkpt lat="44.85989" lon="6.58095">
        <ele>1276.4</ele>
        <time>2024-08-18T14:47:53Z</time>
      </trkpt>
      <trkpt lat="44.8599" lon="6.58083">
        <ele>1276.1</ele>
        <time>2024-08-18T14:47:53Z</time>
      </trkpt>
      <trkpt lat="44.8599" lon="6.58067">
        <ele>1275.4</ele>
        <time>2024-08-18T14:47:53Z</time>
      </trkpt>
      <trkpt lat="44.8599" lon="6.58056">
        <ele>1275.2</ele>
        <time>2024-08-18T14:47:53Z</time>
      </trkpt>
      <trkpt lat="44.85989" lon="6.58041">
        <ele>1275.8</ele>
        <time>2024-08-18T14:47:53Z</time>
      </trkpt>
      <trkpt lat="44.85987" lon="6.5803">
        <ele>1275.5</ele>
        <time>2024-08-18T14:47:53Z</time>
      </trkpt>
      <trkpt lat="44.85985" lon="6.58016">
        <ele>1278.6</ele>
        <time>2024-08-18T14:47:53Z</time>
      </trkpt>
      <trkpt lat="44.85984" lon="6.58011">
        <ele>1279.3</ele>
        <time>2024-08-18T14:47:53Z</time>
      </trkpt>
      <trkpt lat="44.8598" lon="6.58005">
        <ele>1278.8</ele>
        <time>2024-08-18T14:47:53Z</time>
      </trkpt>
      <trkpt lat="44.85976" lon="6.58003">
        <ele>1278.6</ele>
        <time>2024-08-18T14:47:53Z</time>
      </trkpt>
      <trkpt lat="44.85973" lon="6.58003">
        <ele>1277.9</ele>
        <time>2024-08-18T14:47:53Z</time>
      </trkpt>
      <trkpt lat="44.85969" lon="6.58003">
        <ele>1277.2</ele>
        <time>2024-08-18T14:47:53Z</time>
      </trkpt>
      <trkpt lat="44.85966" lon="6.58005">
        <ele>1275.6</ele>
        <time>2024-08-18T14:47:53Z</time>
      </trkpt>
      <trkpt lat="44.85958" lon="6.58007">
        <ele>1274.6</ele>
        <time>2024-08-18T14:47:53Z</time>
      </trkpt>
      <trkpt lat="44.85943" lon="6.58015">
        <ele>1270.6</ele>
        <time>2024-08-18T14:47:53Z</time>
      </trkpt>
      <trkpt lat="44.8593" lon="6.5802">
        <ele>1267.3</ele>
        <time>2024-08-18T14:47:53Z</time>
      </trkpt>
      <trkpt lat="44.85922" lon="6.58023">
        <ele>1264.1</ele>
        <time>2024-08-18T14:47:53Z</time>
      </trkpt>
      <trkpt lat="44.85914" lon="6.58023">
        <ele>1262.5</ele>
        <time>2024-08-18T14:47:53Z</time>
      </trkpt>
      <trkpt lat="44.8591" lon="6.58022">
        <ele>1261.4</ele>
        <time>2024-08-18T14:47:53Z</time>
      </trkpt>
      <trkpt lat="44.85906" lon="6.5802">
        <ele>1262</ele>
        <time>2024-08-18T14:47:53Z</time>
      </trkpt>
      <trkpt lat="44.85897" lon="6.58014">
        <ele>1260.9</ele>
        <time>2024-08-18T14:47:53Z</time>
      </trkpt>
      <trkpt lat="44.85887" lon="6.58005">
        <ele>1260.2</ele>
        <time>2024-08-18T14:47:53Z</time>
      </trkpt>
      <trkpt lat="44.85879" lon="6.57996">
        <ele>1259</ele>
        <time>2024-08-18T14:47:53Z</time>
      </trkpt>
      <trkpt lat="44.85873" lon="6.57987">
        <ele>1258.9</ele>
        <time>2024-08-18T14:47:53Z</time>
      </trkpt>
      <trkpt lat="44.85871" lon="6.57979">
        <ele>1258.3</ele>
        <time>2024-08-18T14:47:53Z</time>
      </trkpt>
      <trkpt lat="44.85869" lon="6.57972">
        <ele>1258.8</ele>
        <time>2024-08-18T14:47:53Z</time>
      </trkpt>
      <trkpt lat="44.85869" lon="6.57966">
        <ele>1258.9</ele>
        <time>2024-08-18T14:47:53Z</time>
      </trkpt>
      <trkpt lat="44.8587" lon="6.5796">
        <ele>1258.9</ele>
        <time>2024-08-18T14:47:53Z</time>
      </trkpt>
      <trkpt lat="44.85871" lon="6.57952">
        <ele>1258.9</ele>
        <time>2024-08-18T14:47:53Z</time>
      </trkpt>
      <trkpt lat="44.85872" lon="6.57947">
        <ele>1258.9</ele>
        <time>2024-08-18T14:47:53Z</time>
      </trkpt>
      <trkpt lat="44.85872" lon="6.57941">
        <ele>1259</ele>
        <time>2024-08-18T14:47:53Z</time>
      </trkpt>
      <trkpt lat="44.8587" lon="6.57937">
        <ele>1259</ele>
        <time>2024-08-18T14:47:53Z</time>
      </trkpt>
      <trkpt lat="44.85868" lon="6.57935">
        <ele>1259</ele>
        <time>2024-08-18T14:47:53Z</time>
      </trkpt>
      <trkpt lat="44.85866" lon="6.57933">
        <ele>1257.7</ele>
        <time>2024-08-18T14:47:53Z</time>
      </trkpt>
      <trkpt lat="44.85864" lon="6.57932">
        <ele>1257.7</ele>
        <time>2024-08-18T14:47:53Z</time>
      </trkpt>
      <trkpt lat="44.85861" lon="6.57932">
        <ele>1256.4</ele>
        <time>2024-08-18T14:47:53Z</time>
      </trkpt>
      <trkpt lat="44.85858" lon="6.57929">
        <ele>1255.3</ele>
        <time>2024-08-18T14:47:53Z</time>
      </trkpt>
      <trkpt lat="44.85854" lon="6.57924">
        <ele>1255.5</ele>
        <time>2024-08-18T14:47:53Z</time>
      </trkpt>
      <trkpt lat="44.85852" lon="6.57927">
        <ele>1254.8</ele>
        <time>2024-08-18T14:47:53Z</time>
      </trkpt>
      <trkpt lat="44.85846" lon="6.57932">
        <ele>1254</ele>
        <time>2024-08-18T14:47:53Z</time>
      </trkpt>
      <trkpt lat="44.85832" lon="6.57947">
        <ele>1251.5</ele>
        <time>2024-08-18T14:47:53Z</time>
      </trkpt>
      <trkpt lat="44.85823" lon="6.57957">
        <ele>1248.7</ele>
        <time>2024-08-18T14:47:53Z</time>
      </trkpt>
      <trkpt lat="44.8581" lon="6.57969">
        <ele>1246</ele>
        <time>2024-08-18T14:47:53Z</time>
      </trkpt>
      <trkpt lat="44.85802" lon="6.57979">
        <ele>1242.8</ele>
        <time>2024-08-18T14:47:53Z</time>
      </trkpt>
      <trkpt lat="44.85796" lon="6.57986">
        <ele>1241.6</ele>
        <time>2024-08-18T14:47:53Z</time>
      </trkpt>
      <trkpt lat="44.8579" lon="6.57996">
        <ele>1238.4</ele>
        <time>2024-08-18T14:47:53Z</time>
      </trkpt>
      <trkpt lat="44.85787" lon="6.58003">
        <ele>1237.8</ele>
        <time>2024-08-18T14:47:53Z</time>
      </trkpt>
      <trkpt lat="44.85784" lon="6.58009">
        <ele>1236</ele>
        <time>2024-08-18T14:47:53Z</time>
      </trkpt>
      <trkpt lat="44.85777" lon="6.58022">
        <ele>1233.2</ele>
        <time>2024-08-18T14:47:53Z</time>
      </trkpt>
      <trkpt lat="44.8577" lon="6.58031">
        <ele>1231.7</ele>
        <time>2024-08-18T14:47:53Z</time>
      </trkpt>
      <trkpt lat="44.85763" lon="6.58041">
        <ele>1229.7</ele>
        <time>2024-08-18T14:47:53Z</time>
      </trkpt>
      <trkpt lat="44.85745" lon="6.58059">
        <ele>1226.1</ele>
        <time>2024-08-18T14:47:53Z</time>
      </trkpt>
      <trkpt lat="44.85731" lon="6.58073">
        <ele>1223.5</ele>
        <time>2024-08-18T14:47:53Z</time>
      </trkpt>
      <trkpt lat="44.85718" lon="6.58085">
        <ele>1221.4</ele>
        <time>2024-08-18T14:47:53Z</time>
      </trkpt>
      <trkpt lat="44.85716" lon="6.58087">
        <ele>1220.6</ele>
        <time>2024-08-18T14:47:53Z</time>
      </trkpt>
      <trkpt lat="44.8571" lon="6.58095">
        <ele>1219.4</ele>
        <time>2024-08-18T14:47:53Z</time>
      </trkpt>
      <trkpt lat="44.85696" lon="6.58115">
        <ele>1215.1</ele>
        <time>2024-08-18T14:47:53Z</time>
      </trkpt>
      <trkpt lat="44.85692" lon="6.58122">
        <ele>1213.5</ele>
        <time>2024-08-18T14:47:53Z</time>
      </trkpt>
      <trkpt lat="44.85681" lon="6.58139">
        <ele>1210.5</ele>
        <time>2024-08-18T14:47:53Z</time>
      </trkpt>
      <trkpt lat="44.85667" lon="6.58164">
        <ele>1206.6</ele>
        <time>2024-08-18T14:47:53Z</time>
      </trkpt>
      <trkpt lat="44.85659" lon="6.58177">
        <ele>1204.7</ele>
        <time>2024-08-18T14:47:53Z</time>
      </trkpt>
      <trkpt lat="44.85654" lon="6.58167">
        <ele>1204.5</ele>
        <time>2024-08-18T14:47:53Z</time>
      </trkpt>
      <trkpt lat="44.85648" lon="6.58154">
        <ele>1203.6</ele>
        <time>2024-08-18T14:47:53Z</time>
      </trkpt>
      <trkpt lat="44.8564" lon="6.58135">
        <ele>1202.5</ele>
        <time>2024-08-18T14:47:53Z</time>
      </trkpt>
      <trkpt lat="44.85636" lon="6.58123">
        <ele>1202.1</ele>
        <time>2024-08-18T14:47:53Z</time>
      </trkpt>
      <trkpt lat="44.85633" lon="6.58117">
        <ele>1202.2</ele>
        <time>2024-08-18T14:47:53Z</time>
      </trkpt>
      <trkpt lat="44.8563" lon="6.58114">
        <ele>1201.6</ele>
        <time>2024-08-18T14:47:53Z</time>
      </trkpt>
      <trkpt lat="44.85627" lon="6.58114">
        <ele>1200.8</ele>
        <time>2024-08-18T14:47:53Z</time>
      </trkpt>
      <trkpt lat="44.85624" lon="6.58114">
        <ele>1200.8</ele>
        <time>2024-08-18T14:47:53Z</time>
      </trkpt>
      <trkpt lat="44.8562" lon="6.58115">
        <ele>1200</ele>
        <time>2024-08-18T14:47:53Z</time>
      </trkpt>
      <trkpt lat="44.85616" lon="6.58115">
        <ele>1199.3</ele>
        <time>2024-08-18T14:47:53Z</time>
      </trkpt>
      <trkpt lat="44.85613" lon="6.58113">
        <ele>1198.7</ele>
        <time>2024-08-18T14:47:53Z</time>
      </trkpt>
      <trkpt lat="44.8561" lon="6.5811">
        <ele>1198.1</ele>
        <time>2024-08-18T14:47:53Z</time>
      </trkpt>
      <trkpt lat="44.85602" lon="6.58103">
        <ele>1197.7</ele>
        <time>2024-08-18T14:47:53Z</time>
      </trkpt>
      <trkpt lat="44.85598" lon="6.58099">
        <ele>1197.2</ele>
        <time>2024-08-18T14:47:53Z</time>
      </trkpt>
      <trkpt lat="44.85597" lon="6.581">
        <ele>1196.8</ele>
        <time>2024-08-18T14:47:53Z</time>
      </trkpt>
      <trkpt lat="44.85594" lon="6.58104">
        <ele>1196.6</ele>
        <time>2024-08-18T14:47:53Z</time>
      </trkpt>
      <trkpt lat="44.85591" lon="6.58107">
        <ele>1196.1</ele>
        <time>2024-08-18T14:47:53Z</time>
      </trkpt>
      <trkpt lat="44.85587" lon="6.58108">
        <ele>1195.7</ele>
        <time>2024-08-18T14:47:53Z</time>
      </trkpt>
      <trkpt lat="44.85582" lon="6.58109">
        <ele>1195.3</ele>
        <time>2024-08-18T14:47:53Z</time>
      </trkpt>
      <trkpt lat="44.85572" lon="6.58108">
        <ele>1194.8</ele>
        <time>2024-08-18T14:47:53Z</time>
      </trkpt>
      <trkpt lat="44.85571" lon="6.58107">
        <ele>1194.6</ele>
        <time>2024-08-18T14:47:53Z</time>
      </trkpt>
      <trkpt lat="44.85564" lon="6.58106">
        <ele>1194.6</ele>
        <time>2024-08-18T14:47:53Z</time>
      </trkpt>
      <trkpt lat="44.85552" lon="6.58104">
        <ele>1194.3</ele>
        <time>2024-08-18T14:47:53Z</time>
      </trkpt>
      <trkpt lat="44.85538" lon="6.58102">
        <ele>1194.4</ele>
        <time>2024-08-18T14:47:53Z</time>
      </trkpt>
      <trkpt lat="44.85526" lon="6.58103">
        <ele>1193.6</ele>
        <time>2024-08-18T14:47:53Z</time>
      </trkpt>
      <trkpt lat="44.85519" lon="6.58103">
        <ele>1193.3</ele>
        <time>2024-08-18T14:47:53Z</time>
      </trkpt>
      <trkpt lat="44.85515" lon="6.58102">
        <ele>1193.5</ele>
        <time>2024-08-18T14:47:53Z</time>
      </trkpt>
      <trkpt lat="44.8551" lon="6.58101">
        <ele>1193.3</ele>
        <time>2024-08-18T14:47:53Z</time>
      </trkpt>
      <trkpt lat="44.85504" lon="6.58097">
        <ele>1193.6</ele>
        <time>2024-08-18T14:47:53Z</time>
      </trkpt>
      <trkpt lat="44.855" lon="6.58095">
        <ele>1193.4</ele>
        <time>2024-08-18T14:47:53Z</time>
      </trkpt>
      <trkpt lat="44.85496" lon="6.58091">
        <ele>1193.6</ele>
        <time>2024-08-18T14:47:53Z</time>
      </trkpt>
      <trkpt lat="44.85491" lon="6.58089">
        <ele>1193.9</ele>
        <time>2024-08-18T14:47:53Z</time>
      </trkpt>
      <trkpt lat="44.85481" lon="6.58085">
        <ele>1193.7</ele>
        <time>2024-08-18T14:47:53Z</time>
      </trkpt>
      <trkpt lat="44.85465" lon="6.58076">
        <ele>1193.8</ele>
        <time>2024-08-18T14:47:53Z</time>
      </trkpt>
      <trkpt lat="44.85455" lon="6.58071">
        <ele>1193.3</ele>
        <time>2024-08-18T14:47:53Z</time>
      </trkpt>
      <trkpt lat="44.85446" lon="6.58065">
        <ele>1193</ele>
        <time>2024-08-18T14:47:53Z</time>
      </trkpt>
      <trkpt lat="44.85437" lon="6.58055">
        <ele>1193.2</ele>
        <time>2024-08-18T14:47:53Z</time>
      </trkpt>
      <trkpt lat="44.85431" lon="6.58045">
        <ele>1193.3</ele>
        <time>2024-08-18T14:47:53Z</time>
      </trkpt>
      <trkpt lat="44.85422" lon="6.58033">
        <ele>1193.1</ele>
        <time>2024-08-18T14:47:53Z</time>
      </trkpt>
      <trkpt lat="44.85415" lon="6.58022">
        <ele>1192.5</ele>
        <time>2024-08-18T14:47:53Z</time>
      </trkpt>
      <trkpt lat="44.85408" lon="6.58009">
        <ele>1191.8</ele>
        <time>2024-08-18T14:47:53Z</time>
      </trkpt>
    </trkseg>
  </trk>
</gpx>